[[{"header":{"parameterUnit":"m.s-1","parameterCategory":1,"la1":31.0,"la2":29.5877,"lo1":-88.7671,"lo2":-86.6584,"dy":0.0162,"dx":0.0185,"nx":115,"ny":88,"refTime":"2024-08-10T06:00:00:Z","depth":0,"parameterNumber":2,"parameterNumberName":"U-component_of_WINDS"},"data":[0.0,0.0,0.0,0.0,0.0,0.0,0.0,0.0,0.0,0.0,0.0,0.0,0.0,0.0,0.0,0.0,0.0,0.0,0.0,0.0,0.0,0.0,0.0,0.0,0.0,0.0,0.0,0.0,0.0,0.0,0.0,0.0,0.0,0.0,0.0,0.0,0.0,0.0,0.0,0.0,0.0,0.0,0.0,0.0,0.0,0.0,0.0,0.0,0.0,0.0,0.0,0.0,0.0,0.0,0.0,0.0,0.0,0.0,0.0,0.0,0.0,0.0,0.0,0.0,0.0,0.0,0.0,0.0,0.0,0.0,0.0,0.0,0.0,0.0,0.0,0.0,0.0,0.0,0.0,0.0,0.0,0.0,0.0,0.0,0.0,0.0,0.0,0.0,0.0,0.0,0.0,0.0,0.0,0.0,0.0,0.0,0.0,0.0,0.0,0.0,0.0,0.0,0.0,0.0,0.0,0.0,0.0,0.0,0.0,0.0,0.0,0.0,0.0,0.0,0.0,0.0,0.0,0.0,0.0,0.0,0.0,0.0,0.0,0.0,0.0,0.0,0.0,0.0,0.0,0.0,0.0,0.0,0.0,0.0,0.0,0.0,0.0,0.0,0.0,0.0,0.0,0.0,0.0,0.0,0.0,0.0,0.0,0.0,0.0,0.0,0.0,0.0,0.0,0.0,0.0,0.0,0.0,0.0,0.0,0.0,0.0,0.0,0.0,0.0,0.0,0.0,0.0,0.0,0.0,0.0,0.0,0.0,0.0,0.0,0.0,0.0,0.0,0.0,0.0,0.0,0.0,0.0,0.0,0.0,0.0,0.0,0.0,0.0,0.0,0.0,0.0,0.0,0.0,0.0,0.0,0.0,0.0,0.0,0.0,0.0,0.0,0.0,0.0,0.0,0.0,0.0,0.0,0.0,0.0,0.0,0.0,0.0,0.0,0.0,0.0,0.0,0.0,0.0,0.0,0.0,0.0,0.0,0.0,0.0,0.0,0.0,0.0,0.0,0.0,0.0,0.0,0.0,0.0,0.0,0.0,0.0,0.0,0.0,0.0,0.0,0.0,0.0,0.0,0.0,0.0,0.0,0.0,0.0,0.0,0.0,0.0,0.0,0.0,0.0,0.0,0.0,0.0,0.0,0.0,0.0,0.0,0.0,0.0,0.0,0.0,0.0,0.0,0.0,0.0,0.0,0.0,0.0,0.0,0.0,0.0,0.0,0.0,0.0,0.0,0.0,0.0,0.0,0.0,0.0,0.0,0.0,0.0,0.0,0.0,0.0,0.0,0.0,0.0,0.0,0.0,0.0,0.0,0.0,0.0,0.0,0.0,0.0,0.0,0.0,0.0,0.0,0.0,0.0,0.0,0.0,0.0,0.0,0.0,0.0,0.0,0.0,0.0,0.0,0.0,0.0,0.0,0.0,0.0,0.0,0.0,0.0,0.0,0.0,0.0,0.0,0.0,0.0,0.0,0.0,0.0,0.0,0.0,0.0,0.0,0.0,0.0,0.0,0.0,0.0,0.0,0.0,0.0,0.0,0.0,0.0,0.0,0.0,0.0,0.0,0.0,0.0,0.0,0.0,0.0,0.0,0.0,0.0,0.0,0.0,0.0,0.0,0.0,0.0,0.0,0.0,0.0,0.0,0.0,0.0,0.0,0.0,0.0,0.0,0.0,0.0,0.0,0.0,0.0,0.0,0.0,0.0,0.0,0.0,0.0,0.0,0.0,0.0,0.0,0.0,0.0,0.0,0.0,0.0,0.0,0.0,0.0,0.0,0.0,0.0,0.0,0.0,0.0,0.0,0.0,0.0,0.0,0.0,0.0,0.0,0.0,0.0,0.0,0.0,0.0,0.0,0.0,0.0,0.0,0.0,0.0,0.0,0.0,0.0,0.0,0.0,0.0,0.0,0.0,0.0,0.0,0.0,0.0,0.0,0.0,0.0,0.0,0.0,0.0,0.0,0.0,0.0,0.0,0.0,0.0,0.0,0.0,0.0,0.0,0.0,0.0,0.0,0.0,0.0,0.0,0.0,0.0,0.0,0.0,0.0,0.0,0.0,0.0,0.0,0.0,0.0,0.0,0.0,0.0,0.0,0.0,0.0,0.0,0.0,0.0,0.0,0.0,0.0,0.0,0.0,0.0,0.0,0.0,0.0,0.0,0.0,0.0,0.0,0.0,0.0,0.0,0.0,0.0,0.0,0.0,0.0,0.0,0.0,0.0,0.0,0.0,0.0,0.0,0.0,0.0,0.0,0.0,0.0,0.0,0.0,0.0,0.0,0.0,0.0,0.0,0.0,0.0,0.0,0.0,0.0,0.0,0.0,0.0,0.0,0.0,0.0,0.0,0.0,0.0,0.0,0.0,0.0,0.0,0.0,0.0,0.0,0.0,0.0,0.0,0.0,0.0,0.0,0.0,0.0,0.0,0.0,0.0,0.0,0.0,0.0,0.0,0.0,0.0,0.0,0.0,0.0,0.0,0.0,0.0,0.0,0.0,0.0,0.0,0.0,0.0,0.0,0.0,0.0,0.0,0.0,0.0,0.0,0.0,0.0,0.0,0.0,0.0,0.0,0.0,0.0,0.0,0.0,0.0,0.0,0.0,0.0,0.0,0.0,0.0,0.0,0.0,0.0,0.0,0.0,0.0,0.0,0.0,0.0,0.0,0.0,0.0,0.0,0.0,0.0,0.0,0.0,0.0,0.0,0.0,0.0,0.0,0.0,0.0,0.0,0.0,0.0,0.0,0.0,0.0,0.0,0.0,0.0,0.0,0.0,0.0,0.0,0.0,0.0,0.0,0.0,0.0,0.0,0.0,0.0,0.0,0.0,0.0,0.0,0.0,0.0,0.0,0.0,0.0,0.0,0.0,0.0,0.0,0.0,0.0,0.0,0.0,0.0,0.0,0.0,0.0,0.0,0.0,0.0,0.0,0.0,0.0,0.0,0.0,0.0,0.0,0.0,0.0,0.0,0.0,0.0,0.0,0.0,0.0,0.0,0.0,0.0,0.0,0.0,0.0,0.0,0.0,0.0,0.0,0.0,0.0,0.0,0.0,0.0,0.0,0.0,0.0,0.0,0.0,0.0,0.0,0.0,0.0,0.0,0.0,0.0,0.0,0.0,0.0,0.0,0.0,0.0,0.0,0.0,0.0,0.0,0.0,0.0,0.0,0.0,0.0,0.0,0.0,0.0,0.0,0.0,0.0,0.0,0.0,0.0,0.0,0.0,0.0,0.0,0.0,0.0,0.0,0.0,0.0,0.0,0.0,0.0,0.0,0.0,0.0,0.0,0.0,0.0,0.0,0.0,0.0,0.0,0.0,0.0,0.0,0.0,0.0,0.0,0.0,0.0,0.0,0.0,0.0,0.0,0.0,0.0,0.0,0.0,0.0,0.0,0.0,0.0,0.0,0.0,0.0,0.0,0.0,0.0,0.0,0.0,0.0,0.0,0.0,0.0,0.0,0.0,0.0,0.0,0.0,0.0,0.0,0.0,0.0,0.0,0.0,0.0,0.0,0.0,0.0,0.0,0.0,0.0,0.0,0.0,0.0,0.0,0.0,0.0,0.0,0.0,0.0,0.0,0.0,0.0,0.0,0.0,0.0,0.0,0.0,0.0,0.0,0.0,0.0,0.0,0.0,0.0,0.0,0.0,0.0,0.0,0.0,0.0,0.0,0.0,0.0,0.0,0.0,0.0,0.0,0.0,0.0,0.0,0.0,0.0,0.0,0.0,0.0,0.0,0.0,0.0,0.0,0.0,0.0,0.0,0.0,0.0,0.0,0.0,0.0,0.0,0.0,0.0,0.0,0.0,0.0,0.0,0.0,0.0,0.0,0.0,0.0,0.0,0.0,0.0,0.0,0.0,0.0,0.0,0.0,0.0,0.0,0.0,0.0,0.0,0.0,0.0,0.0,0.0,0.0,0.0,0.0,0.0,0.0,0.0,0.0,0.0,0.0,0.0,0.0,0.0,0.0,0.0,0.0,0.0,0.0,0.0,0.0,0.0,0.0,0.0,0.0,0.0,0.0,0.0,0.0,0.0,0.0,0.0,0.0,0.0,0.0,0.0,0.0,0.0,0.0,0.0,0.0,0.0,0.0,0.0,0.0,0.0,0.0,0.0,0.0,0.0,0.0,0.0,0.0,0.0,0.0,0.0,0.0,0.0,0.0,0.0,0.0,0.0,0.0,0.0,0.0,0.0,0.0,0.0,0.0,0.0,0.0,0.0,0.0,0.0,0.0,0.0,0.0,0.0,0.0,0.0,0.0,0.0,2.4719,0.0,0.0,0.0,0.0,0.0,0.0,0.0,0.0,0.0,0.0,0.0,0.0,0.0,0.0,0.0,0.0,0.0,0.0,0.0,0.0,0.0,0.0,0.0,0.0,0.0,0.0,0.0,0.0,0.0,0.0,0.0,0.0,0.0,0.0,0.0,0.0,0.0,0.0,0.0,0.0,0.0,0.0,0.0,0.0,0.0,0.0,0.0,0.0,0.0,0.0,0.0,0.0,0.0,0.0,0.0,0.0,0.0,0.0,0.0,0.0,0.0,0.0,0.0,0.0,0.0,0.0,0.0,0.0,0.0,0.0,0.0,0.0,0.0,0.0,0.0,0.0,0.0,0.0,0.0,0.0,0.0,0.0,0.0,0.0,0.0,0.0,0.0,0.0,0.0,0.0,0.0,0.0,0.0,0.0,0.0,0.0,0.0,0.0,0.0,0.0,0.0,0.0,0.0,0.0,0.0,0.0,0.0,0.0,0.0,0.0,2.7291,2.5707,2.8074,2.7802,2.452,0.0,0.0,0.0,0.0,0.0,0.0,0.0,0.0,0.0,0.0,0.0,0.0,0.0,0.0,0.0,0.0,0.0,0.0,0.0,0.0,0.0,0.0,0.0,0.0,0.0,0.0,0.0,0.0,0.0,0.0,0.0,0.0,0.0,0.0,0.0,0.0,0.0,0.0,0.0,0.0,0.0,0.0,0.0,0.0,0.0,0.0,0.0,0.0,0.0,0.0,0.0,0.0,0.0,0.0,0.0,0.0,0.0,0.0,0.0,0.0,0.0,0.0,0.0,0.0,0.0,0.0,0.0,0.0,0.0,0.0,0.0,0.0,0.0,0.0,0.0,0.0,0.0,0.0,0.0,0.0,0.0,0.0,0.0,0.0,0.0,0.0,0.0,0.0,0.0,0.0,0.0,0.0,0.0,0.0,0.0,0.0,0.0,0.0,0.0,0.0,0.0,0.0,0.0,0.0,0.0,0.0,0.0,0.0,0.0,0.0,0.0,0.0,2.8359,2.7997,2.5031,0.0,0.0,0.0,0.0,0.0,0.0,0.0,0.0,0.0,0.0,0.0,0.0,0.0,0.0,0.0,0.0,0.0,0.0,0.0,0.0,0.0,0.0,0.0,0.0,0.0,0.0,0.0,0.0,0.0,0.0,0.0,0.0,0.0,0.0,0.0,0.0,0.0,0.0,0.0,0.0,0.0,0.0,0.0,0.0,0.0,0.0,0.0,0.0,0.0,0.0,0.0,0.0,0.0,0.0,0.0,0.0,0.0,0.0,0.0,0.0,0.0,0.0,0.0,0.0,0.0,0.0,0.0,0.0,0.0,0.0,0.0,0.0,0.0,0.0,0.0,0.0,0.0,0.0,0.0,0.0,0.0,0.0,0.0,0.0,0.0,0.0,0.0,0.0,0.0,0.0,0.0,0.0,0.0,0.0,0.0,0.0,0.0,0.0,0.0,0.0,0.0,0.0,0.0,0.0,0.0,0.0,0.0,0.0,0.0,0.0,2.6856,2.8968,2.9272,0.0,2.6732,0.0,0.0,0.0,0.0,0.0,0.0,0.0,0.0,0.0,0.0,0.0,0.0,0.0,0.0,0.0,0.0,0.0,0.0,0.0,0.0,0.0,0.0,0.0,0.0,0.0,0.0,0.0,0.0,0.0,0.0,0.0,0.0,0.0,0.0,0.0,0.0,0.0,0.0,0.0,0.0,0.0,0.0,0.0,0.0,0.0,0.0,0.0,0.0,0.0,0.0,0.0,0.0,0.0,0.0,0.0,0.0,0.0,0.0,0.0,0.0,0.0,0.0,0.0,0.0,0.0,0.0,0.0,0.0,0.0,0.0,0.0,0.0,0.0,0.0,0.0,0.0,0.0,0.0,0.0,0.0,0.0,0.0,0.0,0.0,0.0,0.0,0.0,0.0,0.0,0.0,0.0,0.0,0.0,0.0,0.0,0.0,0.0,0.0,0.0,0.0,0.0,0.0,0.0,0.0,0.0,0.0,0.0,0.0,0.0,0.0,0.0,2.9363,2.9382,2.8385,0.0,0.0,0.0,0.0,0.0,0.0,0.0,0.0,0.0,0.0,0.0,0.0,0.0,0.0,0.0,0.0,0.0,0.0,0.0,0.0,0.0,0.0,0.0,0.0,0.0,0.0,0.0,0.0,0.0,0.0,0.0,0.0,0.0,0.0,0.0,0.0,0.0,0.0,0.0,0.0,0.0,0.0,0.0,0.0,0.0,0.0,0.0,0.0,0.0,0.0,0.0,0.0,0.0,0.0,0.0,0.0,0.0,0.0,0.0,0.0,0.0,0.0,0.0,0.0,0.0,0.0,0.0,0.0,0.0,0.0,0.0,0.0,0.0,0.0,0.0,0.0,0.0,0.0,0.0,0.0,0.0,0.0,0.0,0.0,0.0,0.0,0.0,0.0,0.0,0.0,0.0,0.0,0.0,0.0,0.0,0.0,0.0,0.0,0.0,0.0,0.0,0.0,0.0,0.0,0.0,0.0,0.0,0.0,0.0,0.0,2.7626,0.0,3.0261,2.9557,2.8197,2.634,0.0,0.0,0.0,0.0,0.0,0.0,0.0,0.0,0.0,0.0,0.0,0.0,0.0,0.0,0.0,0.0,0.0,0.0,0.0,0.0,0.0,0.0,0.0,0.0,0.0,0.0,0.0,0.0,0.0,0.0,0.0,0.0,0.0,0.0,0.0,0.0,0.0,0.0,0.0,0.0,0.0,0.0,0.0,0.0,0.0,0.0,0.0,0.0,0.0,0.0,0.0,0.0,0.0,0.0,0.0,0.0,0.0,0.0,0.0,0.0,0.0,0.0,0.0,0.0,0.0,0.0,0.0,0.0,0.0,0.0,0.0,0.0,0.0,0.0,0.0,0.0,0.0,0.0,0.0,0.0,0.0,0.0,0.0,0.0,0.0,0.0,0.0,0.0,0.0,0.0,0.0,0.0,0.0,0.0,0.0,0.0,0.0,0.0,0.0,0.0,0.0,0.0,0.0,0.0,0.0,0.0,0.0,0.0,0.0,3.0458,3.0484,3.2798,2.9933,2.817,0.0,0.0,0.0,0.0,0.0,0.0,0.0,0.0,0.0,0.0,0.0,0.0,0.0,0.0,0.0,0.0,0.0,0.0,0.0,0.0,0.0,0.0,0.0,0.0,0.0,0.0,0.0,0.0,0.0,0.0,0.0,0.0,0.0,0.0,0.0,0.0,0.0,0.0,0.0,0.0,0.0,0.0,0.0,0.0,0.0,0.0,0.0,0.0,0.0,0.0,0.0,0.0,0.0,0.0,0.0,0.0,0.0,0.0,0.0,0.0,0.0,0.0,0.0,0.0,0.0,0.0,0.0,0.0,0.0,0.0,0.0,0.0,0.0,0.0,0.0,0.0,0.0,0.0,0.0,0.0,0.0,0.0,0.0,0.0,0.0,0.0,0.0,0.0,0.0,0.0,0.0,0.0,0.0,0.0,0.0,0.0,0.0,0.0,0.0,0.0,0.0,0.0,0.0,0.0,0.0,0.0,0.0,0.0,0.0,2.8311,2.957,3.0921,3.2238,3.0634,2.9751,0.0,0.0,0.0,0.0,0.0,0.0,0.0,0.0,0.0,0.0,0.0,0.0,0.0,0.0,0.0,0.0,0.0,0.0,0.0,0.0,0.0,0.0,0.0,0.0,0.0,0.0,0.0,0.0,0.0,0.0,0.0,0.0,0.0,0.0,0.0,0.0,0.0,0.0,0.0,0.0,0.0,0.0,0.0,0.0,0.0,0.0,0.0,0.0,0.0,0.0,0.0,0.0,0.0,0.0,0.0,0.0,0.0,0.0,0.0,0.0,0.0,0.0,0.0,0.0,0.0,0.0,0.0,0.0,0.0,0.0,0.0,0.0,0.0,0.0,0.0,0.0,0.0,0.0,0.0,0.0,0.0,0.0,0.0,0.0,0.0,0.0,0.0,0.0,0.0,0.0,0.0,0.0,0.0,0.0,0.0,0.0,0.0,0.0,0.0,0.0,0.0,0.0,0.0,0.0,0.0,0.0,0.0,0.0,0.0,2.8129,0.0,3.28,0.0,3.1402,3.0289,0.0,0.0,0.0,0.0,0.0,0.0,0.0,0.0,0.0,0.0,0.0,0.0,0.0,0.0,0.0,0.0,0.0,0.0,0.0,0.0,0.0,0.0,0.0,0.0,0.0,0.0,0.0,0.0,0.0,0.0,0.0,0.0,0.0,0.0,0.0,0.0,0.0,0.0,0.0,0.0,0.0,0.0,0.0,0.0,0.0,0.0,0.0,0.0,0.0,0.0,0.0,0.0,0.0,0.0,0.0,0.0,0.0,0.0,0.0,0.0,0.0,0.0,0.0,0.0,0.0,0.0,0.0,0.0,0.0,0.0,0.0,0.0,0.0,0.0,0.0,0.0,0.0,0.0,0.0,0.0,0.0,0.0,0.0,0.0,0.0,0.0,0.0,0.0,0.0,0.0,0.0,0.0,0.0,0.0,0.0,0.0,0.0,0.0,0.0,0.0,0.0,0.0,0.0,0.0,0.0,0.0,0.0,0.0,2.8265,3.3005,3.5645,3.6153,3.4646,3.2143,2.9644,0.0,0.0,0.0,0.0,0.0,0.0,0.0,0.0,0.0,0.0,0.0,0.0,0.0,0.0,0.0,0.0,0.0,0.0,0.0,0.0,0.0,0.0,0.0,0.0,0.0,0.0,0.0,0.0,0.0,0.0,0.0,0.0,0.0,0.0,0.0,0.0,0.0,0.0,0.0,0.0,0.0,0.0,0.0,0.0,0.0,0.0,0.0,0.0,0.0,0.0,0.0,0.0,0.0,0.0,0.0,0.0,0.0,0.0,0.0,0.0,0.0,0.0,0.0,0.0,0.0,0.0,0.0,0.0,0.0,0.0,0.0,0.0,0.0,0.0,0.0,0.0,0.0,0.0,0.0,0.0,0.0,0.0,0.0,0.0,0.0,0.0,0.0,0.0,0.0,0.0,0.0,0.0,0.0,0.0,0.0,0.0,0.0,0.0,0.0,0.0,0.0,0.0,0.0,0.0,0.0,0.0,0.0,0.0,0.0,3.1576,3.4559,3.6435,3.6839,3.2897,3.1107,0.0,0.0,0.0,0.0,0.0,0.0,0.0,0.0,0.0,0.0,0.0,0.0,0.0,0.0,0.0,0.0,0.0,0.0,0.0,0.0,0.0,0.0,0.0,0.0,0.0,0.0,0.0,0.0,0.0,0.0,0.0,0.0,0.0,0.0,0.0,0.0,0.0,0.0,0.0,0.0,0.0,0.0,0.0,0.0,0.0,0.0,0.0,0.0,0.0,0.0,0.0,0.0,0.0,0.0,0.0,0.0,0.0,0.0,0.0,0.0,0.0,0.0,0.0,0.0,0.0,0.0,0.0,0.0,0.0,0.0,0.0,0.0,0.0,0.0,0.0,0.0,0.0,0.0,0.0,0.0,0.0,0.0,0.0,0.0,0.0,0.0,0.0,0.0,0.0,0.0,0.0,0.0,0.0,0.0,0.0,0.0,0.0,0.0,0.0,0.0,0.0,0.0,0.0,0.0,0.0,0.0,0.0,0.0,0.0,3.3722,3.6852,3.8616,3.8624,3.4333,3.2307,3.2829,0.0,0.0,0.0,0.0,0.0,0.0,0.0,0.0,0.0,0.0,0.0,0.0,0.0,0.0,0.0,0.0,0.0,0.0,0.0,0.0,0.0,0.0,0.0,0.0,0.0,0.0,0.0,0.0,0.0,0.0,0.0,0.0,0.0,0.0,0.0,0.0,0.0,0.0,0.0,0.0,0.0,0.0,0.0,0.0,0.0,0.0,0.0,0.0,0.0,0.0,0.0,0.0,0.0,0.0,0.0,0.0,0.0,0.0,0.0,0.0,0.0,0.0,0.0,0.0,0.0,0.0,0.0,0.0,0.0,0.0,0.0,0.0,0.0,0.0,0.0,0.0,0.0,0.0,0.0,0.0,0.0,0.0,0.0,0.0,0.0,0.0,0.0,0.0,0.0,0.0,0.0,0.0,0.0,0.0,0.0,0.0,0.0,0.0,0.0,0.0,0.0,0.0,0.0,0.0,0.0,0.0,0.0,0.0,3.8479,4.1936,4.2471,3.9837,3.6367,3.338,0.0,0.0,0.0,0.0,0.0,0.0,0.0,0.0,0.0,0.0,0.0,0.0,0.0,0.0,0.0,0.0,0.0,0.0,0.0,0.0,0.0,0.0,0.0,0.0,0.0,0.0,0.0,0.0,0.0,0.0,0.0,0.0,0.0,0.0,0.0,0.0,0.0,0.0,0.0,0.0,0.0,0.0,0.0,0.0,0.0,0.0,0.0,0.0,0.0,0.0,0.0,0.0,0.0,0.0,0.0,0.0,0.0,0.0,0.0,0.0,0.0,0.0,0.0,0.0,0.0,0.0,0.0,0.0,0.0,0.0,0.0,0.0,0.0,0.0,0.0,0.0,0.0,0.0,0.0,0.0,0.0,0.0,0.0,0.0,0.0,0.0,0.0,0.0,0.0,0.0,0.0,0.0,0.0,0.0,0.0,0.0,0.0,0.0,0.0,0.0,0.0,0.0,0.0,0.0,0.0,0.0,0.0,0.0,0.0,4.1986,4.5283,4.5771,4.3061,3.8588,3.5585,0.0,0.0,0.0,0.0,0.0,0.0,0.0,0.0,0.0,0.0,0.0,0.0,0.0,0.0,0.0,0.0,0.0,0.0,0.0,0.0,0.0,0.0,0.0,0.0,0.0,0.0,0.0,0.0,0.0,0.0,0.0,0.0,0.0,0.0,0.0,0.0,0.0,0.0,0.0,0.0,0.0,0.0,0.0,0.0,0.0,0.0,0.0,0.0,0.0,0.0,0.0,0.0,0.0,0.0,0.0,0.0,0.0,0.0,0.0,0.0,0.0,0.0,0.0,0.0,0.0,0.0,0.0,0.0,0.0,0.0,0.0,0.0,0.0,0.0,0.0,0.0,0.0,0.0,0.0,0.0,0.0,0.0,0.0,0.0,0.0,0.0,0.0,0.0,0.0,0.0,0.0,0.0,0.0,0.0,0.0,0.0,0.0,0.0,0.0,0.0,0.0,0.0,0.0,0.0,0.0,0.0,0.0,0.0,4.1112,4.4245,4.7243,4.7831,4.5932,4.172,3.8048,0.0,0.0,0.0,0.0,0.0,0.0,0.0,0.0,0.0,0.0,0.0,0.0,0.0,0.0,0.0,0.0,0.0,0.0,0.0,0.0,0.0,0.0,0.0,0.0,0.0,0.0,0.0,0.0,0.0,0.0,0.0,0.0,0.0,0.0,0.0,0.0,0.0,0.0,0.0,0.0,0.0,0.0,0.0,0.0,0.0,0.0,0.0,0.0,0.0,0.0,0.0,0.0,0.0,0.0,0.0,0.0,0.0,0.0,0.0,0.0,0.0,0.0,0.0,0.0,0.0,0.0,0.0,0.0,0.0,0.0,0.0,0.0,0.0,0.0,0.0,0.0,0.0,0.0,0.0,0.0,0.0,0.0,0.0,0.0,0.0,0.0,0.0,0.0,0.0,0.0,0.0,0.0,0.0,0.0,0.0,0.0,0.0,0.0,0.0,0.0,0.0,0.0,0.0,0.0,0.0,0.0,0.0,0.0,4.1851,4.6136,4.8409,4.9163,4.8317,4.5038,4.0563,0.0,0.0,0.0,0.0,0.0,0.0,0.0,0.0,0.0,0.0,0.0,0.0,0.0,0.0,0.0,0.0,0.0,0.0,0.0,0.0,0.0,0.0,0.0,0.0,0.0,0.0,0.0,0.0,0.0,0.0,0.0,0.0,0.0,0.0,0.0,0.0,0.0,0.0,0.0,0.0,0.0,0.0,0.0,0.0,0.0,0.0,0.0,0.0,0.0,0.0,0.0,0.0,0.0,0.0,0.0,0.0,0.0,0.0,0.0,0.0,0.0,0.0,0.0,0.0,0.0,0.0,0.0,0.0,0.0,0.0,0.0,0.0,0.0,0.0,0.0,0.0,0.0,0.0,0.0,0.0,0.0,0.0,0.0,0.0,0.0,0.0,0.0,0.0,0.0,0.0,0.0,0.0,0.0,0.0,0.0,0.0,0.0,0.0,0.0,0.0,0.0,0.0,0.0,0.0,0.0,0.0,0.0,0.0,4.4152,4.955,5.0181,5.0317,5.0125,4.6215,4.1967,0.0,0.0,0.0,0.0,0.0,0.0,0.0,0.0,0.0,0.0,0.0,0.0,0.0,0.0,0.0,0.0,0.0,0.0,0.0,0.0,0.0,0.0,0.0,0.0,0.0,0.0,0.0,0.0,0.0,0.0,0.0,0.0,0.0,0.0,0.0,0.0,0.0,0.0,0.0,0.0,0.0,0.0,0.0,0.0,0.0,0.0,0.0,0.0,2.2371,0.0,0.0,0.0,0.0,0.0,0.0,0.0,0.0,0.0,0.0,0.0,0.0,0.0,0.0,0.0,0.0,0.0,0.0,0.0,0.0,0.0,0.0,0.0,0.0,0.0,0.0,0.0,0.0,0.0,0.0,0.0,0.0,0.0,0.0,0.0,0.0,0.0,0.0,0.0,0.0,0.0,0.0,0.0,0.0,0.0,0.0,0.0,0.0,0.0,0.0,0.0,0.0,0.0,0.0,0.0,0.0,0.0,0.0,0.0,4.6074,5.0583,5.1472,5.1683,5.1202,4.8739,4.4248,0.0,0.0,0.0,0.0,0.0,0.0,0.0,0.0,0.0,0.0,0.0,0.0,0.0,0.0,0.0,0.0,0.0,0.0,0.0,0.0,0.0,0.0,0.0,0.0,0.0,0.0,0.0,0.0,0.0,0.0,0.0,0.0,0.0,0.0,0.0,0.0,0.0,0.0,0.0,0.0,0.0,0.0,0.0,0.0,0.0,0.0,0.0,0.0,0.0,0.0,0.0,0.0,0.0,0.0,0.0,0.0,0.0,0.0,0.0,0.0,0.0,0.0,0.0,0.0,0.0,0.0,0.0,0.0,0.0,0.0,0.0,0.0,0.0,0.0,0.0,0.0,0.0,0.0,0.0,0.0,0.0,0.0,0.0,0.0,0.0,0.0,0.0,0.0,0.0,0.0,0.0,0.0,0.0,0.0,0.0,0.0,0.0,0.0,0.0,0.0,0.0,0.0,0.0,0.0,0.0,0.0,0.0,4.3666,4.7376,5.1145,5.2549,5.2837,5.2125,5.1048,4.6254,3.743,0.0,0.0,0.0,0.0,0.0,0.0,0.0,0.0,0.0,0.0,0.0,0.0,0.0,0.0,0.0,0.0,0.0,0.0,0.0,0.0,0.0,0.0,0.0,0.0,0.0,0.0,0.0,0.0,0.0,0.0,0.0,0.0,0.0,0.0,0.0,0.0,0.0,0.0,2.572,2.6389,0.0,0.0,0.0,0.0,0.0,0.0,0.0,0.0,2.4581,0.0,0.0,0.0,0.0,0.0,0.0,0.0,0.0,0.0,0.0,0.0,0.0,0.0,0.0,0.0,0.0,0.0,0.0,0.0,0.0,0.0,0.0,0.0,0.0,0.0,0.0,0.0,0.0,0.0,0.0,0.0,0.0,0.0,0.0,0.0,0.0,0.0,0.0,0.0,0.0,0.0,0.0,0.0,0.0,0.0,0.0,0.0,0.0,0.0,0.0,0.0,0.0,0.0,0.0,0.0,0.0,4.257,4.3374,4.7021,5.3645,5.3433,5.3145,5.2933,5.0798,4.5928,3.8421,0.0,0.0,0.0,0.0,0.0,0.0,0.0,0.0,0.0,0.0,0.0,0.0,0.0,0.0,0.0,0.0,0.0,0.0,0.0,0.0,0.0,0.0,0.0,0.0,0.0,0.0,0.0,0.0,0.0,0.0,0.0,0.0,0.0,0.0,0.0,0.0,0.0,0.0,0.0,2.7007,2.717,0.0,0.0,0.0,0.0,0.0,0.0,0.0,0.0,2.4821,0.0,0.0,0.0,0.0,0.0,0.0,0.0,0.0,0.0,0.0,0.0,0.0,0.0,0.0,0.0,0.0,0.0,0.0,0.0,0.0,0.0,0.0,0.0,0.0,0.0,0.0,0.0,0.0,0.0,0.0,0.0,0.0,0.0,0.0,0.0,0.0,0.0,0.0,0.0,0.0,0.0,0.0,0.0,0.0,0.0,0.0,0.0,0.0,0.0,0.0,0.0,0.0,0.0,0.0,0.0,4.2472,4.622,5.0156,5.4318,5.447,5.4026,5.3142,5.1083,4.6205,0.0,0.0,0.0,0.0,0.0,0.0,0.0,0.0,0.0,0.0,0.0,0.0,0.0,0.0,0.0,0.0,0.0,0.0,0.0,0.0,0.0,0.0,0.0,0.0,0.0,0.0,0.0,0.0,0.0,0.0,0.0,0.0,0.0,0.0,0.0,0.0,0.0,0.0,0.0,0.0,2.7902,2.8251,2.9132,0.0,0.0,0.0,0.0,0.0,0.0,2.6075,2.5395,0.0,0.0,0.0,0.0,0.0,0.0,0.0,0.0,0.0,0.0,0.0,0.0,0.0,0.0,0.0,0.0,0.0,0.0,0.0,0.0,0.0,0.0,0.0,0.0,0.0,0.0,0.0,0.0,0.0,0.0,0.0,0.0,0.0,0.0,0.0,0.0,0.0,0.0,0.0,0.0,0.0,0.0,0.0,0.0,0.0,0.0,0.0,0.0,0.0,0.0,0.0,0.0,0.0,0.0,0.0,4.199,4.8221,5.2454,5.4374,5.5193,5.4767,5.3097,5.1075,4.6244,0.0,0.0,0.0,0.0,0.0,0.0,0.0,0.0,0.0,0.0,0.0,0.0,0.0,0.0,0.0,0.0,0.0,0.0,0.0,0.0,0.0,0.0,0.0,0.0,0.0,0.0,0.0,0.0,0.0,0.0,0.0,0.0,0.0,0.0,0.0,0.0,0.0,0.0,0.0,0.0,0.0,2.9525,2.9754,3.0244,0.0,0.0,0.0,0.0,2.8838,2.7714,0.0,0.0,0.0,0.0,0.0,0.0,0.0,0.0,0.0,0.0,0.0,0.0,0.0,0.0,0.0,0.0,0.0,0.0,0.0,0.0,0.0,0.0,0.0,0.0,0.0,0.0,0.0,0.0,0.0,0.0,0.0,0.0,0.0,0.0,0.0,0.0,0.0,0.0,0.0,0.0,0.0,0.0,0.0,0.0,0.0,0.0,0.0,0.0,0.0,0.0,0.0,0.0,0.0,0.0,0.0,0.0,4.1738,4.5851,5.0008,5.4111,5.5105,5.4741,5.3053,4.9987,4.5107,0.0,0.0,0.0,0.0,0.0,0.0,0.0,0.0,0.0,0.0,0.0,0.0,0.0,0.0,0.0,0.0,0.0,0.0,0.0,0.0,0.0,0.0,0.0,0.0,0.0,0.0,0.0,0.0,0.0,0.0,0.0,0.0,0.0,0.0,0.0,0.0,0.0,0.0,0.0,0.0,0.0,3.0539,3.1329,3.095,3.077,0.0,0.0,3.0587,3.143,3.1391,0.0,0.0,0.0,0.0,0.0,0.0,0.0,0.0,0.0,0.0,0.0,0.0,0.0,0.0,0.0,0.0,0.0,0.0,0.0,0.0,0.0,0.0,0.0,0.0,0.0,0.0,0.0,0.0,0.0,0.0,0.0,0.0,0.0,0.0,0.0,0.0,0.0,0.0,0.0,0.0,0.0,0.0,0.0,0.0,0.0,0.0,0.0,0.0,0.0,0.0,0.0,0.0,0.0,0.0,0.0,3.4648,4.243,4.7741,5.1902,5.4852,5.5289,5.4652,5.2966,4.8773,4.3844,0.0,0.0,0.0,0.0,0.0,0.0,0.0,0.0,0.0,0.0,0.0,0.0,0.0,0.0,0.0,0.0,0.0,0.0,0.0,0.0,0.0,0.0,0.0,0.0,0.0,0.0,0.0,0.0,0.0,0.0,0.0,0.0,0.0,0.0,0.0,0.0,0.0,0.0,0.0,0.0,0.0,0.0,3.165,3.23,0.0,0.0,0.0,3.2006,3.1957,0.0,0.0,0.0,0.0,0.0,0.0,0.0,0.0,0.0,0.0,0.0,0.0,0.0,0.0,0.0,0.0,0.0,0.0,0.0,0.0,0.0,0.0,0.0,0.0,0.0,0.0,0.0,0.0,0.0,0.0,0.0,0.0,0.0,0.0,0.0,0.0,0.0,0.0,0.0,0.0,0.0,0.0,0.0,0.0,0.0,0.0,0.0,0.0,0.0,0.0,0.0,0.0,0.0,0.0,0.0,0.0,0.0,4.2729,4.9547,5.3713,5.5092,5.5312,5.4599,5.2858,4.8365,0.0,0.0,0.0,0.0,0.0,0.0,0.0,0.0,0.0,0.0,0.0,0.0,0.0,0.0,0.0,0.0,0.0,0.0,0.0,0.0,0.0,0.0,0.0,0.0,0.0,0.0,0.0,2.0921,0.0,0.0,0.0,0.0,0.0,0.0,0.0,0.0,0.0,0.0,0.0,0.0,0.0,0.0,3.2,3.2004,3.3381,3.4052,0.0,0.0,3.3286,3.2954,3.2876,3.2441,0.0,0.0,0.0,0.0,0.0,0.0,0.0,0.0,0.0,0.0,0.0,0.0,0.0,0.0,0.0,0.0,0.0,0.0,0.0,0.0,0.0,0.0,0.0,0.0,0.0,0.0,0.0,0.0,0.0,0.0,0.0,0.0,0.0,0.0,0.0,0.0,0.0,0.0,0.0,0.0,0.0,0.0,0.0,0.0,0.0,0.0,0.0,0.0,0.0,0.0,0.0,0.0,0.0,0.0,0.0,4.202,4.9637,5.3828,5.4224,5.4982,5.4562,5.2829,4.9494,4.4998,0.0,0.0,0.0,0.0,0.0,0.0,0.0,0.0,0.0,0.0,0.0,0.0,0.0,0.0,0.0,0.0,0.0,0.0,0.0,0.0,0.0,0.0,0.0,0.0,0.0,0.0,0.0,0.0,0.0,0.0,0.0,0.0,0.0,0.0,0.0,0.0,0.0,0.0,0.0,0.0,0.0,3.2856,3.2902,3.3749,3.4661,0.0,0.0,3.4584,3.5413,3.5519,3.4722,3.2295,0.0,0.0,0.0,0.0,0.0,0.0,0.0,0.0,0.0,0.0,0.0,0.0,0.0,0.0,0.0,0.0,0.0,0.0,0.0,0.0,0.0,0.0,0.0,0.0,0.0,0.0,0.0,0.0,0.0,0.0,0.0,0.0,0.0,0.0,0.0,0.0,0.0,0.0,0.0,0.0,0.0,0.0,0.0,0.0,0.0,0.0,0.0,0.0,0.0,0.0,0.0,0.0,0.0,3.9003,4.2549,4.9884,5.409,5.4868,5.5231,5.4581,5.2824,4.9644,4.515,0.0,0.0,0.0,0.0,0.0,0.0,0.0,0.0,0.0,0.0,0.0,0.0,0.0,0.0,0.0,0.0,0.0,0.0,0.0,0.0,0.0,0.0,0.0,0.0,0.0,0.0,0.0,0.0,2.4518,2.4959,2.5626,0.0,0.0,0.0,0.0,0.0,0.0,0.0,0.0,0.0,0.0,3.4168,3.5311,3.627,0.0,0.0,3.7139,3.6859,3.6673,3.6653,3.5974,3.3926,3.3572,0.0,0.0,0.0,0.0,0.0,0.0,0.0,0.0,0.0,0.0,0.0,0.0,0.0,0.0,0.0,0.0,0.0,0.0,0.0,0.0,0.0,0.0,0.0,0.0,0.0,0.0,0.0,0.0,0.0,0.0,0.0,0.0,0.0,0.0,0.0,0.0,0.0,0.0,0.0,0.0,0.0,0.0,0.0,0.0,0.0,0.0,0.0,0.0,0.0,0.0,0.0,0.0,4.0096,4.3015,5.0153,5.4339,5.5384,5.5403,5.4562,5.2824,5.0325,4.6393,0.0,0.0,0.0,0.0,0.0,0.0,0.0,0.0,0.0,0.0,0.0,0.0,0.0,0.0,0.0,0.0,0.0,0.0,0.0,0.0,0.0,0.0,0.0,0.0,0.0,0.0,0.0,0.0,2.5771,2.6069,2.6057,0.0,0.0,0.0,0.0,0.0,0.0,0.0,0.0,0.0,0.0,3.5568,3.682,3.7802,3.8399,3.8388,3.8443,3.8152,3.7292,3.7381,3.6981,3.5254,0.0,0.0,0.0,0.0,0.0,0.0,0.0,0.0,0.0,0.0,0.0,0.0,0.0,0.0,0.0,0.0,0.0,0.0,0.0,0.0,0.0,0.0,0.0,0.0,0.0,0.0,0.0,0.0,0.0,0.0,2.1605,0.0,0.0,0.0,0.0,0.0,0.0,0.0,0.0,0.0,0.0,0.0,0.0,0.0,0.0,0.0,0.0,0.0,0.0,0.0,0.0,0.0,0.0,4.2101,4.3111,5.0323,5.4505,5.5365,5.5403,5.4581,5.2862,5.1945,4.9121,4.4059,0.0,0.0,0.0,0.0,0.0,0.0,0.0,0.0,0.0,0.0,0.0,0.0,0.0,0.0,0.0,0.0,0.0,0.0,0.0,0.0,0.0,0.0,0.0,0.0,0.0,0.0,2.4531,2.5948,2.6906,0.0,0.0,0.0,0.0,0.0,0.0,0.0,0.0,0.0,0.0,3.4745,3.6978,3.7085,3.784,3.8524,3.8482,3.8429,3.8124,3.7245,3.7761,3.7802,0.0,0.0,0.0,0.0,0.0,0.0,0.0,0.0,0.0,0.0,0.0,0.0,0.0,0.0,0.0,0.0,0.0,0.0,0.0,0.0,0.0,0.0,0.0,0.0,0.0,0.0,0.0,2.6032,2.5145,0.0,0.0,0.0,0.0,0.0,0.0,0.0,0.0,0.0,0.0,0.0,3.4397,3.5242,0.0,0.0,0.0,0.0,0.0,0.0,0.0,0.0,0.0,0.0,0.0,0.0,4.2456,4.4045,5.0588,5.446,5.5255,5.5358,5.4581,5.2843,5.2537,4.9503,4.3408,0.0,0.0,0.0,0.0,0.0,0.0,0.0,0.0,0.0,0.0,0.0,0.0,0.0,0.0,0.0,0.0,0.0,0.0,0.0,0.0,0.0,0.0,0.0,0.0,0.0,2.6133,0.0,0.0,0.0,0.0,0.0,0.0,0.0,0.0,0.0,0.0,0.0,3.3519,3.5844,3.7153,3.8481,4.0209,4.077,4.0999,0.0,0.0,0.0,0.0,0.0,0.0,0.0,0.0,0.0,0.0,0.0,0.0,0.0,0.0,3.1937,3.0056,2.8038,2.6759,2.7218,0.0,0.0,0.0,0.0,0.0,0.0,0.0,0.0,0.0,0.0,0.0,0.0,0.0,0.0,2.978,0.0,2.8232,0.0,0.0,0.0,0.0,0.0,0.0,0.0,0.0,3.5997,3.8079,3.8594,3.9452,3.97,0.0,3.9433,3.6958,0.0,0.0,0.0,0.0,0.0,0.0,0.0,0.0,4.2871,4.4451,5.1006,5.4721,5.5164,5.5294,5.4492,5.2768,5.161,4.8827,4.4188,3.9848,3.6389,0.0,0.0,0.0,0.0,0.0,0.0,0.0,0.0,0.0,0.0,0.0,0.0,0.0,0.0,0.0,0.0,0.0,0.0,0.0,0.0,0.0,0.0,0.0,2.7129,0.0,0.0,0.0,0.0,0.0,0.0,0.0,0.0,0.0,3.1767,3.3635,3.5909,3.849,3.9088,3.9857,4.1509,0.0,0.0,0.0,0.0,0.0,0.0,0.0,3.6158,3.5033,3.5804,3.6736,3.7317,3.8371,3.878,3.7572,0.0,0.0,3.3306,3.1307,3.0221,3.0606,3.0547,3.0703,3.1544,3.1938,3.2182,0.0,0.0,0.0,0.0,0.0,0.0,0.0,0.0,3.418,3.5845,0.0,3.4109,0.0,0.0,0.0,0.0,0.0,3.4948,0.0,0.0,4.261,4.4224,4.2832,4.3583,4.3566,4.2783,4.2808,4.1989,4.0291,3.8014,0.0,0.0,0.0,0.0,0.0,0.0,4.3438,4.4739,5.1572,5.5183,5.5183,5.5203,5.4356,5.2608,4.9496,4.74,4.6382,4.3326,4.05,3.7882,3.4836,0.0,0.0,0.0,0.0,0.0,0.0,0.0,0.0,0.0,0.0,0.0,0.0,0.0,0.0,0.0,0.0,0.0,0.0,0.0,0.0,2.7067,0.0,0.0,0.0,0.0,0.0,0.0,0.0,0.0,0.0,0.0,3.2095,3.5629,3.8638,3.9507,0.0,0.0,0.0,0.0,3.9364,3.8465,3.8254,3.7687,3.6002,3.8481,4.0053,3.8472,0.0,0.0,4.1033,4.0781,4.0297,3.8682,3.9644,3.9653,3.6243,3.4202,3.2828,3.2599,3.3166,3.35,3.3478,3.4308,3.4529,4.3532,0.0,0.0,0.0,0.0,3.6835,3.7411,3.8312,3.8084,3.838,3.8863,3.6896,0.0,0.0,0.0,0.0,0.0,0.0,3.9204,4.1161,4.319,4.4759,4.6044,4.6296,4.6258,4.6049,4.603,4.5827,4.5309,4.4611,4.1322,3.5694,0.0,0.0,0.0,0.0,4.5342,4.849,5.2876,5.5094,5.5057,5.5094,5.4322,5.262,4.998,4.8153,4.7272,4.5201,4.2961,4.0501,3.7802,0.0,0.0,0.0,0.0,0.0,0.0,0.0,0.0,0.0,0.0,0.0,0.0,0.0,0.0,0.0,0.0,0.0,0.0,0.0,2.7795,2.8473,2.8688,0.0,0.0,0.0,0.0,0.0,0.0,0.0,0.0,0.0,3.6384,3.6453,3.7016,0.0,0.0,3.9208,3.9747,4.071,4.1283,4.1006,4.0947,0.0,0.0,3.9011,3.8659,3.8222,4.0004,4.1274,4.0758,4.121,4.168,4.1757,4.1712,4.1415,4.1012,3.9415,3.8159,3.8035,3.8118,3.8343,3.8852,3.9129,3.929,4.8157,4.3474,4.2515,4.1756,4.124,4.1225,4.182,4.2804,4.2355,4.2249,4.225,4.0839,3.9561,3.8398,3.7394,0.0,0.0,0.0,4.2898,4.5905,4.6348,4.7526,4.9248,4.9305,4.9116,4.8813,4.8794,4.8643,4.8302,4.8086,4.5612,4.1054,0.0,0.0,4.1242,4.4403,4.7379,5.0135,5.3408,5.5057,5.4981,5.4382,5.3546,5.2501,5.0152,4.8441,4.7566,4.6316,4.4611,4.2466,4.0043,3.7417,0.0,0.0,0.0,0.0,0.0,0.0,0.0,0.0,0.0,0.0,0.0,2.5756,2.4746,0.0,0.0,0.0,2.7402,2.8144,2.9205,2.9761,0.0,0.0,0.0,0.0,0.0,0.0,0.0,3.3235,3.5741,3.7905,3.8769,3.7937,3.816,4.0595,4.0593,4.0507,4.0961,0.0,4.2004,4.159,4.154,4.1241,4.0397,4.0184,4.034,4.1081,4.1738,4.2209,4.2226,4.2394,4.2692,4.3117,4.309,4.3101,4.3588,4.2961,4.2189,4.1579,4.132,4.1399,4.1776,4.1789,4.1895,5.1577,5.0762,4.8488,4.6673,4.5293,4.5274,4.5786,4.6539,4.6672,4.6778,4.6843,4.5453,4.4561,4.3923,4.1778,0.0,4.5475,4.5483,4.7477,5.1063,5.1024,5.1428,5.2201,5.2164,5.1786,5.1013,5.1013,5.0636,4.9881,4.9356,4.8568,4.7561,4.6183,4.5118,4.4499,4.7217,4.9229,5.0317,5.3286,5.4848,5.4981,5.33,5.24,5.2381,5.0047,4.839,4.7517,4.6787,4.5616,4.3942,4.1703,3.9355,3.6908,0.0,0.0,0.0,0.0,0.0,0.0,0.0,0.0,0.0,0.0,0.0,0.0,0.0,0.0,0.0,3.0886,0.0,3.1108,3.1167,0.0,0.0,0.0,3.3858,3.4792,3.6345,3.7306,3.7319,0.0,0.0,3.9894,3.9965,4.1163,4.4553,4.4058,4.3357,4.3286,4.2649,4.1956,4.1205,4.111,4.0919,4.0699,4.2059,4.3788,4.5137,4.5221,4.4621,4.4523,4.391,4.346,4.3581,4.4008,4.443,4.4469,4.498,4.5124,4.3475,4.3171,4.3119,4.2923,4.2878,4.2832,5.3032,5.2291,5.1663,5.0639,4.9391,4.9391,4.9501,4.9708,4.9468,4.8956,4.8221,4.7803,4.7502,4.7267,4.737,4.8163,4.9504,5.0184,5.0967,5.1892,5.19,5.1994,5.2183,5.2201,5.2088,5.19,5.19,5.1805,5.1598,5.1469,5.0373,4.8504,4.8682,4.7872,4.6125,4.7365,4.9056,5.1097,5.2475,5.3745,5.4836,5.3271,5.24,5.24,5.0039,4.8313,4.7441,4.667,4.5784,4.4729,4.2921,4.1144,3.945,3.5705,0.0,0.0,0.0,0.0,0.0,0.0,0.0,0.0,0.0,2.7686,2.6995,0.0,3.0296,0.0,3.1601,3.3039,3.371,3.4355,0.0,0.0,3.5213,3.5681,3.6508,3.8132,3.9129,3.9098,4.0434,4.17,4.2576,4.2658,4.3444,4.5508,4.3322,4.1442,4.1449,4.246,4.3034,4.2917,4.385,4.4735,4.4432,4.4944,4.5471,4.5841,4.5732,4.557,4.5524,4.4852,4.449,4.5003,4.4766,4.4774,4.5256,4.5571,4.5522,4.5139,4.4954,4.4787,4.4685,4.4541,4.4452,5.369,5.3316,5.297,5.1779,5.0226,5.0881,5.0973,5.0688,5.0506,5.0231,4.9949,5.0115,5.0155,5.0145,5.0617,5.1258,5.2032,5.251,5.2875,5.3214,5.3201,5.3169,5.3169,5.3169,5.2981,5.2655,5.2655,5.2435,5.2096,5.2517,5.2013,5.0781,5.1642,5.0928,4.8696,4.8452,4.9029,5.035,5.1821,5.3354,5.4769,5.3271,5.1897,5.0848,4.8777,4.6796,4.4949,4.4069,4.3248,4.2374,4.0769,3.9315,3.8147,3.5649,3.3137,0.0,0.0,0.0,0.0,0.0,0.0,0.0,0.0,0.0,0.0,0.0,3.2645,3.2916,3.4608,3.5867,3.6343,3.7148,3.7811,3.8182,3.86,3.9195,4.0003,4.1273,4.2086,4.207,4.3234,4.4221,4.4689,4.4741,4.5092,4.6073,4.4483,4.3216,4.3272,4.4078,4.4642,4.4662,4.544,4.6075,4.6075,4.6321,4.6525,4.6506,4.677,4.6892,4.6457,4.6018,4.5757,4.5761,4.5372,4.515,4.5591,4.562,4.5586,4.5603,4.5513,4.5419,4.536,4.5277,4.5129,5.4036,5.3927,5.3217,5.1711,4.9898,5.1183,5.1043,5.0002,4.9933,5.036,5.1143,5.1813,5.2178,5.2322,5.2322,5.2774,5.3509,5.3483,5.3795,5.4453,5.4424,5.4409,5.4409,5.4409,5.4033,5.3357,5.3339,5.2963,5.2268,5.3029,5.3301,5.3069,5.3905,5.3153,5.0711,4.9697,4.9245,4.9305,5.1452,5.3259,5.4562,5.2788,5.0836,4.8819,4.6934,4.4671,4.1986,4.0918,4.0038,3.9292,3.7858,3.6729,3.608,3.5218,3.3732,0.0,3.2039,0.0,0.0,0.0,0.0,0.0,0.0,0.0,0.0,3.4609,3.5838,3.7382,3.8296,3.8854,3.8978,3.9724,4.0527,4.1348,4.2106,4.2905,4.3769,4.4538,4.5039,4.5133,4.5787,4.6211,4.6153,4.6211,4.6201,4.6189,4.606,4.5859,4.6105,4.604,4.6025,4.6119,4.6191,4.6348,4.6344,4.6874,4.7345,4.7442,4.784,4.8121,4.7386,4.7221,4.694,4.6175,4.5905,4.5796,4.5678,4.5495,4.5438,4.5513,4.5438,4.5381,4.5381,4.5361,4.5297,5.4864,5.374,5.3577,5.2917,5.1937,5.2227,5.0247,4.6838,4.6474,4.7234,4.8959,5.0862,5.2203,5.2991,5.3029,5.3461,5.4198,5.4198,5.4274,5.4424,5.4409,5.4409,5.4409,5.4409,5.4315,5.4183,5.4165,5.409,5.3939,5.4123,5.3244,5.1498,5.2254,5.1178,4.8471,0.0,0.0,0.0,5.1757,5.2786,5.3003,5.0252,4.8544,4.8028,4.515,0.0,4.2675,4.1198,4.0342,4.0202,3.9269,0.0,0.0,0.0,0.0,0.0,0.0,0.0,0.0,0.0,0.0,0.0,3.4983,3.4911,3.5405,3.6819,3.8104,3.9145,4.0028,4.0818,4.1532,4.2362,4.2939,4.3114,4.3314,4.3814,4.4647,4.492,4.5263,4.5968,4.6191,4.6279,4.6279,4.6216,4.622,4.6267,4.6203,4.6196,4.6222,4.6235,4.6181,4.6141,4.6591,4.7023,4.7059,4.7656,4.8217,4.8275,4.8305,4.8338,4.8095,4.8033,4.7697,4.6756,4.6607,4.6282,4.5534,4.5341,4.5339,4.5342,4.5341,4.532,4.5381,4.5381,4.5361,5.5392,0.0,5.4254,5.3255,0.0,5.1864,4.978,4.6469,4.8161,4.964,5.094,5.2172,5.3099,5.3665,5.2545,5.2207,5.2461,5.1356,5.145,5.2517,5.2517,5.3121,5.4252,5.4252,5.4233,5.4252,5.4252,5.4306,5.4359,5.4359,5.3785,5.2686,5.3478,5.2899,5.1036,5.1802,5.1944,5.1408,5.2125,5.29,5.3622,5.1751,4.9949,4.8422,0.0,0.0,0.0,0.0,0.0,0.0,0.0,0.0,0.0,0.0,0.0,3.7063,3.7007,3.6832,3.649,3.6814,3.7802,3.9466,4.003,3.9754,3.8527,3.9978,4.1318,4.2179,4.2649,4.324,4.4141,4.4642,4.489,4.489,4.4929,4.513,4.5515,4.5604,4.5817,4.62,4.6303,4.6292,4.6292,4.6655,4.6816,4.6858,4.6852,4.684,4.6768,4.6449,4.6181,4.6152,4.6743,4.7248,4.7352,4.8308,4.9025,4.9019,4.9296,4.9095,4.8291,4.8099,4.7642,4.6417,4.607,4.5876,4.5453,4.5256,4.5235,4.5279,4.5237,4.5256,4.5361,4.5361,4.5361,5.5836,5.5536,5.5008,5.3628,5.1762,5.1836,5.0333,4.8042,0.0,0.0,0.0,5.3609,5.4018,5.4123,5.2236,5.133,5.1096,4.9288,4.9427,5.1176,5.1195,5.2233,5.4054,5.4091,5.4091,5.4091,5.4091,5.4127,5.4254,5.4273,5.4289,5.4415,5.5313,5.5463,5.4878,5.469,5.4011,5.2796,5.2504,5.3054,5.433,5.3299,5.1429,4.8762,4.7716,4.5994,4.3419,4.1803,4.1021,4.1105,3.97,3.8946,3.9116,3.9666,3.9425,3.8374,3.9478,4.0239,4.0254,4.0915,4.1974,4.3527,4.4469,4.4054,4.1824,4.3108,4.4317,4.5045,4.5045,4.5324,4.6099,4.6189,4.6196,4.6196,4.6196,4.6176,4.619,4.6234,4.6249,4.6307,4.6295,4.6358,4.655,4.7069,4.7582,4.7708,4.7729,4.7613,4.7338,4.6668,4.6158,4.6154,4.6896,4.7475,4.7656,4.8842,4.9772,4.9749,5.0102,4.9874,4.8644,4.7989,4.7221,4.5913,4.5502,4.5459,4.5287,4.5148,4.5103,4.5192,4.5125,4.5106,4.5279,4.5319,4.5298,5.6219,5.559,5.5482,5.4853,5.3936,5.3986,5.3356,5.2246,5.0593,5.0112,5.0657,5.2846,5.3907,5.4127,5.3788,5.3603,5.3585,5.3283,5.3321,0.0,5.3603,5.379,5.4091,5.4091,5.4091,5.4091,5.411,5.4091,5.4127,5.4127,5.4127,5.4368,5.5733,5.6515,5.6493,5.5817,5.5006,5.4134,5.2908,5.2456,5.2702,5.0751,4.9146,4.7884,4.655,4.526,4.4164,4.3254,4.2777,4.2918,4.2068,4.187,4.2531,4.2052,4.1938,4.2389,4.266,4.2776,4.2775,4.2904,4.34,4.4432,4.5277,4.5312,4.4394,4.5113,4.5716,4.5832,4.5852,4.5966,4.6102,4.6154,4.6196,4.6196,4.6196,4.6196,4.6203,4.6202,4.6249,4.6288,4.6295,4.6569,4.7088,4.7416,4.7855,4.8398,4.8555,4.8346,4.7551,4.6668,4.6154,4.6227,4.7326,4.8193,4.8373,4.9655,5.0468,5.0559,4.9986,4.949,4.8853,4.8156,4.7343,4.6396,4.6054,4.577,4.5157,4.4943,4.4919,4.4962,4.4895,4.4895,4.5038,4.5045,4.5159,5.6438,5.6062,5.6115,5.5953,5.5542,5.5111,5.4768,5.4385,5.2755,5.1876,5.1811,5.2942,5.3563,5.3721,5.2636,5.2039,5.1822,5.0725,5.0871,5.1983,5.2039,5.2731,5.387,5.3963,5.3944,5.3944,5.3944,5.3981,5.4074,5.4485,5.4521,5.4275,5.5074,5.5707,5.6117,5.5366,5.4766,5.439,5.3766,5.3478,5.3532,5.2561,5.1611,5.0821,4.9683,4.8748,4.8006,4.6873,4.6302,4.6433,4.5316,4.487,4.5208,4.4473,4.3983,4.396,4.3907,4.3935,4.3995,4.4434,4.4892,4.5338,4.5692,4.5762,4.5429,4.577,4.5994,4.5994,4.6037,4.6047,4.6113,4.6119,4.6142,4.6196,4.6196,4.6196,4.6209,4.6195,4.6205,4.6249,4.6282,4.6433,4.6791,4.7626,4.8293,4.8776,4.9126,4.9067,4.8234,4.7339,4.6557,4.6271,4.7391,4.8315,4.8535,4.9833,5.0687,5.0625,4.9875,4.9084,4.8391,4.7571,4.6678,4.5765,4.552,4.5338,4.4833,4.4719,4.4693,4.4693,4.4685,4.4693,4.4739,4.4583,4.4443,5.651,5.6383,5.6492,5.6546,5.6492,5.5937,5.5613,5.5432,5.4591,5.3839,5.3222,5.32,5.3456,5.3637,5.2121,5.1377,5.1084,4.9713,5.0,5.154,5.167,5.2623,5.4203,5.437,5.437,5.437,5.437,5.4408,5.4577,5.495,5.4913,5.4537,5.4568,5.4921,5.5557,5.4975,5.4562,5.4428,5.4375,5.4409,5.4472,5.4505,5.4143,5.3365,5.2579,5.1876,5.1111,4.9879,4.9285,4.9324,4.7991,4.7218,4.7139,4.6196,4.5362,4.4824,4.4731,4.4761,4.4885,4.5499,4.588,4.5893,4.5867,4.597,4.6164,4.624,4.6185,4.6042,4.6005,4.6037,4.6104,4.613,4.6154,4.6196,4.6196,4.6196,4.6209,4.6195,4.6204,4.6207,4.6265,4.637,4.6772,4.7869,4.8919,4.9425,4.9893,4.9897,4.9109,4.8277,4.7513,4.6867,4.7553,4.838,4.8512,4.9769,5.06,5.0507,4.9712,4.8735,4.7737,4.6771,4.5861,4.511,4.482,4.482,4.4731,4.4568,4.4486,4.4458,4.4402,4.4355,4.4465,4.375,4.3521,5.6383,5.6383,5.6401,5.6401,5.6437,5.6456,5.6009,5.5205,5.456,5.394,5.3435,5.3494,5.3845,5.4344,5.4115,5.4299,5.4962,5.531,5.5336,5.5503,5.5726,5.5856,5.5909,5.6023,5.606,5.5986,5.589,5.5819,5.5784,5.5261,5.506,5.5137,5.5156,5.5266,5.545,5.5411,5.5071,5.4409,5.4359,5.4359,5.4409,5.4472,5.4077,5.3222,5.2616,5.1916,5.1121,5.052,5.0233,5.0251,4.8875,4.8064,4.7927,4.6574,4.5661,4.558,4.5565,4.5615,4.566,4.578,4.5814,4.5814,4.5852,4.6162,4.6858,4.7043,4.6771,4.6282,4.6044,4.6095,4.6085,4.6177,4.6208,4.6313,4.6293,4.6196,4.6209,4.6195,4.6204,4.6204,4.6243,4.6553,4.7167,4.8125,4.9347,5.0505,5.0791,5.0695,4.9962,4.9509,4.8839,4.7701,4.7907,4.8358,4.8566,4.9688,5.0356,5.0291,4.9519,4.8471,4.7434,4.6554,4.5738,4.4968,4.4723,4.4704,4.464,4.4495,4.4308,4.4221,4.4102,4.3949,4.3994,4.3109,4.2607,5.6383,5.6383,5.6383,5.6383,5.6401,5.6455,5.5991,5.5205,5.4955,5.4556,5.4107,5.3936,5.3863,5.3991,5.4089,5.4527,5.5121,5.4979,5.5122,5.5489,5.5104,5.5104,5.5544,5.5581,5.5509,5.5254,5.5235,5.5081,5.4795,5.4558,5.4652,5.5081,5.4801,5.4631,5.4667,5.4667,5.4499,5.4235,5.4289,5.4289,5.4359,5.439,5.4048,5.324,5.246,5.1676,5.0889,5.0361,5.0133,5.014,4.883,4.8068,4.8105,4.6562,4.5654,4.5706,4.5735,4.5761,4.5805,4.5819,4.58,4.58,4.6283,4.6728,4.7076,4.7636,4.7831,4.7507,4.7031,4.6804,4.6834,4.6452,4.6329,4.678,4.6936,4.678,4.6261,4.6214,4.6204,4.6205,4.6223,4.6338,4.685,4.7938,4.9196,5.0361,5.086,5.0938,5.0631,5.0144,4.9511,4.8914,4.8879,4.8704,4.8478,4.912,4.9643,4.9488,4.9072,4.8327,4.6909,4.6315,4.5685,4.4804,4.4654,4.4597,4.4578,4.4288,4.403,4.3918,4.3693,4.3511,4.3627,4.2738,4.2261,5.6597,5.6401,5.6383,5.6383,5.6383,5.6383,5.6062,5.5526,5.5312,5.5025,5.4676,5.4007,5.3716,5.3742,5.3958,5.435,5.4671,5.44,5.4702,5.5312,5.4866,5.4921,5.5421,5.5578,5.5339,5.4914,5.4986,5.4726,5.4221,5.4242,5.4577,5.4987,5.4652,5.4521,5.4689,5.4615,5.4502,5.4427,5.4276,5.4181,5.4235,5.4306,5.3981,5.3188,5.217,5.1305,5.0773,5.0213,4.9952,5.0025,4.8659,4.7931,4.7972,4.6491,4.564,4.5709,4.5754,4.5761,4.5805,4.58,4.58,4.5858,4.6593,4.7212,4.7589,4.8333,4.8806,4.8807,4.8351,4.8008,4.766,4.6951,4.687,4.7611,4.7657,4.7216,4.6677,4.6554,4.6479,4.6268,4.6198,4.6309,4.6638,4.7645,4.8752,4.9828,5.0481,5.0975,5.1004,5.0546,5.0032,4.9702,4.9461,4.9141,4.8604,4.9143,4.9302,4.9096,4.8915,4.8067,4.6553,4.6214,4.5612,4.474,4.4636,4.4411,4.4229,4.3986,4.3612,4.3424,4.3196,4.3032,4.3142,4.2413,4.1648,5.7079,5.6436,5.6401,5.6383,5.6383,5.6383,5.6365,5.606,5.5491,5.5152,5.4902,5.3653,5.3332,5.4026,5.4399,5.4548,5.4634,5.4916,5.5458,5.615,5.6095,5.6234,5.6372,5.6675,5.6349,5.5527,5.5724,5.5535,5.4871,5.4909,5.4964,5.4983,5.5099,5.5528,5.5993,5.5659,5.5398,5.5081,5.4298,5.3944,5.4108,5.4235,5.3928,5.3132,5.1694,5.0898,5.0685,5.0223,4.9925,5.0005,4.8651,4.7869,4.7778,4.6454,4.5697,4.5731,4.5742,4.575,4.5795,4.5863,4.5877,4.5955,4.6786,4.7536,4.8377,4.9232,4.9705,4.9724,4.9703,4.9396,4.861,4.7699,4.7581,4.828,4.7915,4.7548,4.7366,4.7344,4.7029,4.6403,4.6199,4.6429,4.7155,4.74,4.8271,4.9362,4.9923,5.0258,5.0875,5.0937,5.0461,4.977,4.9432,4.9298,4.9279,4.9133,4.951,4.925,4.8361,4.7871,4.7136,4.6279,4.5406,4.4711,4.4427,4.4147,4.3873,4.356,4.3178,4.2921,4.2673,4.2573,4.2634,4.1929,4.1243,5.6816,5.6106,5.6088,5.6088,5.6106,5.6106,5.5839,5.5342,5.4543,5.4472,5.4721,5.3815,5.378,5.4543,5.4688,5.4544,5.4289,5.4925,5.5371,5.5587,5.5137,5.5371,5.6266,5.5752,5.534,5.5137,5.5146,5.4859,5.4388,5.476,5.5001,5.5131,5.5616,5.6044,5.6193,5.5786,5.5415,5.5043,5.4317,5.3961,5.4035,5.3746,5.3455,5.3151,5.21,5.1042,4.999,4.9781,4.9759,4.9871,4.8966,4.8296,4.7811,4.6953,4.6446,4.6463,4.6513,4.6314,4.5954,4.6336,4.6636,4.6728,4.7966,4.8832,4.934,5.0085,5.0629,5.0629,5.0673,5.0348,4.9407,4.8224,4.7533,4.7815,4.8121,4.7827,4.7178,4.7567,4.779,4.6576,4.6206,4.6339,4.6641,4.7073,4.7816,4.8854,4.9532,5.0118,5.066,5.0825,5.0578,5.0163,4.9925,4.9786,4.9701,4.8699,4.8238,4.8012,4.7485,4.6628,4.5827,4.5758,4.5062,4.4408,4.414,4.392,4.3637,4.3178,4.2824,4.2476,4.2187,4.2145,4.2145,4.1677,4.1132,5.6396,5.5954,5.5918,5.5918,5.5918,5.5918,5.5635,5.5122,5.4591,5.4662,5.4945,5.4343,5.4308,5.475,5.4821,5.4434,5.3976,5.4474,5.4723,5.4741,5.4207,5.4473,5.5163,5.4661,5.4241,5.4135,5.4148,5.4109,5.4237,5.47,5.5259,5.5837,5.6432,5.6822,5.6952,5.6713,5.623,5.5449,5.4466,5.3963,5.3944,5.3693,5.3365,5.3084,5.2596,5.1579,4.9978,4.9678,4.9619,4.9655,4.9117,4.8505,4.7843,4.7453,4.7276,4.7313,4.7362,4.7214,4.68,4.7202,4.7511,4.7579,4.8817,4.9702,4.9766,5.055,5.1017,5.1076,5.0829,5.0425,4.9465,4.8205,4.7524,4.7747,4.8168,4.7942,4.6873,4.767,4.7558,4.656,4.6195,4.6201,4.6227,4.6629,4.7281,4.8064,4.8863,4.9556,5.0167,5.0499,5.0529,5.0371,5.0107,4.9949,4.9516,4.851,4.7919,4.7701,4.6692,4.5675,4.5058,4.5053,4.478,4.4184,4.3799,4.3621,4.3287,4.2838,4.2445,4.2079,4.1909,4.1866,4.178,4.1604,4.0858,5.5936,5.5861,5.5901,5.5861,5.5861,5.5861,5.5844,5.5773,5.5685,5.5525,5.5419,5.4977,5.4659,5.4765,5.4765,5.4396,5.3847,5.3956,5.4082,5.4047,5.3975,5.3774,5.358,5.37,5.3654,5.3298,5.3429,5.4075,5.4899,5.5161,5.5906,5.7175,5.7416,5.7751,5.8568,5.8316,5.772,5.6134,5.4554,5.3849,5.3813,5.3944,5.3716,5.3118,5.3038,5.2353,5.0823,5.0053,4.9727,4.9623,4.9126,4.8409,4.814,4.8008,4.8049,4.8105,4.821,4.8292,4.828,4.8333,4.8396,4.8527,4.9262,4.9838,4.9998,5.0588,5.1095,5.0998,5.0425,4.9621,4.8796,4.7932,4.762,4.838,4.7924,4.7552,4.7403,4.7421,4.7168,4.6404,4.6201,4.6169,4.6114,4.6153,4.6549,4.7294,4.7884,4.8581,4.9405,4.9951,5.021,5.0206,5.0032,4.9841,4.9098,4.8292,4.7977,4.7548,4.6233,4.5114,4.4674,4.449,4.4087,4.3523,4.3301,4.3102,4.2685,4.2264,4.2097,4.178,4.1648,4.141,4.1163,4.0837,4.0197,5.5607,5.5607,5.5607,5.5607,5.5607,5.5607,5.5607,5.5537,5.5044,5.471,5.4552,5.4464,5.4446,5.4446,5.4446,5.4306,5.4116,5.4267,5.4434,5.4509,5.4154,5.3742,5.3307,5.3074,5.3449,5.4151,5.4389,5.4936,5.5795,5.6351,5.7041,5.7528,5.8066,5.8122,5.7936,5.8337,5.7649,5.5522,5.4352,5.3833,5.3926,5.4037,5.3941,5.3734,5.33,5.2769,5.2263,5.156,5.0917,5.0378,5.0335,5.0062,4.9549,4.9034,4.8814,4.8913,4.9009,4.8789,4.8466,4.8903,4.9251,4.9401,5.0055,5.0496,5.0598,5.0874,5.1075,5.1011,5.0353,4.9565,4.8755,4.7957,4.7379,4.6958,4.7242,4.7217,4.6793,4.6667,4.6493,4.6281,4.6177,4.6114,4.6037,4.5986,4.6247,4.6806,4.7198,4.7728,4.8759,4.9158,4.9572,4.98,4.9721,4.9552,4.8926,4.7909,4.7081,4.6581,4.5481,4.4554,4.414,4.3842,4.3387,4.3049,4.2786,4.2521,4.2097,4.1823,4.1648,4.1418,4.123,4.085,4.04,3.9865,3.9279,5.5431,5.5525,5.5525,5.5525,5.5525,5.5525,5.5525,5.5455,5.4981,5.4607,5.4554,5.47,5.4577,5.4349,5.4296,5.4138,5.391,5.4046,5.4214,5.4345,5.41,5.3512,5.3021,5.2889,5.3445,5.4506,5.4714,5.5369,5.6524,5.7043,5.7492,5.7905,5.8349,5.8164,5.7446,5.7375,5.6562,5.5094,5.4203,5.3851,5.3926,5.4,5.4073,5.398,5.3641,5.3265,5.3016,5.2525,5.1804,5.0892,5.0636,5.0391,5.0089,4.9697,4.9548,4.9698,4.9779,4.9698,4.9373,4.983,5.0101,5.0233,5.0616,5.0887,5.0971,5.1048,5.1024,5.0578,4.9897,4.9118,4.8273,4.749,4.6768,4.624,4.6635,4.6757,4.6294,4.6216,4.6208,4.6166,4.6123,4.6046,4.5972,4.5912,4.6007,4.6304,4.6567,4.6837,4.7773,4.8136,4.8605,4.8881,4.8692,4.8625,4.875,4.7635,4.6206,4.5463,4.465,4.395,4.3431,4.3214,4.2904,4.2559,4.2311,4.2126,4.1763,4.1533,4.1335,4.1047,4.0585,4.0026,3.9456,3.9076,3.8414,5.5277,5.5448,5.5448,5.5448,5.5448,5.5448,5.5466,5.5525,5.5413,5.5402,5.542,5.5325,5.5016,5.4419,5.4296,5.3945,5.337,5.3429,5.3415,5.3399,5.3297,5.2997,5.2492,5.2826,5.3659,5.4516,5.4632,5.5521,5.7106,5.7254,5.7505,5.8245,5.8252,5.7962,5.7159,5.609,5.5492,5.4814,5.4125,5.383,5.3831,5.3907,5.4,5.3982,5.387,5.3587,5.3075,5.266,5.2001,5.0804,5.0101,4.9787,4.9835,4.9978,5.0073,5.0268,5.0567,5.0659,5.0781,5.0697,5.0774,5.079,5.0828,5.0906,5.0952,5.0868,5.0617,5.0009,4.9148,4.8321,4.7536,4.6794,4.6326,4.623,4.6307,4.628,4.6216,4.6196,4.6166,4.6095,4.6026,4.5953,4.5808,4.5742,4.5616,4.561,4.5952,4.6256,4.6579,4.7101,4.7556,4.7721,4.7786,4.7665,4.7766,4.6745,4.5423,4.4781,4.4034,4.3415,4.2903,4.2711,4.2454,4.2115,4.1789,4.163,4.138,4.1047,4.0538,4.004,3.9504,3.9012,3.8333,3.7708,3.7032,5.5096,5.5113,5.5113,5.5174,5.5259,5.5259,5.5347,5.5476,5.5312,5.5354,5.5413,5.5336,5.4916,5.4366,5.4296,5.3892,5.3299,5.3168,5.2868,5.2459,5.241,5.2478,5.2401,5.2771,5.3792,5.5147,5.5429,5.6344,5.7925,5.7936,5.8091,5.8338,5.7802,5.7162,5.6395,5.5766,5.5013,5.4238,5.3941,5.3793,5.3813,5.3851,5.3851,5.3813,5.346,5.3121,5.28,5.1869,5.1217,5.0804,5.0086,4.9721,4.9788,4.9898,5.0095,5.0361,5.0446,5.0625,5.0841,5.0906,5.0906,5.0906,5.0828,5.0937,5.1023,5.0467,5.0138,4.9676,4.8736,4.7747,4.7389,4.6738,4.6317,4.6222,4.621,4.6201,4.6189,4.6169,4.6114,4.6007,4.5898,4.5794,4.5708,4.556,4.5419,4.5258,4.536,4.5597,4.5898,4.6063,4.6524,4.6966,4.7102,4.69,4.649,4.5556,4.4727,4.4142,4.3516,4.2912,4.2516,4.232,4.2026,4.1736,4.1293,4.1065,4.0689,4.0328,3.9713,3.8766,3.8085,3.7352,3.6423,3.5679,3.5134,5.493,5.4974,5.5,5.5079,5.5079,5.5104,5.5226,5.5444,5.5244,5.5182,5.5284,5.5242,5.4881,5.4331,5.4296,5.3699,5.2825,5.2674,5.2269,5.163,5.1688,5.1907,5.2347,5.3008,5.4276,5.5588,5.6091,5.6938,5.7994,5.826,5.8076,5.7707,5.7327,5.6602,5.5558,5.5303,5.4714,5.3958,5.3754,5.3754,5.3754,5.3774,5.3553,5.3348,5.2902,5.2583,5.185,5.0764,5.0216,5.0153,4.9868,4.9692,4.9731,4.9835,5.0019,5.0342,5.0385,5.0548,5.0822,5.0906,5.0743,5.0521,5.0448,5.0269,5.0035,4.955,4.9334,4.878,4.8004,4.7463,4.6989,4.6555,4.6292,4.6206,4.6209,4.6203,4.6158,4.6095,4.6037,4.5964,4.5822,4.5642,4.5596,4.5381,4.518,4.5019,4.4962,4.5141,4.5294,4.5337,4.5452,4.5929,4.5866,4.5486,4.5231,4.4472,4.3742,4.3195,4.2412,4.1896,4.1861,4.1633,4.1551,4.1198,4.0816,4.0319,3.9802,3.9117,3.8019,3.7153,3.645,3.5701,3.4845,3.4217,3.3571,5.4842,5.4852,5.4905,5.4983,5.4974,5.5,5.5157,5.5331,5.514,5.4983,5.5052,5.5164,5.4986,5.4437,5.4559,5.3664,5.2242,5.2353,5.1702,5.1334,5.1334,5.1672,5.2305,5.3499,5.4517,5.553,5.6355,5.7171,5.7804,5.7969,5.7501,5.6977,5.6809,5.6012,5.5009,5.4621,5.4242,5.3785,5.3695,5.3714,5.3734,5.3717,5.346,5.2772,5.2271,5.1542,5.0598,4.9827,4.9546,4.9539,4.9582,4.9634,4.9692,4.9778,5.0019,5.0317,5.0427,5.0548,5.0687,5.0654,5.0385,4.9828,4.9669,4.9398,4.8934,4.8677,4.8351,4.7897,4.7521,4.7044,4.6558,4.6306,4.6264,4.6209,4.6203,4.6154,4.6093,4.6027,4.5975,4.5949,4.5771,4.5577,4.5381,4.518,4.4991,4.4827,4.4745,4.4704,4.4691,4.457,4.4649,4.4863,4.452,4.3883,4.367,4.3411,4.2739,4.2126,4.1165,4.0604,4.0762,4.0683,4.0787,4.0533,3.9631,3.9054,3.867,3.772,3.6519,3.5665,3.5074,3.4297,3.3562,3.3208,3.2654,5.4303,5.4028,5.4397,5.4683,5.4859,5.4866,5.4936,5.5095,5.5017,5.4974,5.5,5.5139,5.5172,5.5209,5.5045,5.4401,5.2944,5.2737,5.2245,5.1015,5.128,5.1807,5.2541,5.3592,5.4373,5.5267,5.6283,5.7226,5.774,5.7428,5.6987,5.6712,5.5655,5.4834,5.4557,5.3949,5.3621,5.3558,5.3656,5.3674,5.3676,5.3662,5.3311,5.2457,5.1433,5.0421,4.9767,4.942,4.9483,4.9634,4.9663,4.9644,4.975,4.9871,5.012,5.0339,5.0508,5.0394,5.0085,4.9997,4.9616,4.8929,4.878,4.8761,4.8681,4.8021,4.7758,4.7429,4.7011,4.6592,4.6335,4.6245,4.622,4.619,4.6146,4.6066,4.5975,4.5983,4.5925,4.5771,4.5545,4.5342,4.5197,4.4929,4.4745,4.464,4.4467,4.4308,4.4098,4.3881,4.3882,4.3998,4.3215,4.2668,4.2645,4.2282,4.1487,4.0863,3.9954,3.9071,3.9239,3.9256,3.9186,3.8775,3.8137,3.7686,3.7335,3.6266,3.5029,3.4335,3.3738,3.3061,3.2492,3.2127,3.186,5.411,5.411,5.4385,5.4575,5.4672,5.4661,5.4678,5.4724,5.478,5.4824,5.4886,5.4992,5.5113,5.5252,5.5182,5.4437,5.3129,5.2383,5.1891,5.1472,5.1688,5.213,5.2945,5.3897,5.4801,5.5613,5.6598,5.7426,5.7639,5.7189,5.6638,5.618,5.4993,5.4344,5.3981,5.3521,5.3414,5.3418,5.3459,5.3558,5.3579,5.325,5.2531,5.1509,5.0335,4.9542,4.9319,4.9415,4.9566,4.9731,4.9816,4.9871,4.9933,5.0063,5.024,5.0466,5.0547,5.0315,4.9892,4.9644,4.9218,4.8036,4.7932,4.7757,4.7612,4.7132,4.6991,4.6894,4.6605,4.6292,4.625,4.6231,4.6209,4.6174,4.6095,4.5976,4.5887,4.5867,4.5794,4.5613,4.5381,4.5239,4.5038,4.4726,4.4495,4.4374,4.4102,4.3906,4.3608,4.337,4.313,4.2887,4.2049,4.1609,4.1629,4.1126,4.0172,3.9512,3.8716,3.7821,3.7374,3.736,3.7314,3.7037,3.6834,3.6277,3.5808,3.4686,3.3846,3.3318,3.2709,3.2012,3.158,3.1447,3.1202,5.3915,5.4239,5.4431,5.4448,5.4385,5.4448,5.4512,5.4512,5.4512,5.47,5.478,5.478,5.4948,5.4992,5.5053,5.4206,5.2909,5.1888,5.1523,5.1874,5.1929,5.2526,5.3376,5.4309,5.5205,5.6179,5.6822,5.7413,5.7353,5.6896,5.6016,5.539,5.4651,5.3957,5.3405,5.3295,5.3295,5.3295,5.3318,5.3252,5.3185,5.273,5.1788,5.0469,4.961,4.9247,4.9262,4.9396,4.9617,4.9862,5.005,5.0182,5.0259,5.0283,5.0262,5.0413,5.0336,4.9869,4.9173,4.9025,4.8535,4.7213,4.7106,4.6917,4.6518,4.6465,4.6441,4.6393,4.6296,4.6255,4.6183,4.6156,4.6151,4.6104,4.597,4.5858,4.5746,4.5654,4.5558,4.5437,4.5222,4.5045,4.4808,4.4495,4.4327,4.4091,4.3791,4.352,4.3225,4.2928,4.2668,4.224,4.1518,4.0584,4.0483,3.9673,3.872,3.8145,3.7452,3.6649,3.5844,3.5696,3.5795,3.5891,3.5633,3.509,3.4494,3.3637,3.2928,3.2302,3.1951,3.1567,3.1161,3.0807,3.0507,5.3466,5.3179,5.4093,5.4239,5.3898,5.4321,5.4512,5.4512,5.4655,5.4797,5.478,5.4886,5.493,5.4992,5.4992,5.4164,5.2974,5.2096,5.1891,5.2137,5.2207,5.2751,5.4055,5.4446,5.5122,5.5954,5.6581,5.6762,5.6455,5.5702,5.525,5.4594,5.3867,5.3359,5.3304,5.3206,5.323,5.3193,5.3185,5.2991,5.2668,5.2211,5.1491,5.0062,4.9296,4.9101,4.923,4.9384,4.9607,4.9986,5.0182,5.0333,5.0349,5.031,5.0102,4.9779,4.9697,4.9203,4.8087,4.7637,4.7159,4.651,4.6367,4.6422,4.63,4.6289,4.6293,4.6284,4.6236,4.617,4.6036,4.6052,4.5974,4.5914,4.5829,4.5728,4.553,4.54,4.5284,4.5115,4.4957,4.4795,4.4503,4.4221,4.4011,4.3777,4.3511,4.3303,4.3103,4.2703,4.2311,4.1831,4.122,4.019,3.9338,3.819,3.7212,3.6772,3.6133,3.5399,3.4709,3.4331,3.4277,3.4594,3.4361,3.3814,3.3131,3.2585,3.2277,3.1894,3.1552,3.1161,3.0747,3.0312,2.9898,5.3264,5.3332,5.4175,5.4175,5.3849,5.4239,5.4303,5.4175,5.4448,5.4655,5.4637,5.4683,5.4745,5.4745,5.4745,5.4192,5.3352,5.2376,5.2488,5.2909,5.2909,5.3436,5.4717,5.4875,5.5238,5.5773,5.6128,5.6257,5.6109,5.5425,5.4793,5.4312,5.361,5.3225,5.3206,5.3206,5.3188,5.3133,5.2826,5.2504,5.2072,5.1637,5.0527,4.9691,4.9169,4.9064,4.9289,4.9529,4.954,4.9643,5.0144,5.0006,4.974,4.9702,4.9759,4.9372,4.9073,4.8443,4.7366,4.7071,4.6836,4.6268,4.6113,4.617,4.6248,4.6306,4.6284,4.624,4.6203,4.6119,4.6017,4.5996,4.593,4.5815,4.5742,4.5553,4.5321,4.5137,4.4934,4.4714,4.4591,4.4402,4.4192,4.3936,4.3679,4.3426,4.3196,4.3032,4.2902,4.2408,4.1884,4.1102,4.0324,3.892,3.792,3.6996,3.6114,3.5604,3.5184,3.4447,3.3969,3.3719,3.3511,3.3451,3.3067,3.2607,3.2419,3.2064,3.1766,3.1364,3.0689,3.0147,3.0054,2.9822,2.9324,5.2905,5.3416,5.3946,5.3832,5.3483,5.3946,5.3881,5.37,5.411,5.4321,5.4385,5.4448,5.4512,5.446,5.4316,5.3991,5.353,5.2407,5.2748,5.3471,5.3098,5.3642,5.4782,5.5027,5.4799,5.4891,5.5415,5.5687,5.5523,5.5154,5.4628,5.3942,5.3323,5.3103,5.3103,5.3103,5.3127,5.2724,5.2399,5.2004,5.1369,5.0454,4.9508,4.8983,4.889,4.9005,4.9046,4.9239,4.9105,4.909,4.935,4.9529,4.8545,4.8714,4.8981,4.8883,4.8372,4.7719,4.7057,4.6795,4.6526,4.6147,4.6119,4.6197,4.6248,4.6277,4.624,4.6173,4.6105,4.6017,4.5922,4.5941,4.5866,4.5713,4.5553,4.536,4.5106,4.4868,4.4565,4.4346,4.4202,4.3986,4.3749,4.3679,4.3442,4.316,4.2956,4.2652,4.244,4.1895,4.1241,4.0333,3.9219,3.7575,3.6497,3.5896,3.5193,3.4857,3.4562,3.4183,3.3684,3.3316,3.3014,3.2648,3.2155,3.1745,3.164,3.1392,3.0925,3.0375,2.9566,2.9205,2.9156,2.8762,2.826,5.2131,5.2291,5.2767,5.2697,5.2345,5.2836,5.2974,5.2974,5.3567,5.3783,5.3915,5.4269,5.4443,5.4236,5.3825,5.3385,5.2799,5.2293,5.2372,5.3186,5.2586,5.2879,5.3923,5.3334,5.3707,5.4042,5.449,5.4506,5.4715,5.4711,5.4067,5.328,5.3058,5.285,5.2912,5.2871,5.2633,5.2108,5.1954,5.1305,5.021,4.9362,4.9026,4.8911,4.8813,4.8688,4.8495,4.857,4.8365,4.8028,4.818,4.8279,4.8029,4.7521,4.7362,4.7314,4.7202,4.6964,4.63,4.6177,4.6216,4.6096,4.6107,4.6187,4.6225,4.6228,4.6162,4.6022,4.5963,4.588,4.58,4.5757,4.5645,4.5495,4.533,4.5157,4.4903,4.4285,4.4008,4.3781,4.3553,4.3416,4.322,4.321,4.3196,4.2957,4.267,4.2302,4.1777,4.1075,4.0088,3.8997,3.8235,3.6696,3.5696,3.4996,3.4513,3.4134,3.3882,3.3713,3.3208,3.2714,3.2276,3.1891,3.1321,3.0983,3.0866,3.0569,3.0011,2.9518,2.8953,2.8505,2.8182,2.7723,2.7111,5.1712,5.2043,5.254,5.2487,5.2131,5.2557,5.2611,5.2557,5.3281,5.3717,5.3681,5.3759,5.3649,5.327,5.3004,5.2882,5.2473,5.1952,5.2114,5.2612,5.2206,5.2271,5.3003,5.2962,5.3067,5.3693,5.4077,5.4296,5.4305,5.4323,5.3953,5.2935,5.2806,5.2806,5.2688,5.2455,5.2194,5.1687,5.1055,5.011,4.9269,4.8827,4.8714,4.8802,4.8428,4.8245,4.8152,4.7888,4.7623,4.7367,4.7684,4.7548,4.7082,4.6822,4.6873,4.6336,4.6422,4.6274,4.5984,4.5938,4.6009,4.6088,4.615,4.6205,4.6231,4.6149,4.6065,4.596,4.5877,4.5776,4.568,4.5603,4.5461,4.5285,4.5109,4.4832,4.4495,4.3812,4.3338,4.3119,4.2812,4.2498,4.2304,4.2431,4.2354,4.216,4.1743,4.125,4.0541,3.9693,3.8585,3.733,3.6678,3.5922,3.5184,3.448,3.4036,3.3646,3.3214,3.2971,3.2455,3.2035,3.1597,3.1055,3.0499,3.0207,3.0097,2.9718,2.9219,2.8839,2.8403,2.7789,2.7178,2.6283,2.5508,5.145,5.1858,5.2203,5.2148,5.1858,5.2219,5.2131,5.1931,5.3008,5.3382,5.3224,5.3112,5.2753,5.227,5.2218,5.2104,5.2112,5.1518,5.1767,5.1946,5.1824,5.168,5.2085,5.2335,5.2604,5.3735,5.3602,5.3596,5.3846,5.4025,5.3748,5.2771,5.269,5.269,5.2535,5.2113,5.1597,5.0931,4.9918,4.9097,4.866,4.8606,4.8531,4.8342,4.8051,4.7753,4.7674,4.7422,4.6946,4.6646,4.6972,4.6773,4.613,4.6298,4.6364,4.6018,4.599,4.6028,4.597,4.5983,4.605,4.6123,4.6117,4.6111,4.5748,4.5765,4.5677,4.5452,4.5383,4.5449,4.5558,4.5461,4.5299,4.511,4.4924,4.4605,4.4143,4.3274,4.2458,4.1948,4.1555,4.1053,4.1029,4.1417,4.1457,4.1291,4.0819,4.0186,3.9329,3.8357,3.7483,3.6254,3.5465,3.4971,3.4444,3.3901,3.3475,3.3039,3.261,3.221,3.1825,3.1347,3.0827,3.023,2.968,2.9306,2.9035,2.8753,2.8403,2.7868,2.7271,2.6718,2.6032,2.504,2.394,5.1258,5.1258,5.1317,5.1317,5.1258,5.1317,5.1317,5.1376,5.24,5.2419,5.1916,5.2135,5.2174,5.1977,5.1442,5.1302,5.1349,5.0605,5.0979,5.1101,5.0875,5.0905,5.117,5.1259,5.1259,5.1883,5.2567,5.288,5.2918,5.3508,5.3204,5.2653,5.259,5.2544,5.2191,5.158,5.0617,4.9866,4.8907,4.8638,4.8475,4.8421,4.8218,4.7824,4.7709,4.7379,4.6232,4.6334,4.6266,4.5726,4.6047,4.6194,4.5841,4.5793,4.5742,4.5689,4.5512,4.5544,4.5549,4.5899,4.6107,4.6199,4.6113,4.5789,4.5184,4.488,4.4737,4.4723,4.4812,4.4985,4.5185,4.5322,4.517,4.4944,4.46,4.4026,4.3441,4.2525,4.1705,4.0903,4.0294,3.9817,3.9319,3.9605,4.0135,4.0014,3.9329,3.8651,3.7826,3.6936,3.6402,3.5498,3.4489,3.3925,3.3555,3.3145,3.2718,3.2321,3.1875,3.1549,3.1188,3.0661,3.0017,2.9596,2.9022,2.85,2.7974,2.7643,2.7204,2.6676,2.6126,2.5615,2.4589,2.343,2.2382,5.1183,5.1183,5.1183,5.1183,5.1183,5.1183,5.1183,5.1236,5.1526,5.126,5.0606,5.0827,5.0857,5.0618,5.059,5.0424,5.0448,5.0299,5.0368,5.0368,5.0299,5.0241,5.0466,5.075,5.1049,5.1723,5.2243,5.2749,5.3338,5.3103,5.2824,5.257,5.2426,5.2118,5.1674,5.0747,4.9646,4.897,4.8446,4.8304,4.8252,4.7979,4.7719,4.755,4.66,4.6419,4.5961,4.5703,4.5585,4.5534,4.5601,4.5594,4.5452,4.5248,4.5119,4.5051,4.4847,4.4638,4.488,4.5476,4.6172,4.6113,4.5818,4.524,4.4558,4.4239,4.4214,4.4254,4.4306,4.4397,4.5093,4.5206,4.5061,4.4749,4.4194,4.3466,4.2555,4.1538,4.0545,3.9571,3.9062,3.8614,3.8064,3.7638,3.8261,3.8677,3.7927,3.7109,3.6286,3.5512,3.4955,3.4374,3.3375,3.2798,3.2422,3.2167,3.1916,3.1447,3.1028,3.0733,3.036,2.9679,2.9049,2.8707,2.8277,2.7628,2.7062,2.6508,2.6126,2.5906,2.5264,2.4541,2.3368,2.1962,2.0961,5.1183,5.1183,5.1183,5.1183,5.1183,5.1183,5.1183,5.1236,5.1277,5.0874,5.0308,5.0277,5.0026,4.9786,4.9894,5.0045,5.0062,5.0011,5.0011,5.0028,5.0028,5.0011,5.0149,5.0544,5.1158,5.1864,5.2115,5.2438,5.3038,5.2622,5.2278,5.208,5.2072,5.1692,5.1203,4.9919,4.879,4.8291,4.8208,4.8247,4.8252,4.774,4.7166,4.6979,4.6196,4.5697,4.5578,4.5373,4.5246,4.5204,4.5173,4.5144,4.4886,4.4568,4.433,4.4124,4.3915,4.3539,4.3934,4.4777,4.5813,4.5707,4.5367,4.4683,4.3975,4.3335,4.3157,4.322,4.34,4.3731,4.4279,4.3878,4.3535,4.302,4.2804,4.2132,4.1125,4.0137,3.9147,3.8173,3.7681,3.713,3.6602,3.6084,3.6177,3.6548,3.6111,3.5454,3.4875,3.4105,3.3403,3.2814,3.2104,3.1651,3.1253,3.0953,3.0585,3.0058,2.9711,2.9723,2.9338,2.8663,2.8116,2.7736,2.7307,2.6716,2.6111,2.5429,2.5264,2.5264,2.4313,2.3073,2.2017,2.0672,1.9816,5.1183,5.1183,5.1183,5.1183,5.1183,5.1183,5.1183,5.121,5.154,5.1458,5.0892,5.0266,4.998,4.9877,4.9935,5.0011,5.0011,5.0011,5.0011,5.0011,5.0011,5.0011,5.0246,5.0637,5.1141,5.1349,5.1772,5.2204,5.2455,5.2318,5.1903,5.1318,5.1148,5.0977,5.1094,4.9871,4.8812,4.816,4.819,4.8157,4.7976,4.739,4.6706,4.6286,4.5811,4.535,4.5179,4.5144,4.4959,4.4701,4.4546,4.4287,4.3766,4.3568,4.3463,4.3475,4.3382,4.3368,4.3617,4.4446,4.478,4.4903,4.4532,4.3841,4.2646,4.2071,4.201,4.2143,4.1877,4.1838,4.186,4.192,4.1825,4.1595,4.1412,4.0795,3.9846,3.8966,3.8035,3.7132,3.6225,3.5498,3.5008,3.4594,3.4349,3.4315,3.405,3.3662,3.3242,3.246,3.1647,3.1028,3.0423,2.9956,2.9576,2.9537,2.9197,2.8708,2.8498,2.8611,2.8356,2.7793,2.7289,2.6896,2.6364,2.58,2.5028,2.4313,2.37,2.3018,2.2392,2.1375,2.0382,1.9539,1.8763,5.1183,5.1183,5.1183,5.1183,5.1183,5.1183,5.1183,5.1155,5.073,5.0303,4.989,4.948,4.9547,4.9666,4.9935,5.0011,5.0011,5.0011,5.0011,5.0011,4.9993,5.0166,5.0359,5.0749,5.114,5.147,5.1907,5.2102,5.2186,5.2012,5.1664,5.1146,5.0101,4.9683,4.9438,4.8792,4.8148,4.7937,4.773,4.7423,4.737,4.6488,4.5777,4.5588,4.5311,4.5047,4.4862,4.4882,4.4568,4.4174,4.3979,4.3506,4.3095,4.295,4.2673,4.2545,4.2388,4.2201,4.2519,4.3061,4.3395,4.3565,4.3447,4.2801,4.1906,4.1186,4.1082,4.1091,4.09,4.1098,4.1597,4.1493,4.1322,4.0799,4.0419,3.9629,3.8751,3.7983,3.712,3.6239,3.5345,3.4576,3.4003,3.3272,3.2914,3.2358,3.2092,3.1809,3.141,3.0516,2.9665,2.9041,2.8469,2.8081,2.7863,2.8082,2.813,2.783,2.7699,2.7787,2.7433,2.6934,2.6582,2.6258,2.5539,2.4844,2.3847,2.2744,2.1369,2.0478,2.0274,1.9831,1.8958,1.8342,1.7882,5.1183,5.1183,5.1183,5.1183,5.1183,5.1183,5.1242,5.1312,5.0735,5.0207,4.9972,4.9882,4.9812,4.9811,4.9877,5.0011,5.0011,5.0011,5.0011,4.9993,5.0109,5.0263,5.0509,5.0857,5.1193,5.1538,5.1758,5.1956,5.1969,5.17,5.0892,4.9901,4.9053,4.8609,4.8326,4.8091,4.7961,4.7828,4.7526,4.7166,4.6838,4.6149,4.5291,4.5226,4.5076,4.4796,4.4662,4.4422,4.4075,4.3674,4.3217,4.2763,4.2473,4.2198,4.1899,4.1682,4.1517,4.1373,4.1661,4.1702,4.2014,4.2218,4.2024,4.1749,4.1228,4.0476,4.0269,4.0235,4.0184,4.0058,4.0184,4.0152,3.9805,3.9247,3.8727,3.7905,3.7408,3.665,3.598,3.5121,3.4496,3.3735,3.2966,3.2168,3.1509,3.0834,3.0177,2.9894,2.9565,2.8785,2.7979,2.7398,2.6876,2.6593,2.6594,2.6877,2.6907,2.6876,2.6883,2.7033,2.671,2.6269,2.5975,2.5491,2.4545,2.3516,2.2327,2.1115,2.0039,1.927,1.8959,1.8391,1.754,1.7177,1.6917,5.1183,5.1183,5.1183,5.1183,5.1183,5.1258,5.1524,5.1993,5.1741,5.148,5.1376,5.1028,5.0599,5.009,5.0045,4.9935,4.9993,4.9993,4.9993,5.0109,5.0263,5.0376,5.0637,5.0999,5.1315,5.147,5.169,5.184,5.1768,5.0981,4.9835,4.8711,4.8091,4.7818,4.7759,4.7814,4.7907,4.7791,4.7179,4.6891,4.6636,4.5801,4.5208,4.5048,4.494,4.4551,4.4307,4.4011,4.3337,4.2744,4.2143,4.1665,4.133,4.1109,4.1092,4.1097,4.105,4.0988,4.0956,4.0904,4.0746,4.0998,4.1107,4.0847,4.0423,3.9821,3.9599,3.9245,3.9024,3.8314,3.7882,3.7648,3.7423,3.6968,3.6611,3.6118,3.573,3.5166,3.4611,3.3969,3.3459,3.2763,3.2114,3.1278,3.0354,2.9239,2.8507,2.7853,2.7541,2.7229,2.6553,2.6155,2.5608,2.5194,2.5375,2.5844,2.5922,2.5866,2.6123,2.6214,2.5951,2.5426,2.4909,2.4177,2.326,2.2195,2.1088,2.0077,1.8985,1.8357,1.7796,1.7307,1.656,1.6312,1.6051,5.1183,5.1183,5.1183,5.1183,5.1258,5.1582,5.1858,5.196,5.1758,5.1832,5.2153,5.1285,5.0763,5.0592,5.0042,4.9835,4.986,4.9918,5.0149,5.0263,5.0359,5.0692,5.0963,5.1228,5.1454,5.1589,5.169,5.1687,5.1383,5.049,4.9323,4.8406,4.7723,4.754,4.7578,4.7669,4.7816,4.7649,4.687,4.6599,4.6207,4.5287,4.4931,4.4783,4.4564,4.4225,4.4075,4.3216,4.255,4.2209,4.1576,4.1132,4.1075,4.1071,4.1091,4.1025,4.0896,4.0754,4.0636,4.0453,4.0279,4.0024,4.0027,3.9679,3.9432,3.9189,3.8906,3.8529,3.8038,3.7434,3.7006,3.6716,3.6318,3.5908,3.5532,3.5141,3.4775,3.4262,3.3662,3.3145,3.2625,3.1956,3.1257,3.0473,2.9505,2.8054,2.6945,2.6353,2.5802,2.5595,2.5154,2.4752,2.4635,2.4326,2.4542,2.5026,2.4946,2.4939,2.5229,2.5228,2.4625,2.4112,2.3627,2.2777,2.184,2.085,1.9844,1.886,1.782,1.7109,1.6432,1.6118,1.5782,1.5436,1.4979,5.1183,5.1183,5.1183,5.1183,5.1258,5.1524,5.1727,5.181,5.1932,5.2147,5.2175,5.1346,5.0704,5.0266,4.9838,4.959,4.9666,4.9742,4.9918,5.0246,5.0453,5.0766,5.1088,5.1384,5.1538,5.164,5.1619,5.1494,5.0923,4.9758,4.8583,4.7841,4.7463,4.7608,4.7669,4.7729,4.773,4.748,4.6967,4.6394,4.5749,4.5046,4.4748,4.4594,4.4274,4.4039,4.3701,4.2582,4.2035,4.173,4.1107,4.1037,4.0999,4.1043,4.0974,4.0878,4.0726,4.0577,4.0427,4.0247,3.9984,3.9645,3.9231,3.8859,3.8517,3.8245,3.8089,3.7823,3.7324,3.6825,3.6487,3.6138,3.5701,3.5222,3.483,3.4431,3.3947,3.343,3.2904,3.2367,3.1769,3.1091,3.0393,2.9637,2.8685,2.7357,2.6341,2.5611,2.5047,2.4664,2.4014,2.3334,2.3504,2.3603,2.3993,2.4365,2.4318,2.433,2.4307,2.4146,2.3447,2.2774,2.22,2.1343,2.0362,1.9478,1.8654,1.7608,1.6643,1.5965,1.515,1.4618,1.4337,1.4239,1.3704,5.1183,5.1167,5.1118,5.1038,5.1086,5.1106,5.1211,5.1441,5.1914,5.2162,5.1843,5.1158,5.0429,4.9949,4.9607,4.9471,4.9547,4.9666,4.9942,5.0228,5.062,5.0982,5.128,5.1485,5.164,5.1672,5.1405,5.0923,5.0049,4.9061,4.8072,4.7277,4.7381,4.7603,4.7915,4.7954,4.7868,4.7496,4.6897,4.6275,4.6016,4.5435,4.4876,4.4909,4.4418,4.3808,4.3137,4.2377,4.1609,4.1189,4.0986,4.1055,4.103,4.0939,4.083,4.0692,4.0557,4.0396,4.0174,3.9944,3.9557,3.9212,3.8849,3.83,3.7873,3.7666,3.756,3.6911,3.6344,3.5842,3.5446,3.507,3.4664,3.4393,3.4104,3.3799,3.3487,3.292,3.2318,3.1894,3.1507,3.0748,2.9565,2.88,2.7997,2.6749,2.5727,2.4975,2.449,2.3981,2.347,2.2702,2.3077,2.3482,2.3699,2.3961,2.3886,2.3841,2.3543,2.2914,2.2146,2.1456,2.0767,2.0029,1.9259,1.8303,1.7403,1.6593,1.5819,1.5037,1.4166,1.3208,1.2897,1.2942,1.2601,5.1183,5.1118,5.0584,5.0357,5.035,5.0265,5.0377,5.0625,5.0635,5.1116,5.1538,5.0912,5.039,4.9988,4.9477,4.929,4.935,4.9718,5.0171,5.0509,5.0838,5.1176,5.1503,5.1622,5.169,5.1476,5.1012,5.0138,4.9133,4.8411,4.7949,4.7515,4.7603,4.7875,4.8249,4.8255,4.8062,4.7527,4.6396,4.5926,4.5725,4.5353,4.4891,4.4677,4.4193,4.3547,4.2787,4.1899,4.1374,4.0978,4.1038,4.1052,4.1022,4.0829,4.0726,4.0604,4.0396,4.0211,3.9944,3.9599,3.9186,3.8755,3.8319,3.7719,3.7323,3.721,3.6826,3.6033,3.537,3.4822,3.4337,3.3958,3.3647,3.3516,3.3316,3.3135,3.2964,3.2413,3.1826,3.1482,3.1205,3.0221,2.9016,2.801,2.7187,2.6202,2.5118,2.4393,2.4141,2.3788,2.3803,2.3276,2.3333,2.3628,2.3718,2.3465,2.3257,2.2731,2.2371,2.1649,2.075,2.0062,1.9437,1.8915,1.8261,1.7352,1.657,1.5994,1.516,1.418,1.3233,1.231,1.1793,1.1763,1.1512,5.0228,5.0163,4.9791,4.9629,4.9621,4.9534,4.9612,4.9726,4.9674,4.9927,5.0436,5.0079,4.9814,4.9769,4.9294,4.9124,4.9202,4.9718,5.0045,5.0415,5.0909,5.1351,5.1541,5.1658,5.1708,5.1458,5.0405,4.9418,4.8432,4.7967,4.7731,4.7765,4.7955,4.8155,4.8532,4.8574,4.8268,4.7435,4.5876,4.5372,4.5443,4.5195,4.5071,4.4823,4.4077,4.3387,4.275,4.1873,4.1188,4.0996,4.1035,4.0992,4.0898,4.074,4.0571,4.0412,4.0211,4.0002,3.9687,3.9282,3.8792,3.84,3.7977,3.7396,3.6601,3.6429,3.5676,3.4882,3.4083,3.3489,3.3014,3.2609,3.2562,3.2517,3.2269,3.2029,3.2143,3.2109,3.1597,3.1249,3.0807,2.9952,2.8845,2.7963,2.7124,2.6269,2.5162,2.4721,2.4338,2.3658,2.3704,2.3615,2.3589,2.3315,2.3107,2.2767,2.2477,2.1886,2.1278,2.0197,1.9335,1.8682,1.7971,1.7746,1.7227,1.6522,1.5791,1.5139,1.4127,1.3034,1.2231,1.1458,1.0993,1.0703,1.0507,4.9078,4.9013,4.8949,4.89,4.8868,4.8771,4.8772,4.8778,4.8862,4.8924,4.9187,4.9209,4.9124,4.9063,4.9018,4.9018,4.9175,4.9598,4.9904,5.028,5.0764,5.1211,5.1489,5.1625,5.1426,5.078,4.9793,4.9116,4.8325,4.7843,4.7601,4.802,4.8272,4.8476,4.8807,4.8776,4.8438,4.7354,4.6221,4.5466,4.5319,4.5298,4.5361,4.4902,4.4077,4.3325,4.2827,4.2038,4.1175,4.0994,4.0994,4.0915,4.0811,4.0648,4.0442,4.0266,4.0062,3.9772,3.9402,3.8962,3.848,3.8065,3.7632,3.6988,3.6184,3.5301,3.4558,3.3556,3.2722,3.2174,3.1707,3.1309,3.1347,3.141,3.1159,3.09,3.1162,3.148,3.119,3.0895,3.0303,2.9529,2.8697,2.7767,2.7033,2.6258,2.5662,2.5422,2.4999,2.4207,2.3803,2.3536,2.3303,2.3026,2.2723,2.223,2.1832,2.0991,2.0294,1.9045,1.8006,1.7607,1.7212,1.6713,1.6161,1.5749,1.4969,1.4235,1.3185,1.2183,1.1438,1.0895,1.06,1.0314,0.992,4.903,4.8981,4.8447,4.8204,4.8123,4.7589,4.7547,4.7886,4.8166,4.8473,4.8894,4.9001,4.9001,4.9001,4.9018,4.8951,4.8911,4.9307,4.9894,5.0341,5.0539,5.0999,5.1225,5.1058,5.0631,4.9857,4.9095,4.8487,4.7971,4.7339,4.7378,4.8143,4.7719,4.8131,4.908,4.8995,4.8588,4.7394,4.66,4.591,4.5398,4.5399,4.5543,4.4985,4.4182,4.365,4.3014,4.1824,4.1269,4.1029,4.0959,4.0857,4.0723,4.0563,4.0334,4.0101,3.9878,3.9524,3.9117,3.8559,3.8059,3.7703,3.7173,3.6354,3.5377,3.421,3.3211,3.173,3.1019,3.0671,3.0243,2.9853,2.9766,3.0023,2.9915,2.974,2.9782,3.0098,3.0237,2.9993,2.9628,2.8914,2.8083,2.739,2.694,2.6115,2.5266,2.5056,2.5012,2.4429,2.3791,2.3478,2.3105,2.2922,2.2648,2.1795,2.1221,2.0304,1.945,1.8505,1.761,1.6944,1.6518,1.6384,1.5871,1.5354,1.4536,1.3772,1.2666,1.1768,1.1035,1.0413,1.0216,0.9817,0.9418]},{"header":{"parameterUnit":"m.s-1","parameterCategory":1,"la1":31.0,"la2":29.5877,"lo1":-88.7671,"lo2":-86.6584,"dy":0.0162,"dx":0.0185,"nx":115,"ny":88,"refTime":"2024-08-10T06:00:00:Z","depth":0,"parameterNumber":3,"parameterNumberName":"V-component_of_WINDS"},"data":[0.0,0.0,0.0,0.0,0.0,0.0,0.0,0.0,0.0,0.0,0.0,0.0,0.0,0.0,0.0,0.0,0.0,0.0,0.0,0.0,0.0,0.0,0.0,0.0,0.0,0.0,0.0,0.0,0.0,0.0,0.0,0.0,0.0,0.0,0.0,0.0,0.0,0.0,0.0,0.0,0.0,0.0,0.0,0.0,0.0,0.0,0.0,0.0,0.0,0.0,0.0,0.0,0.0,0.0,0.0,0.0,0.0,0.0,0.0,0.0,0.0,0.0,0.0,0.0,0.0,0.0,0.0,0.0,0.0,0.0,0.0,0.0,0.0,0.0,0.0,0.0,0.0,0.0,0.0,0.0,0.0,0.0,0.0,0.0,0.0,0.0,0.0,0.0,0.0,0.0,0.0,0.0,0.0,0.0,0.0,0.0,0.0,0.0,0.0,0.0,0.0,0.0,0.0,0.0,0.0,0.0,0.0,0.0,0.0,0.0,0.0,0.0,0.0,0.0,0.0,0.0,0.0,0.0,0.0,0.0,0.0,0.0,0.0,0.0,0.0,0.0,0.0,0.0,0.0,0.0,0.0,0.0,0.0,0.0,0.0,0.0,0.0,0.0,0.0,0.0,0.0,0.0,0.0,0.0,0.0,0.0,0.0,0.0,0.0,0.0,0.0,0.0,0.0,0.0,0.0,0.0,0.0,0.0,0.0,0.0,0.0,0.0,0.0,0.0,0.0,0.0,0.0,0.0,0.0,0.0,0.0,0.0,0.0,0.0,0.0,0.0,0.0,0.0,0.0,0.0,0.0,0.0,0.0,0.0,0.0,0.0,0.0,0.0,0.0,0.0,0.0,0.0,0.0,0.0,0.0,0.0,0.0,0.0,0.0,0.0,0.0,0.0,0.0,0.0,0.0,0.0,0.0,0.0,0.0,0.0,0.0,0.0,0.0,0.0,0.0,0.0,0.0,0.0,0.0,0.0,0.0,0.0,0.0,0.0,0.0,0.0,0.0,0.0,0.0,0.0,0.0,0.0,0.0,0.0,0.0,0.0,0.0,0.0,0.0,0.0,0.0,0.0,0.0,0.0,0.0,0.0,0.0,0.0,0.0,0.0,0.0,0.0,0.0,0.0,0.0,0.0,0.0,0.0,0.0,0.0,0.0,0.0,0.0,0.0,0.0,0.0,0.0,0.0,0.0,0.0,0.0,0.0,0.0,0.0,0.0,0.0,0.0,0.0,0.0,0.0,0.0,0.0,0.0,0.0,0.0,0.0,0.0,0.0,0.0,0.0,0.0,0.0,0.0,0.0,0.0,0.0,0.0,0.0,0.0,0.0,0.0,0.0,0.0,0.0,0.0,0.0,0.0,0.0,0.0,0.0,0.0,0.0,0.0,0.0,0.0,0.0,0.0,0.0,0.0,0.0,0.0,0.0,0.0,0.0,0.0,0.0,0.0,0.0,0.0,0.0,0.0,0.0,0.0,0.0,0.0,0.0,0.0,0.0,0.0,0.0,0.0,0.0,0.0,0.0,0.0,0.0,0.0,0.0,0.0,0.0,0.0,0.0,0.0,0.0,0.0,0.0,0.0,0.0,0.0,0.0,0.0,0.0,0.0,0.0,0.0,0.0,0.0,0.0,0.0,0.0,0.0,0.0,0.0,0.0,0.0,0.0,0.0,0.0,0.0,0.0,0.0,0.0,0.0,0.0,0.0,0.0,0.0,0.0,0.0,0.0,0.0,0.0,0.0,0.0,0.0,0.0,0.0,0.0,0.0,0.0,0.0,0.0,0.0,0.0,0.0,0.0,0.0,0.0,0.0,0.0,0.0,0.0,0.0,0.0,0.0,0.0,0.0,0.0,0.0,0.0,0.0,0.0,0.0,0.0,0.0,0.0,0.0,0.0,0.0,0.0,0.0,0.0,0.0,0.0,0.0,0.0,0.0,0.0,0.0,0.0,0.0,0.0,0.0,0.0,0.0,0.0,0.0,0.0,0.0,0.0,0.0,0.0,0.0,0.0,0.0,0.0,0.0,0.0,0.0,0.0,0.0,0.0,0.0,0.0,0.0,0.0,0.0,0.0,0.0,0.0,0.0,0.0,0.0,0.0,0.0,0.0,0.0,0.0,0.0,0.0,0.0,0.0,0.0,0.0,0.0,0.0,0.0,0.0,0.0,0.0,0.0,0.0,0.0,0.0,0.0,0.0,0.0,0.0,0.0,0.0,0.0,0.0,0.0,0.0,0.0,0.0,0.0,0.0,0.0,0.0,0.0,0.0,0.0,0.0,0.0,0.0,0.0,0.0,0.0,0.0,0.0,0.0,0.0,0.0,0.0,0.0,0.0,0.0,0.0,0.0,0.0,0.0,0.0,0.0,0.0,0.0,0.0,0.0,0.0,0.0,0.0,0.0,0.0,0.0,0.0,0.0,0.0,0.0,0.0,0.0,0.0,0.0,0.0,0.0,0.0,0.0,0.0,0.0,0.0,0.0,0.0,0.0,0.0,0.0,0.0,0.0,0.0,0.0,0.0,0.0,0.0,0.0,0.0,0.0,0.0,0.0,0.0,0.0,0.0,0.0,0.0,0.0,0.0,0.0,0.0,0.0,0.0,0.0,0.0,0.0,0.0,0.0,0.0,0.0,0.0,0.0,0.0,0.0,0.0,0.0,0.0,0.0,0.0,0.0,0.0,0.0,0.0,0.0,0.0,0.0,0.0,0.0,0.0,0.0,0.0,0.0,0.0,0.0,0.0,0.0,0.0,0.0,0.0,0.0,0.0,0.0,0.0,0.0,0.0,0.0,0.0,0.0,0.0,0.0,0.0,0.0,0.0,0.0,0.0,0.0,0.0,0.0,0.0,0.0,0.0,0.0,0.0,0.0,0.0,0.0,0.0,0.0,0.0,0.0,0.0,0.0,0.0,0.0,0.0,0.0,0.0,0.0,0.0,0.0,0.0,0.0,0.0,0.0,0.0,0.0,0.0,0.0,0.0,0.0,0.0,0.0,0.0,0.0,0.0,0.0,0.0,0.0,0.0,0.0,0.0,0.0,0.0,0.0,0.0,0.0,0.0,0.0,0.0,0.0,0.0,0.0,0.0,0.0,0.0,0.0,0.0,0.0,0.0,0.0,0.0,0.0,0.0,0.0,0.0,0.0,0.0,0.0,0.0,0.0,0.0,0.0,0.0,0.0,0.0,0.0,0.0,0.0,0.0,0.0,0.0,0.0,0.0,0.0,0.0,0.0,0.0,0.0,0.0,0.0,0.0,0.0,0.0,0.0,0.0,0.0,0.0,0.0,0.0,0.0,0.0,0.0,0.0,0.0,0.0,0.0,0.0,0.0,0.0,0.0,0.0,0.0,0.0,0.0,0.0,0.0,0.0,0.0,0.0,0.0,0.0,0.0,0.0,0.0,0.0,0.0,0.0,0.0,0.0,0.0,0.0,0.0,0.0,0.0,0.0,0.0,0.0,0.0,0.0,0.0,0.0,0.0,0.0,0.0,0.0,0.0,0.0,0.0,0.0,0.0,0.0,0.0,0.0,0.0,0.0,0.0,0.0,0.0,0.0,0.0,0.0,0.0,0.0,0.0,0.0,0.0,0.0,0.0,0.0,0.0,0.0,0.0,0.0,0.0,0.0,0.0,0.0,0.0,0.0,0.0,0.0,0.0,0.0,0.0,0.0,0.0,0.0,0.0,0.0,0.0,0.0,0.0,0.0,0.0,0.0,0.0,0.0,0.0,0.0,0.0,0.0,0.0,0.0,0.0,0.0,0.0,0.0,0.0,0.0,0.0,0.0,0.0,0.0,0.0,0.0,0.0,0.0,0.0,0.0,0.0,0.0,0.0,0.0,0.0,0.0,0.0,0.0,0.0,0.0,0.0,0.0,0.0,0.0,0.0,0.0,0.0,0.0,0.0,0.0,0.0,0.0,0.0,0.0,0.0,0.0,0.0,0.0,0.0,0.0,0.0,0.0,0.0,0.0,0.0,0.0,0.0,0.0,0.0,0.0,0.0,0.0,0.0,0.0,0.0,0.0,0.0,0.0,0.0,0.0,0.0,0.0,0.0,0.0,0.0,0.0,0.0,0.0,0.0,0.0,0.0,0.0,0.0,0.0,0.0,0.0,0.0,0.0,0.0,0.0,0.0,0.0,0.0,0.0,0.0,0.0,0.0,0.0,0.0,0.0,0.0,0.0,0.0,0.0,0.0,0.0,0.0,0.0,0.0,0.0,0.0,0.0,0.0,0.0,0.0,0.0,0.0,0.0,0.0,0.0,0.0,0.0,0.0,0.2054,0.0,0.0,0.0,0.0,0.0,0.0,0.0,0.0,0.0,0.0,0.0,0.0,0.0,0.0,0.0,0.0,0.0,0.0,0.0,0.0,0.0,0.0,0.0,0.0,0.0,0.0,0.0,0.0,0.0,0.0,0.0,0.0,0.0,0.0,0.0,0.0,0.0,0.0,0.0,0.0,0.0,0.0,0.0,0.0,0.0,0.0,0.0,0.0,0.0,0.0,0.0,0.0,0.0,0.0,0.0,0.0,0.0,0.0,0.0,0.0,0.0,0.0,0.0,0.0,0.0,0.0,0.0,0.0,0.0,0.0,0.0,0.0,0.0,0.0,0.0,0.0,0.0,0.0,0.0,0.0,0.0,0.0,0.0,0.0,0.0,0.0,0.0,0.0,0.0,0.0,0.0,0.0,0.0,0.0,0.0,0.0,0.0,0.0,0.0,0.0,0.0,0.0,0.0,0.0,0.0,0.0,0.0,0.0,0.0,0.0,0.2868,0.2419,0.2889,0.2861,0.2091,0.0,0.0,0.0,0.0,0.0,0.0,0.0,0.0,0.0,0.0,0.0,0.0,0.0,0.0,0.0,0.0,0.0,0.0,0.0,0.0,0.0,0.0,0.0,0.0,0.0,0.0,0.0,0.0,0.0,0.0,0.0,0.0,0.0,0.0,0.0,0.0,0.0,0.0,0.0,0.0,0.0,0.0,0.0,0.0,0.0,0.0,0.0,0.0,0.0,0.0,0.0,0.0,0.0,0.0,0.0,0.0,0.0,0.0,0.0,0.0,0.0,0.0,0.0,0.0,0.0,0.0,0.0,0.0,0.0,0.0,0.0,0.0,0.0,0.0,0.0,0.0,0.0,0.0,0.0,0.0,0.0,0.0,0.0,0.0,0.0,0.0,0.0,0.0,0.0,0.0,0.0,0.0,0.0,0.0,0.0,0.0,0.0,0.0,0.0,0.0,0.0,0.0,0.0,0.0,0.0,0.0,0.0,0.0,0.0,0.0,0.0,0.0,0.2981,0.2881,0.23,0.0,0.0,0.0,0.0,0.0,0.0,0.0,0.0,0.0,0.0,0.0,0.0,0.0,0.0,0.0,0.0,0.0,0.0,0.0,0.0,0.0,0.0,0.0,0.0,0.0,0.0,0.0,0.0,0.0,0.0,0.0,0.0,0.0,0.0,0.0,0.0,0.0,0.0,0.0,0.0,0.0,0.0,0.0,0.0,0.0,0.0,0.0,0.0,0.0,0.0,0.0,0.0,0.0,0.0,0.0,0.0,0.0,0.0,0.0,0.0,0.0,0.0,0.0,0.0,0.0,0.0,0.0,0.0,0.0,0.0,0.0,0.0,0.0,0.0,0.0,0.0,0.0,0.0,0.0,0.0,0.0,0.0,0.0,0.0,0.0,0.0,0.0,0.0,0.0,0.0,0.0,0.0,0.0,0.0,0.0,0.0,0.0,0.0,0.0,0.0,0.0,0.0,0.0,0.0,0.0,0.0,0.0,0.0,0.0,0.0,0.2704,0.2981,0.3077,0.0,0.2574,0.0,0.0,0.0,0.0,0.0,0.0,0.0,0.0,0.0,0.0,0.0,0.0,0.0,0.0,0.0,0.0,0.0,0.0,0.0,0.0,0.0,0.0,0.0,0.0,0.0,0.0,0.0,0.0,0.0,0.0,0.0,0.0,0.0,0.0,0.0,0.0,0.0,0.0,0.0,0.0,0.0,0.0,0.0,0.0,0.0,0.0,0.0,0.0,0.0,0.0,0.0,0.0,0.0,0.0,0.0,0.0,0.0,0.0,0.0,0.0,0.0,0.0,0.0,0.0,0.0,0.0,0.0,0.0,0.0,0.0,0.0,0.0,0.0,0.0,0.0,0.0,0.0,0.0,0.0,0.0,0.0,0.0,0.0,0.0,0.0,0.0,0.0,0.0,0.0,0.0,0.0,0.0,0.0,0.0,0.0,0.0,0.0,0.0,0.0,0.0,0.0,0.0,0.0,0.0,0.0,0.0,0.0,0.0,0.0,0.0,0.0,0.3151,0.3153,0.2921,0.0,0.0,0.0,0.0,0.0,0.0,0.0,0.0,0.0,0.0,0.0,0.0,0.0,0.0,0.0,0.0,0.0,0.0,0.0,0.0,0.0,0.0,0.0,0.0,0.0,0.0,0.0,0.0,0.0,0.0,0.0,0.0,0.0,0.0,0.0,0.0,0.0,0.0,0.0,0.0,0.0,0.0,0.0,0.0,0.0,0.0,0.0,0.0,0.0,0.0,0.0,0.0,0.0,0.0,0.0,0.0,0.0,0.0,0.0,0.0,0.0,0.0,0.0,0.0,0.0,0.0,0.0,0.0,0.0,0.0,0.0,0.0,0.0,0.0,0.0,0.0,0.0,0.0,0.0,0.0,0.0,0.0,0.0,0.0,0.0,0.0,0.0,0.0,0.0,0.0,0.0,0.0,0.0,0.0,0.0,0.0,0.0,0.0,0.0,0.0,0.0,0.0,0.0,0.0,0.0,0.0,0.0,0.0,0.0,0.0,0.266,0.0,0.3381,0.3172,0.2839,0.2362,0.0,0.0,0.0,0.0,0.0,0.0,0.0,0.0,0.0,0.0,0.0,0.0,0.0,0.0,0.0,0.0,0.0,0.0,0.0,0.0,0.0,0.0,0.0,0.0,0.0,0.0,0.0,0.0,0.0,0.0,0.0,0.0,0.0,0.0,0.0,0.0,0.0,0.0,0.0,0.0,0.0,0.0,0.0,0.0,0.0,0.0,0.0,0.0,0.0,0.0,0.0,0.0,0.0,0.0,0.0,0.0,0.0,0.0,0.0,0.0,0.0,0.0,0.0,0.0,0.0,0.0,0.0,0.0,0.0,0.0,0.0,0.0,0.0,0.0,0.0,0.0,0.0,0.0,0.0,0.0,0.0,0.0,0.0,0.0,0.0,0.0,0.0,0.0,0.0,0.0,0.0,0.0,0.0,0.0,0.0,0.0,0.0,0.0,0.0,0.0,0.0,0.0,0.0,0.0,0.0,0.0,0.0,0.0,0.0,0.3,0.3137,0.3882,0.3146,0.2713,0.0,0.0,0.0,0.0,0.0,0.0,0.0,0.0,0.0,0.0,0.0,0.0,0.0,0.0,0.0,0.0,0.0,0.0,0.0,0.0,0.0,0.0,0.0,0.0,0.0,0.0,0.0,0.0,0.0,0.0,0.0,0.0,0.0,0.0,0.0,0.0,0.0,0.0,0.0,0.0,0.0,0.0,0.0,0.0,0.0,0.0,0.0,0.0,0.0,0.0,0.0,0.0,0.0,0.0,0.0,0.0,0.0,0.0,0.0,0.0,0.0,0.0,0.0,0.0,0.0,0.0,0.0,0.0,0.0,0.0,0.0,0.0,0.0,0.0,0.0,0.0,0.0,0.0,0.0,0.0,0.0,0.0,0.0,0.0,0.0,0.0,0.0,0.0,0.0,0.0,0.0,0.0,0.0,0.0,0.0,0.0,0.0,0.0,0.0,0.0,0.0,0.0,0.0,0.0,0.0,0.0,0.0,0.0,0.0,0.2228,0.2847,0.3455,0.3958,0.3558,0.3193,0.0,0.0,0.0,0.0,0.0,0.0,0.0,0.0,0.0,0.0,0.0,0.0,0.0,0.0,0.0,0.0,0.0,0.0,0.0,0.0,0.0,0.0,0.0,0.0,0.0,0.0,0.0,0.0,0.0,0.0,0.0,0.0,0.0,0.0,0.0,0.0,0.0,0.0,0.0,0.0,0.0,0.0,0.0,0.0,0.0,0.0,0.0,0.0,0.0,0.0,0.0,0.0,0.0,0.0,0.0,0.0,0.0,0.0,0.0,0.0,0.0,0.0,0.0,0.0,0.0,0.0,0.0,0.0,0.0,0.0,0.0,0.0,0.0,0.0,0.0,0.0,0.0,0.0,0.0,0.0,0.0,0.0,0.0,0.0,0.0,0.0,0.0,0.0,0.0,0.0,0.0,0.0,0.0,0.0,0.0,0.0,0.0,0.0,0.0,0.0,0.0,0.0,0.0,0.0,0.0,0.0,0.0,0.0,0.0,0.1413,0.0,0.352,0.0,0.337,0.3117,0.0,0.0,0.0,0.0,0.0,0.0,0.0,0.0,0.0,0.0,0.0,0.0,0.0,0.0,0.0,0.0,0.0,0.0,0.0,0.0,0.0,0.0,0.0,0.0,0.0,0.0,0.0,0.0,0.0,0.0,0.0,0.0,0.0,0.0,0.0,0.0,0.0,0.0,0.0,0.0,0.0,0.0,0.0,0.0,0.0,0.0,0.0,0.0,0.0,0.0,0.0,0.0,0.0,0.0,0.0,0.0,0.0,0.0,0.0,0.0,0.0,0.0,0.0,0.0,0.0,0.0,0.0,0.0,0.0,0.0,0.0,0.0,0.0,0.0,0.0,0.0,0.0,0.0,0.0,0.0,0.0,0.0,0.0,0.0,0.0,0.0,0.0,0.0,0.0,0.0,0.0,0.0,0.0,0.0,0.0,0.0,0.0,0.0,0.0,0.0,0.0,0.0,0.0,0.0,0.0,0.0,0.0,0.0,0.1419,0.1225,0.2884,0.3561,0.2879,0.2812,0.2463,0.0,0.0,0.0,0.0,0.0,0.0,0.0,0.0,0.0,0.0,0.0,0.0,0.0,0.0,0.0,0.0,0.0,0.0,0.0,0.0,0.0,0.0,0.0,0.0,0.0,0.0,0.0,0.0,0.0,0.0,0.0,0.0,0.0,0.0,0.0,0.0,0.0,0.0,0.0,0.0,0.0,0.0,0.0,0.0,0.0,0.0,0.0,0.0,0.0,0.0,0.0,0.0,0.0,0.0,0.0,0.0,0.0,0.0,0.0,0.0,0.0,0.0,0.0,0.0,0.0,0.0,0.0,0.0,0.0,0.0,0.0,0.0,0.0,0.0,0.0,0.0,0.0,0.0,0.0,0.0,0.0,0.0,0.0,0.0,0.0,0.0,0.0,0.0,0.0,0.0,0.0,0.0,0.0,0.0,0.0,0.0,0.0,0.0,0.0,0.0,0.0,0.0,0.0,0.0,0.0,0.0,0.0,0.0,0.0,0.2554,0.3785,0.4554,0.4932,0.4039,0.3544,0.0,0.0,0.0,0.0,0.0,0.0,0.0,0.0,0.0,0.0,0.0,0.0,0.0,0.0,0.0,0.0,0.0,0.0,0.0,0.0,0.0,0.0,0.0,0.0,0.0,0.0,0.0,0.0,0.0,0.0,0.0,0.0,0.0,0.0,0.0,0.0,0.0,0.0,0.0,0.0,0.0,0.0,0.0,0.0,0.0,0.0,0.0,0.0,0.0,0.0,0.0,0.0,0.0,0.0,0.0,0.0,0.0,0.0,0.0,0.0,0.0,0.0,0.0,0.0,0.0,0.0,0.0,0.0,0.0,0.0,0.0,0.0,0.0,0.0,0.0,0.0,0.0,0.0,0.0,0.0,0.0,0.0,0.0,0.0,0.0,0.0,0.0,0.0,0.0,0.0,0.0,0.0,0.0,0.0,0.0,0.0,0.0,0.0,0.0,0.0,0.0,0.0,0.0,0.0,0.0,0.0,0.0,0.0,0.0,0.4215,0.4362,0.4741,0.5428,0.452,0.4038,0.3958,0.0,0.0,0.0,0.0,0.0,0.0,0.0,0.0,0.0,0.0,0.0,0.0,0.0,0.0,0.0,0.0,0.0,0.0,0.0,0.0,0.0,0.0,0.0,0.0,0.0,0.0,0.0,0.0,0.0,0.0,0.0,0.0,0.0,0.0,0.0,0.0,0.0,0.0,0.0,0.0,0.0,0.0,0.0,0.0,0.0,0.0,0.0,0.0,0.0,0.0,0.0,0.0,0.0,0.0,0.0,0.0,0.0,0.0,0.0,0.0,0.0,0.0,0.0,0.0,0.0,0.0,0.0,0.0,0.0,0.0,0.0,0.0,0.0,0.0,0.0,0.0,0.0,0.0,0.0,0.0,0.0,0.0,0.0,0.0,0.0,0.0,0.0,0.0,0.0,0.0,0.0,0.0,0.0,0.0,0.0,0.0,0.0,0.0,0.0,0.0,0.0,0.0,0.0,0.0,0.0,0.0,0.0,0.0,0.6008,0.4778,0.437,0.4891,0.4465,0.3951,0.0,0.0,0.0,0.0,0.0,0.0,0.0,0.0,0.0,0.0,0.0,0.0,0.0,0.0,0.0,0.0,0.0,0.0,0.0,0.0,0.0,0.0,0.0,0.0,0.0,0.0,0.0,0.0,0.0,0.0,0.0,0.0,0.0,0.0,0.0,0.0,0.0,0.0,0.0,0.0,0.0,0.0,0.0,0.0,0.0,0.0,0.0,0.0,0.0,0.0,0.0,0.0,0.0,0.0,0.0,0.0,0.0,0.0,0.0,0.0,0.0,0.0,0.0,0.0,0.0,0.0,0.0,0.0,0.0,0.0,0.0,0.0,0.0,0.0,0.0,0.0,0.0,0.0,0.0,0.0,0.0,0.0,0.0,0.0,0.0,0.0,0.0,0.0,0.0,0.0,0.0,0.0,0.0,0.0,0.0,0.0,0.0,0.0,0.0,0.0,0.0,0.0,0.0,0.0,0.0,0.0,0.0,0.0,0.0,0.6462,0.6465,0.6637,0.6917,0.5939,0.516,0.0,0.0,0.0,0.0,0.0,0.0,0.0,0.0,0.0,0.0,0.0,0.0,0.0,0.0,0.0,0.0,0.0,0.0,0.0,0.0,0.0,0.0,0.0,0.0,0.0,0.0,0.0,0.0,0.0,0.0,0.0,0.0,0.0,0.0,0.0,0.0,0.0,0.0,0.0,0.0,0.0,0.0,0.0,0.0,0.0,0.0,0.0,0.0,0.0,0.0,0.0,0.0,0.0,0.0,0.0,0.0,0.0,0.0,0.0,0.0,0.0,0.0,0.0,0.0,0.0,0.0,0.0,0.0,0.0,0.0,0.0,0.0,0.0,0.0,0.0,0.0,0.0,0.0,0.0,0.0,0.0,0.0,0.0,0.0,0.0,0.0,0.0,0.0,0.0,0.0,0.0,0.0,0.0,0.0,0.0,0.0,0.0,0.0,0.0,0.0,0.0,0.0,0.0,0.0,0.0,0.0,0.0,0.0,0.6236,0.681,0.7483,0.8004,0.8099,0.6888,0.5856,0.0,0.0,0.0,0.0,0.0,0.0,0.0,0.0,0.0,0.0,0.0,0.0,0.0,0.0,0.0,0.0,0.0,0.0,0.0,0.0,0.0,0.0,0.0,0.0,0.0,0.0,0.0,0.0,0.0,0.0,0.0,0.0,0.0,0.0,0.0,0.0,0.0,0.0,0.0,0.0,0.0,0.0,0.0,0.0,0.0,0.0,0.0,0.0,0.0,0.0,0.0,0.0,0.0,0.0,0.0,0.0,0.0,0.0,0.0,0.0,0.0,0.0,0.0,0.0,0.0,0.0,0.0,0.0,0.0,0.0,0.0,0.0,0.0,0.0,0.0,0.0,0.0,0.0,0.0,0.0,0.0,0.0,0.0,0.0,0.0,0.0,0.0,0.0,0.0,0.0,0.0,0.0,0.0,0.0,0.0,0.0,0.0,0.0,0.0,0.0,0.0,0.0,0.0,0.0,0.0,0.0,0.0,0.0,0.6441,0.7101,0.8101,0.8669,0.852,0.7537,0.6334,0.0,0.0,0.0,0.0,0.0,0.0,0.0,0.0,0.0,0.0,0.0,0.0,0.0,0.0,0.0,0.0,0.0,0.0,0.0,0.0,0.0,0.0,0.0,0.0,0.0,0.0,0.0,0.0,0.0,0.0,0.0,0.0,0.0,0.0,0.0,0.0,0.0,0.0,0.0,0.0,0.0,0.0,0.0,0.0,0.0,0.0,0.0,0.0,0.0,0.0,0.0,0.0,0.0,0.0,0.0,0.0,0.0,0.0,0.0,0.0,0.0,0.0,0.0,0.0,0.0,0.0,0.0,0.0,0.0,0.0,0.0,0.0,0.0,0.0,0.0,0.0,0.0,0.0,0.0,0.0,0.0,0.0,0.0,0.0,0.0,0.0,0.0,0.0,0.0,0.0,0.0,0.0,0.0,0.0,0.0,0.0,0.0,0.0,0.0,0.0,0.0,0.0,0.0,0.0,0.0,0.0,0.0,0.0,0.6894,0.7516,0.8397,0.8872,0.8838,0.7837,0.6835,0.0,0.0,0.0,0.0,0.0,0.0,0.0,0.0,0.0,0.0,0.0,0.0,0.0,0.0,0.0,0.0,0.0,0.0,0.0,0.0,0.0,0.0,0.0,0.0,0.0,0.0,0.0,0.0,0.0,0.0,0.0,0.0,0.0,0.0,0.0,0.0,0.0,0.0,0.0,0.0,0.0,0.0,0.0,0.0,0.0,0.0,0.0,0.0,-0.1515,0.0,0.0,0.0,0.0,0.0,0.0,0.0,0.0,0.0,0.0,0.0,0.0,0.0,0.0,0.0,0.0,0.0,0.0,0.0,0.0,0.0,0.0,0.0,0.0,0.0,0.0,0.0,0.0,0.0,0.0,0.0,0.0,0.0,0.0,0.0,0.0,0.0,0.0,0.0,0.0,0.0,0.0,0.0,0.0,0.0,0.0,0.0,0.0,0.0,0.0,0.0,0.0,0.0,0.0,0.0,0.0,0.0,0.0,0.0,0.6989,0.8238,0.8845,0.9113,0.9028,0.8375,0.7405,0.0,0.0,0.0,0.0,0.0,0.0,0.0,0.0,0.0,0.0,0.0,0.0,0.0,0.0,0.0,0.0,0.0,0.0,0.0,0.0,0.0,0.0,0.0,0.0,0.0,0.0,0.0,0.0,0.0,0.0,0.0,0.0,0.0,0.0,0.0,0.0,0.0,0.0,0.0,0.0,0.0,0.0,0.0,0.0,0.0,0.0,0.0,0.0,0.0,0.0,0.0,0.0,0.0,0.0,0.0,0.0,0.0,0.0,0.0,0.0,0.0,0.0,0.0,0.0,0.0,0.0,0.0,0.0,0.0,0.0,0.0,0.0,0.0,0.0,0.0,0.0,0.0,0.0,0.0,0.0,0.0,0.0,0.0,0.0,0.0,0.0,0.0,0.0,0.0,0.0,0.0,0.0,0.0,0.0,0.0,0.0,0.0,0.0,0.0,0.0,0.0,0.0,0.0,0.0,0.0,0.0,0.0,0.5749,0.6869,0.8903,0.9266,0.9317,0.9191,0.9001,0.7844,0.5761,0.0,0.0,0.0,0.0,0.0,0.0,0.0,0.0,0.0,0.0,0.0,0.0,0.0,0.0,0.0,0.0,0.0,0.0,0.0,0.0,0.0,0.0,0.0,0.0,0.0,0.0,0.0,0.0,0.0,0.0,0.0,0.0,0.0,0.0,0.0,0.0,0.0,0.0,-0.35,-0.3357,0.0,0.0,0.0,0.0,0.0,0.0,0.0,0.0,-0.1827,0.0,0.0,0.0,0.0,0.0,0.0,0.0,0.0,0.0,0.0,0.0,0.0,0.0,0.0,0.0,0.0,0.0,0.0,0.0,0.0,0.0,0.0,0.0,0.0,0.0,0.0,0.0,0.0,0.0,0.0,0.0,0.0,0.0,0.0,0.0,0.0,0.0,0.0,0.0,0.0,0.0,0.0,0.0,0.0,0.0,0.0,0.0,0.0,0.0,0.0,0.0,0.0,0.0,0.0,0.0,0.0,0.6647,0.6289,0.7132,0.9459,0.9422,0.9371,0.9334,0.8957,0.7892,0.5999,0.0,0.0,0.0,0.0,0.0,0.0,0.0,0.0,0.0,0.0,0.0,0.0,0.0,0.0,0.0,0.0,0.0,0.0,0.0,0.0,0.0,0.0,0.0,0.0,0.0,0.0,0.0,0.0,0.0,0.0,0.0,0.0,0.0,0.0,0.0,0.0,0.0,0.0,0.0,-0.4277,-0.4121,0.0,0.0,0.0,0.0,0.0,0.0,0.0,0.0,-0.2008,0.0,0.0,0.0,0.0,0.0,0.0,0.0,0.0,0.0,0.0,0.0,0.0,0.0,0.0,0.0,0.0,0.0,0.0,0.0,0.0,0.0,0.0,0.0,0.0,0.0,0.0,0.0,0.0,0.0,0.0,0.0,0.0,0.0,0.0,0.0,0.0,0.0,0.0,0.0,0.0,0.0,0.0,0.0,0.0,0.0,0.0,0.0,0.0,0.0,0.0,0.0,0.0,0.0,0.0,0.0,0.6253,0.6805,0.7944,0.9578,0.9727,0.9769,0.961,0.9468,0.8459,0.0,0.0,0.0,0.0,0.0,0.0,0.0,0.0,0.0,0.0,0.0,0.0,0.0,0.0,0.0,0.0,0.0,0.0,0.0,0.0,0.0,0.0,0.0,0.0,0.0,0.0,0.0,0.0,0.0,0.0,0.0,0.0,0.0,0.0,0.0,0.0,0.0,0.0,0.0,0.0,-0.4732,-0.4411,-0.3771,0.0,0.0,0.0,0.0,0.0,0.0,-0.2856,-0.2781,0.0,0.0,0.0,0.0,0.0,0.0,0.0,0.0,0.0,0.0,0.0,0.0,0.0,0.0,0.0,0.0,0.0,0.0,0.0,0.0,0.0,0.0,0.0,0.0,0.0,0.0,0.0,0.0,0.0,0.0,0.0,0.0,0.0,0.0,0.0,0.0,0.0,0.0,0.0,0.0,0.0,0.0,0.0,0.0,0.0,0.0,0.0,0.0,0.0,0.0,0.0,0.0,0.0,0.0,0.0,0.5901,0.7422,0.866,0.971,1.0229,1.0274,0.9961,0.9928,0.878,0.0,0.0,0.0,0.0,0.0,0.0,0.0,0.0,0.0,0.0,0.0,0.0,0.0,0.0,0.0,0.0,0.0,0.0,0.0,0.0,0.0,0.0,0.0,0.0,0.0,0.0,0.0,0.0,0.0,0.0,0.0,0.0,0.0,0.0,0.0,0.0,0.0,0.0,0.0,0.0,0.0,-0.4478,-0.3983,-0.3848,0.0,0.0,0.0,0.0,-0.3605,-0.3464,0.0,0.0,0.0,0.0,0.0,0.0,0.0,0.0,0.0,0.0,0.0,0.0,0.0,0.0,0.0,0.0,0.0,0.0,0.0,0.0,0.0,0.0,0.0,0.0,0.0,0.0,0.0,0.0,0.0,0.0,0.0,0.0,0.0,0.0,0.0,0.0,0.0,0.0,0.0,0.0,0.0,0.0,0.0,0.0,0.0,0.0,0.0,0.0,0.0,0.0,0.0,0.0,0.0,0.0,0.0,0.0,0.6145,0.7879,0.9268,1.0273,1.0587,1.0517,1.0192,0.9377,0.8055,0.0,0.0,0.0,0.0,0.0,0.0,0.0,0.0,0.0,0.0,0.0,0.0,0.0,0.0,0.0,0.0,0.0,0.0,0.0,0.0,0.0,0.0,0.0,0.0,0.0,0.0,0.0,0.0,0.0,0.0,0.0,0.0,0.0,0.0,0.0,0.0,0.0,0.0,0.0,0.0,0.0,-0.47,-0.3986,-0.3869,-0.3574,0.0,0.0,-0.362,-0.3096,-0.3092,0.0,0.0,0.0,0.0,0.0,0.0,0.0,0.0,0.0,0.0,0.0,0.0,0.0,0.0,0.0,0.0,0.0,0.0,0.0,0.0,0.0,0.0,0.0,0.0,0.0,0.0,0.0,0.0,0.0,0.0,0.0,0.0,0.0,0.0,0.0,0.0,0.0,0.0,0.0,0.0,0.0,0.0,0.0,0.0,0.0,0.0,0.0,0.0,0.0,0.0,0.0,0.0,0.0,0.0,0.0,0.5954,0.6531,0.8633,0.9971,1.0662,1.0872,1.0871,1.0536,0.9591,0.8225,0.0,0.0,0.0,0.0,0.0,0.0,0.0,0.0,0.0,0.0,0.0,0.0,0.0,0.0,0.0,0.0,0.0,0.0,0.0,0.0,0.0,0.0,0.0,0.0,0.0,0.0,0.0,0.0,0.0,0.0,0.0,0.0,0.0,0.0,0.0,0.0,0.0,0.0,0.0,0.0,0.0,0.0,-0.4801,-0.4396,0.0,0.0,0.0,-0.393,-0.35,0.0,0.0,0.0,0.0,0.0,0.0,0.0,0.0,0.0,0.0,0.0,0.0,0.0,0.0,0.0,0.0,0.0,0.0,0.0,0.0,0.0,0.0,0.0,0.0,0.0,0.0,0.0,0.0,0.0,0.0,0.0,0.0,0.0,0.0,0.0,0.0,0.0,0.0,0.0,0.0,0.0,0.0,0.0,0.0,0.0,0.0,0.0,0.0,0.0,0.0,0.0,0.0,0.0,0.0,0.0,0.0,0.0,0.6768,0.9183,1.0684,1.0959,1.1253,1.1232,1.0874,0.984,0.0,0.0,0.0,0.0,0.0,0.0,0.0,0.0,0.0,0.0,0.0,0.0,0.0,0.0,0.0,0.0,0.0,0.0,0.0,0.0,0.0,0.0,0.0,0.0,0.0,0.0,0.0,-0.0822,0.0,0.0,0.0,0.0,0.0,0.0,0.0,0.0,0.0,0.0,0.0,0.0,0.0,0.0,-0.5212,-0.5427,-0.484,-0.4407,0.0,0.0,-0.4235,-0.39,-0.3891,-0.3911,0.0,0.0,0.0,0.0,0.0,0.0,0.0,0.0,0.0,0.0,0.0,0.0,0.0,0.0,0.0,0.0,0.0,0.0,0.0,0.0,0.0,0.0,0.0,0.0,0.0,0.0,0.0,0.0,0.0,0.0,0.0,0.0,0.0,0.0,0.0,0.0,0.0,0.0,0.0,0.0,0.0,0.0,0.0,0.0,0.0,0.0,0.0,0.0,0.0,0.0,0.0,0.0,0.0,0.0,0.0,0.6749,0.9649,1.1196,1.1402,1.1687,1.1598,1.1109,1.007,0.8747,0.0,0.0,0.0,0.0,0.0,0.0,0.0,0.0,0.0,0.0,0.0,0.0,0.0,0.0,0.0,0.0,0.0,0.0,0.0,0.0,0.0,0.0,0.0,0.0,0.0,0.0,0.0,0.0,0.0,0.0,0.0,0.0,0.0,0.0,0.0,0.0,0.0,0.0,0.0,0.0,0.0,-0.5425,-0.5506,-0.4893,-0.4256,0.0,0.0,-0.4246,-0.3878,-0.3812,-0.3726,-0.3466,0.0,0.0,0.0,0.0,0.0,0.0,0.0,0.0,0.0,0.0,0.0,0.0,0.0,0.0,0.0,0.0,0.0,0.0,0.0,0.0,0.0,0.0,0.0,0.0,0.0,0.0,0.0,0.0,0.0,0.0,0.0,0.0,0.0,0.0,0.0,0.0,0.0,0.0,0.0,0.0,0.0,0.0,0.0,0.0,0.0,0.0,0.0,0.0,0.0,0.0,0.0,0.0,0.0,0.679,0.7025,0.981,1.1374,1.1663,1.174,1.1602,1.1228,1.0213,0.8981,0.0,0.0,0.0,0.0,0.0,0.0,0.0,0.0,0.0,0.0,0.0,0.0,0.0,0.0,0.0,0.0,0.0,0.0,0.0,0.0,0.0,0.0,0.0,0.0,0.0,0.0,0.0,0.0,-0.0803,-0.1035,-0.1399,0.0,0.0,0.0,0.0,0.0,0.0,0.0,0.0,0.0,0.0,-0.5259,-0.5277,-0.4614,0.0,0.0,-0.3903,-0.3955,-0.3854,-0.3852,-0.3781,-0.3641,-0.3825,0.0,0.0,0.0,0.0,0.0,0.0,0.0,0.0,0.0,0.0,0.0,0.0,0.0,0.0,0.0,0.0,0.0,0.0,0.0,0.0,0.0,0.0,0.0,0.0,0.0,0.0,0.0,0.0,0.0,0.0,0.0,0.0,0.0,0.0,0.0,0.0,0.0,0.0,0.0,0.0,0.0,0.0,0.0,0.0,0.0,0.0,0.0,0.0,0.0,0.0,0.0,0.0,0.689,0.7198,0.9862,1.1426,1.1772,1.1776,1.1598,1.1228,1.0582,0.9439,0.0,0.0,0.0,0.0,0.0,0.0,0.0,0.0,0.0,0.0,0.0,0.0,0.0,0.0,0.0,0.0,0.0,0.0,0.0,0.0,0.0,0.0,0.0,0.0,0.0,0.0,0.0,0.0,-0.0731,-0.1138,-0.1708,0.0,0.0,0.0,0.0,0.0,0.0,0.0,0.0,0.0,0.0,-0.4999,-0.4929,-0.4307,-0.3867,-0.3781,-0.3617,-0.359,-0.3755,-0.3846,-0.3724,-0.3317,0.0,0.0,0.0,0.0,0.0,0.0,0.0,0.0,0.0,0.0,0.0,0.0,0.0,0.0,0.0,0.0,0.0,0.0,0.0,0.0,0.0,0.0,0.0,0.0,0.0,0.0,0.0,0.0,0.0,0.0,0.4004,0.0,0.0,0.0,0.0,0.0,0.0,0.0,0.0,0.0,0.0,0.0,0.0,0.0,0.0,0.0,0.0,0.0,0.0,0.0,0.0,0.0,0.0,0.6857,0.7214,1.001,1.1585,1.1768,1.1776,1.1602,1.1236,1.1041,1.0329,0.8764,0.0,0.0,0.0,0.0,0.0,0.0,0.0,0.0,0.0,0.0,0.0,0.0,0.0,0.0,0.0,0.0,0.0,0.0,0.0,0.0,0.0,0.0,0.0,0.0,0.0,0.0,0.0107,-0.0679,-0.1587,0.0,0.0,0.0,0.0,0.0,0.0,0.0,0.0,0.0,0.0,-0.496,-0.4622,-0.4553,-0.4144,-0.3794,-0.3621,-0.3109,-0.3,-0.3832,-0.3969,-0.3557,0.0,0.0,0.0,0.0,0.0,0.0,0.0,0.0,0.0,0.0,0.0,0.0,0.0,0.0,0.0,0.0,0.0,0.0,0.0,0.0,0.0,0.0,0.0,0.0,0.0,0.0,0.0,0.619,0.569,0.0,0.0,0.0,0.0,0.0,0.0,0.0,0.0,0.0,0.0,0.0,0.7076,0.733,0.0,0.0,0.0,0.0,0.0,0.0,0.0,0.0,0.0,0.0,0.0,0.0,0.7105,0.7667,1.0177,1.17,1.1997,1.1893,1.1602,1.1232,1.1167,1.0409,0.8733,0.0,0.0,0.0,0.0,0.0,0.0,0.0,0.0,0.0,0.0,0.0,0.0,0.0,0.0,0.0,0.0,0.0,0.0,0.0,0.0,0.0,0.0,0.0,0.0,0.0,-0.0114,0.0,0.0,0.0,0.0,0.0,0.0,0.0,0.0,0.0,0.0,0.0,-0.4562,-0.4401,-0.448,-0.4555,-0.4404,-0.4105,-0.3767,0.0,0.0,0.0,0.0,0.0,0.0,0.0,0.0,0.0,0.0,0.0,0.0,0.0,0.0,-0.4987,-0.5774,-0.6088,-0.6424,-0.6849,0.0,0.0,0.0,0.0,0.0,0.0,0.0,0.0,0.0,0.0,0.0,0.0,0.0,0.0,0.7632,0.0,0.6648,0.0,0.0,0.0,0.0,0.0,0.0,0.0,0.0,0.7816,0.8442,0.8556,0.8746,0.8801,0.0,0.8562,0.7519,0.0,0.0,0.0,0.0,0.0,0.0,0.0,0.0,0.7463,0.7838,1.0377,1.1881,1.223,1.2005,1.1831,1.1578,1.1206,1.049,0.9393,0.8107,0.7073,0.0,0.0,0.0,0.0,0.0,0.0,0.0,0.0,0.0,0.0,0.0,0.0,0.0,0.0,0.0,0.0,0.0,0.0,0.0,0.0,0.0,0.0,0.0,-0.0059,0.0,0.0,0.0,0.0,0.0,0.0,0.0,0.0,0.0,-0.4253,-0.4279,-0.4012,-0.3537,-0.385,-0.4013,-0.354,0.0,0.0,0.0,0.0,0.0,0.0,0.0,-0.5808,-0.5784,-0.5911,-0.5901,-0.5328,-0.4967,-0.4848,-0.5197,0.0,0.0,-0.6248,-0.6583,-0.6977,-0.7631,-0.7545,-0.7726,-0.8748,-0.8932,-0.9076,0.0,0.0,0.0,0.0,0.0,0.0,0.0,0.0,1.0043,0.9605,0.0,0.8189,0.0,0.0,0.0,0.0,0.0,0.711,0.0,0.0,0.9837,1.0312,1.0086,0.9962,0.9858,0.9779,0.949,0.9213,0.8932,0.7907,0.0,0.0,0.0,0.0,0.0,0.0,0.7953,0.7889,1.0727,1.2234,1.2234,1.2238,1.2175,1.2025,1.1086,1.0617,1.0602,0.9407,0.8424,0.7966,0.6457,0.0,0.0,0.0,0.0,0.0,0.0,0.0,0.0,0.0,0.0,0.0,0.0,0.0,0.0,0.0,0.0,0.0,0.0,0.0,0.0,-0.0413,0.0,0.0,0.0,0.0,0.0,0.0,0.0,0.0,0.0,0.0,-0.4154,-0.4059,-0.3635,-0.2849,0.0,0.0,0.0,0.0,-0.5357,-0.5149,-0.5802,-0.6138,-0.5541,-0.5323,-0.5362,-0.5664,0.0,0.0,-0.5402,-0.5369,-0.5305,-0.5436,-0.6013,-0.6458,-0.6472,-0.6958,-0.7579,-0.8431,-0.8809,-0.9369,-1.0076,-1.0162,-1.031,1.5737,0.0,0.0,0.0,0.0,1.3407,1.3248,1.2541,1.1643,1.0915,1.0413,0.9285,0.0,0.0,0.0,0.0,0.0,0.0,0.8871,0.9597,1.0269,1.0849,1.1267,1.1222,1.1212,1.1162,1.1157,1.1002,1.0982,1.071,0.9066,0.6213,0.0,0.0,0.0,0.0,0.8916,1.0196,1.1722,1.2719,1.2964,1.2719,1.2416,1.2148,1.1424,1.1006,1.0914,1.0332,0.9524,0.8516,0.7777,0.0,0.0,0.0,0.0,0.0,0.0,0.0,0.0,0.0,0.0,0.0,0.0,0.0,0.0,0.0,0.0,0.0,0.0,0.0,-0.0971,-0.0435,-0.0438,0.0,0.0,0.0,0.0,0.0,0.0,0.0,0.0,0.0,-0.3985,-0.4073,-0.4136,0.0,0.0,-0.4207,-0.2779,-0.392,-0.4978,-0.5307,-0.53,0.0,0.0,-0.5483,-0.5864,-0.5883,-0.5711,-0.5801,-0.6091,-0.5975,-0.5858,-0.5869,-0.6048,-0.619,-0.6496,-0.7039,-0.759,-0.7998,-0.8625,-0.9294,-0.9597,-0.9937,-1.0253,1.7647,1.5609,1.516,1.4787,1.4604,1.5107,1.5015,1.4322,1.3558,1.2716,1.2015,1.1038,1.0139,0.9396,0.8978,0.0,0.0,0.0,1.0398,1.1339,1.1663,1.2181,1.2622,1.2636,1.2588,1.251,1.2505,1.2467,1.2379,1.1878,1.0635,0.8446,0.0,0.0,0.7365,0.8832,1.0071,1.1,1.2207,1.2964,1.32,1.2931,1.2732,1.2483,1.1809,1.1406,1.12,1.0799,1.0197,0.9317,0.8603,0.7613,0.0,0.0,0.0,0.0,0.0,0.0,0.0,0.0,0.0,0.0,0.0,0.0562,-0.0162,0.0,0.0,0.0,0.006,0.0061,-0.0892,-0.0519,0.0,0.0,0.0,0.0,0.0,0.0,0.0,-0.3493,-0.3756,-0.39,-0.3904,-0.4155,-0.4095,-0.3462,-0.3909,-0.399,-0.3044,0.0,-0.4693,-0.5199,-0.5285,-0.5155,-0.5139,-0.5558,-0.5849,-0.5773,-0.5866,-0.6026,-0.6311,-0.6241,-0.6095,-0.6156,-0.6344,-0.6538,-0.6709,-0.7286,-0.7724,-0.78,-0.8313,-0.8894,-0.9453,-0.9744,-1.0058,1.9156,1.8601,1.7768,1.6872,1.615,1.6144,1.6101,1.6138,1.5503,1.4861,1.3987,1.3034,1.194,1.1053,1.0127,0.0,1.1128,1.134,1.2058,1.3325,1.3553,1.378,1.3987,1.3977,1.3876,1.3669,1.3669,1.3568,1.3366,1.2192,1.1548,1.1309,1.0768,0.9899,0.8952,1.036,1.1027,1.081,1.2302,1.3168,1.32,1.3166,1.3065,1.306,1.2246,1.1618,1.1408,1.1017,1.0531,1.0145,0.915,0.8365,0.7761,0.0,0.0,0.0,0.0,0.0,0.0,0.0,0.0,0.0,0.0,0.0,0.0,0.0,0.0,0.0,-0.0876,0.0,-0.0543,-0.0544,0.0,0.0,0.0,-0.2145,-0.1899,-0.2701,-0.3182,-0.3019,0.0,0.0,-0.3841,-0.4112,-0.3692,-0.2237,-0.2695,-0.3222,-0.3122,-0.3731,-0.441,-0.4968,-0.5412,-0.566,-0.5539,-0.5537,-0.557,-0.5642,-0.5753,-0.5974,-0.6257,-0.6269,-0.6108,-0.6222,-0.6675,-0.7136,-0.7143,-0.7527,-0.7957,-0.7861,-0.8001,-0.8381,-0.9516,-0.9801,-1.0086,2.0224,1.9811,1.9703,1.8933,1.7855,1.7855,1.7895,1.7725,1.6192,1.5553,1.5668,1.3482,1.2506,1.2555,1.2471,1.268,1.3033,1.3212,1.3537,1.3783,1.3906,1.3932,1.3982,1.3987,1.3957,1.3906,1.3906,1.3881,1.3826,1.3551,1.2793,1.1645,1.1575,1.0832,0.9384,0.9852,1.0539,1.1445,1.1994,1.2655,1.3545,1.3282,1.3065,1.3065,1.236,1.1934,1.1719,1.142,1.1097,1.0635,1.0304,0.9499,0.8295,0.6698,0.0,0.0,0.0,0.0,0.0,0.0,0.0,0.0,0.0,-0.0725,-0.0943,0.0,-0.0992,0.0,0.0,0.0721,0.0294,-0.015,0.0,0.0,-0.123,-0.1714,-0.1993,-0.2332,-0.265,-0.3077,-0.3271,-0.3373,-0.3444,-0.3638,-0.361,-0.2983,-0.3885,-0.4447,-0.3991,-0.4088,-0.4238,-0.4227,-0.4319,-0.4505,-0.4768,-0.5121,-0.5483,-0.5832,-0.5919,-0.6101,-0.6297,-0.6304,-0.6352,-0.6625,-0.689,-0.7091,-0.7168,-0.7422,-0.772,-0.7756,-0.8129,-0.8807,-0.9498,-0.9976,-1.0365,2.0744,2.0466,2.0333,1.9617,1.8529,1.8897,1.8931,1.8574,1.7514,1.6807,1.6229,1.4134,1.3322,1.3436,1.3563,1.3735,1.3942,1.4193,1.4415,1.4508,1.4629,1.4745,1.4745,1.4745,1.4693,1.4479,1.4479,1.4541,1.4448,1.4318,1.3937,1.3015,1.3115,1.2344,1.0907,1.0188,1.0198,1.0932,1.1607,1.244,1.3655,1.3282,1.2819,1.209,1.1598,1.0804,0.9759,0.9669,0.9489,0.9007,0.8666,0.8177,0.7242,0.6126,0.5026,0.0,0.0,0.0,0.0,0.0,0.0,0.0,0.0,0.0,0.0,0.0,-0.0855,-0.0934,0.0302,0.0939,0.0555,-0.0081,-0.033,-0.0333,-0.1011,-0.1369,-0.1135,-0.1712,-0.2298,-0.2573,-0.2739,-0.2898,-0.2929,-0.3031,-0.3054,-0.302,-0.3599,-0.3971,-0.3786,-0.3759,-0.3808,-0.3809,-0.3876,-0.4234,-0.464,-0.5278,-0.5713,-0.602,-0.6261,-0.6382,-0.6529,-0.657,-0.6736,-0.6839,-0.7186,-0.7454,-0.7425,-0.7839,-0.8038,-0.7939,-0.8333,-0.8829,-0.9229,-0.9624,-1.0212,2.1149,2.0836,2.0561,1.985,1.8905,1.9647,1.9466,1.8571,1.8421,1.734,1.5758,1.4735,1.4225,1.4142,1.4142,1.4264,1.4463,1.4707,1.5045,1.5229,1.5477,1.5601,1.5601,1.5601,1.5494,1.53,1.5295,1.5187,1.4988,1.4956,1.4782,1.4593,1.457,1.3746,1.2409,1.0904,1.0019,0.9919,1.1289,1.2418,1.3351,1.2795,1.197,1.0711,1.019,0.9088,0.7309,0.7399,0.733,0.684,0.642,0.6064,0.5795,0.5106,0.4441,0.0,0.2874,0.0,0.0,0.0,0.0,0.0,0.0,0.0,0.0,0.0076,-0.0313,-0.0245,0.0585,0.1017,0.068,0.0433,0.0177,-0.0,-0.0551,-0.0655,-0.0,-0.1069,-0.1868,-0.1971,-0.2199,-0.2321,-0.2318,-0.2321,-0.2522,-0.2724,-0.2918,-0.3006,-0.3123,-0.3219,-0.342,-0.3731,-0.4041,-0.4463,-0.5075,-0.5755,-0.6233,-0.6246,-0.6511,-0.6763,-0.666,-0.6847,-0.7015,-0.7107,-0.7682,-0.7972,-0.7849,-0.8432,-0.873,-0.8333,-0.8627,-0.8924,-0.8924,-0.9126,-0.9628,2.2027,2.1576,2.1511,2.1112,2.0721,2.0837,1.9414,1.6817,1.5663,1.478,1.427,1.5066,1.5216,1.4945,1.4956,1.5078,1.5413,1.5413,1.5435,1.5477,1.5601,1.5601,1.5601,1.5601,1.5575,1.5537,1.5531,1.551,1.5467,1.5392,1.4766,1.3438,1.3635,1.2879,1.119,0.0,0.0,0.0,1.1356,1.1944,1.1872,1.0453,0.9436,0.9227,0.847,0.0,0.7333,0.7822,0.8025,0.7724,0.719,0.0,0.0,0.0,0.0,0.0,0.0,0.0,0.0,0.0,0.0,0.0,0.1986,0.1448,0.1314,0.1125,0.1247,0.2052,0.201,0.2228,0.2722,0.2591,0.2438,0.2448,0.2365,0.1721,0.0292,-0.0392,-0.0988,-0.1605,-0.1916,-0.2122,-0.2122,-0.222,-0.2523,-0.2729,-0.2826,-0.2927,-0.3131,-0.3233,-0.3432,-0.3935,-0.4589,-0.515,-0.5362,-0.5957,-0.6348,-0.6355,-0.6574,-0.6901,-0.7081,-0.6964,-0.7235,-0.8034,-0.8428,-0.8578,-0.8851,-0.9225,-0.9327,-0.9019,-0.9225,-0.9324,-0.8924,-0.8924,-0.9126,2.2803,0.0,2.2334,2.1787,0.0,2.0955,1.9483,1.7259,1.741,1.685,1.5817,1.62,1.6107,1.5642,1.4943,1.4847,1.5167,1.4484,1.451,1.5183,1.5183,1.5483,1.607,1.607,1.6065,1.607,1.607,1.5957,1.5844,1.5844,1.5296,1.4364,1.458,1.4174,1.3199,1.3276,1.2711,1.1397,1.2034,1.2578,1.275,1.1829,1.0845,0.9852,0.0,0.0,0.0,0.0,0.0,0.0,0.0,0.0,0.0,0.0,0.0,0.4879,0.4544,0.4196,0.3916,0.3626,0.3557,0.38,0.3414,0.2954,0.2272,0.2533,0.298,0.3505,0.3263,0.3213,0.3474,0.3318,0.3139,0.3139,0.3142,0.276,0.1689,0.0398,-0.05,-0.1008,-0.1516,-0.1819,-0.1819,-0.2037,-0.2351,-0.2661,-0.2763,-0.2967,-0.3168,-0.3248,-0.3432,-0.4038,-0.5016,-0.5592,-0.5709,-0.6253,-0.6781,-0.7107,-0.7367,-0.7776,-0.7973,-0.7941,-0.8186,-0.8813,-0.9164,-0.9334,-0.9454,-0.9723,-0.9821,-0.9521,-0.9719,-0.9723,-0.9023,-0.9023,-0.9126,2.3414,2.3574,2.3067,2.2214,2.1308,2.1075,2.0208,1.9045,0.0,0.0,0.0,1.7289,1.6773,1.6161,1.5102,1.4719,1.4893,1.3901,1.4056,1.5038,1.5043,1.5596,1.6526,1.6537,1.6537,1.6537,1.6537,1.6419,1.62,1.6205,1.6081,1.5861,1.5991,1.6035,1.5736,1.5682,1.4852,1.3409,1.2969,1.3105,1.3798,1.3413,1.2347,1.0699,1.036,0.9045,0.678,0.6621,0.6314,0.5594,0.5491,0.5387,0.515,0.531,0.519,0.4627,0.4935,0.5298,0.5478,0.4933,0.4782,0.4959,0.4968,0.4436,0.3292,0.3866,0.4365,0.4337,0.4139,0.3866,0.3729,0.3331,0.323,0.323,0.323,0.3229,0.3027,0.1211,-0.0202,-0.0404,-0.1111,-0.1619,-0.1727,-0.1952,-0.2286,-0.25,-0.2815,-0.3121,-0.3414,-0.3468,-0.3734,-0.4444,-0.5239,-0.5829,-0.5957,-0.6539,-0.7217,-0.7768,-0.816,-0.857,-0.8906,-0.922,-0.9286,-0.9446,-0.988,-1.0078,-1.004,-1.0216,-1.0413,-1.0019,-1.0314,-1.031,-0.9521,-0.9426,-0.9525,2.3864,2.3596,2.3551,2.3284,2.2894,2.2777,2.2511,2.1774,1.9548,1.7869,1.695,1.7298,1.7126,1.6419,1.6188,1.626,1.6255,1.6037,1.6048,0.0,1.626,1.6317,1.6537,1.6537,1.6537,1.6537,1.6543,1.6537,1.6419,1.6419,1.6419,1.6363,1.6641,1.6473,1.6199,1.6005,1.5643,1.514,1.3683,1.2836,1.2653,1.1019,1.0111,0.9851,0.9048,0.8082,0.7193,0.6948,0.6584,0.6032,0.6569,0.6819,0.6641,0.6285,0.5987,0.5863,0.5901,0.5917,0.5631,0.5553,0.5521,0.5456,0.5459,0.5163,0.4568,0.4642,0.4704,0.4716,0.4314,0.392,0.3932,0.3531,0.323,0.323,0.323,0.323,0.313,0.1613,0.0303,-0.0303,-0.1111,-0.1728,-0.1953,-0.207,-0.2299,-0.2748,-0.3076,-0.3275,-0.3951,-0.4186,-0.4444,-0.5063,-0.5601,-0.5917,-0.6047,-0.6647,-0.7318,-0.7895,-0.8141,-0.8615,-0.9385,-0.9688,-0.9955,-1.018,-1.0632,-1.0988,-1.0946,-1.0998,-1.1096,-1.1002,-1.1194,-1.1194,-1.0605,-1.04,-0.9805,2.4394,2.4377,2.4254,2.4039,2.4006,2.382,2.353,2.3085,2.1717,1.9913,1.822,1.8359,1.8052,1.7196,1.6218,1.6034,1.6464,1.5387,1.531,1.6017,1.6034,1.6373,1.6985,1.7015,1.7009,1.7009,1.7009,1.6891,1.679,1.6918,1.6799,1.6335,1.6183,1.6105,1.6091,1.5876,1.5704,1.5596,1.4784,1.4204,1.3844,1.2983,1.251,1.2201,1.1584,1.1031,1.0314,0.943,0.8791,0.8292,0.7991,0.771,0.7464,0.7243,0.6966,0.6472,0.6562,0.637,0.5792,0.5751,0.5711,0.5768,0.561,0.5518,0.5176,0.5114,0.5037,0.5037,0.4636,0.4332,0.4034,0.3731,0.3429,0.323,0.323,0.323,0.3029,0.1815,0.0706,0.0202,-0.0808,-0.1723,-0.2043,-0.2183,-0.2531,-0.2983,-0.3328,-0.3862,-0.422,-0.4767,-0.5099,-0.5374,-0.5714,-0.6039,-0.6174,-0.6782,-0.7575,-0.8585,-0.8794,-0.9319,-1.0286,-1.0655,-1.0884,-1.1093,-1.135,-1.1514,-1.1595,-1.1878,-1.1975,-1.1975,-1.2078,-1.1975,-1.157,-1.0909,-1.0056,2.4865,2.5103,2.4857,2.4734,2.471,2.4322,2.4037,2.3816,2.3596,2.2163,2.0164,1.9891,1.9193,1.8077,1.6684,1.6446,1.6968,1.5555,1.5287,1.6127,1.6168,1.6718,1.7612,1.7666,1.7666,1.7666,1.7666,1.7547,1.7339,1.7457,1.7183,1.6414,1.6034,1.6008,1.6062,1.5894,1.5774,1.5607,1.572,1.5601,1.5235,1.5116,1.4888,1.4549,1.4088,1.3537,1.2743,1.1516,1.0588,0.9923,0.8895,0.8114,0.7994,0.7834,0.7489,0.6899,0.6985,0.6789,0.6208,0.5889,0.5837,0.6042,0.5937,0.5746,0.577,0.5473,0.5262,0.5144,0.4937,0.4636,0.4135,0.3833,0.3531,0.323,0.323,0.323,0.3029,0.1815,0.0806,0.0605,-0.0606,-0.1822,-0.2042,-0.2404,-0.2885,-0.3239,-0.3817,-0.4256,-0.4513,-0.5181,-0.5518,-0.5651,-0.5839,-0.6155,-0.6494,-0.7105,-0.8014,-0.9361,-0.9776,-1.0359,-1.1241,-1.1661,-1.1754,-1.1771,-1.18,-1.18,-1.1986,-1.236,-1.2651,-1.2748,-1.2942,-1.3033,-1.2436,-1.1723,-1.0649,2.5103,2.5103,2.5111,2.5111,2.498,2.4695,2.4499,2.4435,2.3865,2.3035,2.1861,2.1613,2.0669,1.9378,1.903,1.9095,1.9328,1.8372,1.798,1.8034,1.8106,1.8149,1.8301,1.8203,1.8215,1.8191,1.8295,1.8137,1.7991,1.7956,1.7625,1.7253,1.6995,1.6633,1.6425,1.6282,1.6052,1.5601,1.5844,1.5844,1.5601,1.5235,1.5124,1.5135,1.4099,1.3306,1.2864,1.1431,1.0449,0.9768,0.8728,0.8151,0.802,0.7585,0.7232,0.7117,0.7217,0.7021,0.6722,0.6434,0.6337,0.6337,0.6342,0.6385,0.6481,0.5985,0.5639,0.5273,0.4941,0.4642,0.4336,0.3736,0.3332,0.3238,0.3237,0.323,0.3029,0.1815,0.0806,0.0806,-0.0807,-0.2134,-0.2369,-0.2733,-0.3234,-0.3753,-0.4109,-0.4547,-0.5031,-0.5422,-0.578,-0.6068,-0.6307,-0.6474,-0.6825,-0.7648,-0.8653,-0.9662,-1.0526,-1.119,-1.1827,-1.204,-1.2149,-1.2154,-1.2088,-1.2083,-1.217,-1.2549,-1.3125,-1.3414,-1.38,-1.428,-1.3555,-1.2974,-1.2117,2.5103,2.5103,2.5103,2.5103,2.5111,2.4988,2.4783,2.4579,2.4324,2.358,2.2689,2.2894,2.2311,2.0725,2.0358,2.0523,2.1159,2.0147,1.9927,2.0059,1.992,1.992,2.0079,2.0093,1.9657,1.9025,1.9019,1.8564,1.7936,1.7464,1.7363,1.7367,1.6885,1.6572,1.6453,1.6453,1.6402,1.6194,1.6081,1.6081,1.5844,1.5596,1.5371,1.5141,1.4672,1.421,1.3755,1.244,1.1459,1.0887,0.9602,0.8692,0.8374,0.7896,0.764,0.7444,0.7141,0.6839,0.6539,0.6439,0.6437,0.6437,0.6505,0.6567,0.6616,0.6271,0.5979,0.5728,0.5255,0.4816,0.451,0.3962,0.3545,0.3271,0.3282,0.3271,0.3133,0.1816,0.0806,0.0706,-0.0807,-0.2124,-0.2455,-0.2932,-0.344,-0.3853,-0.4226,-0.4681,-0.521,-0.5713,-0.6079,-0.644,-0.6978,-0.7496,-0.7678,-0.811,-0.9201,-1.0293,-1.1104,-1.1714,-1.2459,-1.241,-1.2348,-1.2531,-1.2489,-1.2473,-1.2467,-1.3329,-1.4094,-1.4376,-1.5045,-1.5622,-1.5235,-1.482,-1.4038,2.5199,2.5111,2.5103,2.5103,2.5103,2.5103,2.496,2.4722,2.4627,2.4068,2.3349,2.3764,2.3356,2.2398,2.1664,2.1683,2.2089,2.1292,2.0998,2.1371,2.1061,2.1082,2.1413,2.1057,2.0415,1.9581,1.9202,1.8577,1.7618,1.7363,1.7339,1.7469,1.697,1.6799,1.6851,1.6828,1.6663,1.664,1.6465,1.6307,1.6194,1.5957,1.5606,1.5252,1.4836,1.4591,1.432,1.3103,1.2223,1.1664,1.0343,0.9317,0.8783,0.8302,0.7842,0.7547,0.7144,0.6839,0.6539,0.6437,0.6437,0.6445,0.6548,0.6635,0.6477,0.6363,0.6209,0.5885,0.5402,0.494,0.4694,0.4314,0.3895,0.3434,0.3332,0.3198,0.2753,0.1626,0.071,0.0303,-0.1109,-0.2326,-0.275,-0.3227,-0.3623,-0.414,-0.4527,-0.4908,-0.5586,-0.5982,-0.6476,-0.6875,-0.7834,-0.8223,-0.8352,-0.9108,-1.0031,-1.0997,-1.1856,-1.2431,-1.302,-1.2708,-1.2542,-1.2829,-1.2694,-1.305,-1.3522,-1.4292,-1.5337,-1.5805,-1.6473,-1.6951,-1.656,-1.6387,-1.6091,2.5413,2.5127,2.5111,2.5103,2.5103,2.5103,2.5095,2.5106,2.4706,2.4555,2.4444,2.3888,2.3745,2.3913,2.2951,2.2595,2.2491,2.1632,2.1427,2.1695,2.1673,2.1586,2.1498,2.0628,2.0093,1.9663,1.8916,1.8313,1.7829,1.7841,1.7859,1.7865,1.7505,1.7508,1.7655,1.7416,1.7202,1.6972,1.686,1.675,1.6414,1.6194,1.5718,1.5235,1.4579,1.4235,1.4056,1.2988,1.2332,1.2005,1.0563,0.963,0.9287,0.8505,0.7852,0.7653,0.7347,0.7042,0.6742,0.6548,0.6448,0.6458,0.6575,0.6575,0.6476,0.6263,0.6103,0.5775,0.5443,0.5192,0.5002,0.4488,0.4058,0.3906,0.3561,0.2908,0.1861,0.1343,0.041,-0.0506,-0.1714,-0.2636,-0.3504,-0.3626,-0.4011,-0.4536,-0.5027,-0.5393,-0.6021,-0.648,-0.7092,-0.7883,-0.8494,-0.8693,-0.8911,-0.9885,-1.1203,-1.2051,-1.262,-1.3164,-1.3183,-1.327,-1.3127,-1.3138,-1.3477,-1.3919,-1.4573,-1.5425,-1.6466,-1.7124,-1.7785,-1.8071,-1.7878,-1.769,-1.7507,2.6042,2.5717,2.5709,2.5709,2.5717,2.5717,2.5595,2.5367,2.5001,2.4968,2.5082,2.4667,2.4651,2.5001,2.4635,2.4142,2.3606,2.3314,2.3361,2.3452,2.3263,2.3361,2.345,2.2384,2.1243,2.0341,1.9393,1.8489,1.7672,1.7793,1.7871,1.7913,1.7937,1.8075,1.8123,1.7857,1.7605,1.7487,1.6996,1.6626,1.652,1.592,1.5454,1.5241,1.4939,1.4516,1.4217,1.3806,1.3217,1.255,1.1305,1.0266,0.9619,0.8491,0.7877,0.7775,0.7471,0.7232,0.6868,0.6822,0.6658,0.6567,0.6741,0.6754,0.6496,0.6372,0.6104,0.5768,0.555,0.5292,0.5084,0.4537,0.4159,0.4078,0.3682,0.2821,0.1647,0.1038,0.0521,-0.0711,-0.2017,-0.3139,-0.3568,-0.3808,-0.4288,-0.4919,-0.5206,-0.5599,-0.6333,-0.703,-0.7898,-0.8732,-0.9704,-1.0582,-1.0791,-1.1243,-1.1915,-1.2641,-1.3169,-1.326,-1.3357,-1.3663,-1.3669,-1.3471,-1.3811,-1.4802,-1.556,-1.6574,-1.752,-1.8249,-1.9004,-1.9096,-1.9096,-1.8993,-1.8962,2.6298,2.6092,2.6075,2.6075,2.6075,2.6075,2.5943,2.5704,2.5456,2.5489,2.5621,2.5341,2.5324,2.553,2.5563,2.5238,2.4456,2.4539,2.4651,2.4516,2.4276,2.4111,2.37,2.2781,2.164,2.051,1.9575,1.8631,1.7885,1.8037,1.8088,1.8143,1.8336,1.8463,1.8505,1.8291,1.8135,1.7883,1.7304,1.6885,1.675,1.6032,1.5555,1.5473,1.533,1.4912,1.4331,1.4245,1.3877,1.3073,1.2019,1.0864,0.9951,0.8795,0.8123,0.8024,0.7607,0.7161,0.689,0.6844,0.6889,0.6687,0.6861,0.6875,0.6552,0.6431,0.6151,0.5819,0.5567,0.53,0.509,0.4535,0.4262,0.4177,0.3579,0.2513,0.1432,0.0728,-0.0208,-0.1423,-0.2623,-0.3433,-0.3841,-0.4182,-0.4553,-0.5158,-0.5567,-0.6194,-0.6493,-0.7773,-0.8796,-0.9449,-1.0765,-1.1647,-1.2116,-1.2433,-1.284,-1.3341,-1.3389,-1.353,-1.3883,-1.4097,-1.4119,-1.3931,-1.4549,-1.5662,-1.6725,-1.7744,-1.8566,-1.9288,-1.9654,-1.9745,-1.9928,-2.0292,-2.0038,2.6083,2.6197,2.6067,2.6197,2.6197,2.6197,2.6189,2.6156,2.6114,2.604,2.599,2.5782,2.5633,2.5683,2.5683,2.5365,2.5109,2.4874,2.4647,2.463,2.4314,2.3661,2.2882,2.1833,2.073,1.9795,1.892,1.8488,1.8369,1.8323,1.8435,1.8577,1.8656,1.8764,1.903,1.8667,1.8476,1.8239,1.7857,1.7626,1.7485,1.675,1.6294,1.6113,1.5836,1.5259,1.4573,1.4352,1.4142,1.3645,1.2705,1.1622,1.0342,0.9332,0.8797,0.8482,0.7744,0.7217,0.6893,0.6793,0.6909,0.682,0.6923,0.6893,0.6582,0.6436,0.6161,0.581,0.53,0.5106,0.4914,0.4299,0.4062,0.4339,0.3141,0.2076,0.1345,0.0207,-0.1338,-0.2737,-0.3433,-0.3836,-0.4237,-0.4647,-0.4995,-0.5702,-0.6623,-0.7261,-0.7163,-0.8471,-0.9874,-1.0672,-1.1551,-1.2427,-1.3041,-1.362,-1.387,-1.4084,-1.3914,-1.39,-1.4515,-1.4886,-1.4858,-1.488,-1.6082,-1.7196,-1.8009,-1.8928,-1.9296,-1.9928,-2.0201,-2.0421,-2.0523,-2.0695,-2.0703,2.6822,2.6822,2.6822,2.6822,2.6822,2.6822,2.6822,2.6788,2.655,2.6389,2.6313,2.627,2.6262,2.6262,2.6262,2.6194,2.5957,2.5594,2.5238,2.4841,2.4394,2.3927,2.3317,2.1713,2.0117,1.9043,1.8595,1.8381,1.8398,1.8582,1.8672,1.8692,1.8867,1.8885,1.8825,1.8534,1.8315,1.804,1.7529,1.7232,1.7132,1.6779,1.6492,1.63,1.5915,1.5506,1.5357,1.4906,1.46,1.4208,1.3252,1.2019,1.0758,0.9976,0.9378,0.8955,0.8531,0.7837,0.7243,0.7091,0.7141,0.7053,0.7035,0.6984,0.6661,0.6359,0.6158,0.5699,0.4848,0.401,0.3837,0.2933,0.2794,0.4005,0.2786,0.0927,-0.0613,-0.1732,-0.2538,-0.3135,-0.3736,-0.4237,-0.4636,-0.4935,-0.5576,-0.6578,-0.7264,-0.7666,-0.8598,-0.9555,-1.1103,-1.2186,-1.2743,-1.293,-1.3454,-1.3964,-1.4282,-1.4575,-1.4558,-1.4692,-1.5306,-1.5741,-1.5792,-1.631,-1.7613,-1.8489,-1.9296,-1.9837,-2.0201,-2.0538,-2.0782,-2.0927,-2.1031,-2.1085,-2.1105,2.7185,2.7081,2.7081,2.7081,2.7081,2.7081,2.7081,2.7047,2.6816,2.6781,2.6755,2.6679,2.6619,2.6508,2.6482,2.6405,2.6294,2.5923,2.5569,2.5197,2.4655,2.4106,2.3192,2.1234,1.9849,1.9034,1.8973,1.893,1.905,1.9225,1.9237,1.9234,1.9382,1.932,1.8943,1.8781,1.8378,1.7901,1.7612,1.7238,1.7132,1.6897,1.6661,1.6632,1.6272,1.6031,1.5704,1.5434,1.4977,1.4473,1.3568,1.2564,1.1564,1.0904,1.0193,0.9435,0.8889,0.8205,0.7379,0.7225,0.7264,0.7172,0.7114,0.7152,0.6824,0.6381,0.5926,0.5874,0.4695,0.3435,0.253,0.1658,0.1633,0.2524,0.1527,-0.0204,-0.2224,-0.2928,-0.3332,-0.3633,-0.4137,-0.4738,-0.5238,-0.5739,-0.6364,-0.7541,-0.8211,-0.8364,-0.9611,-1.0451,-1.1894,-1.2869,-1.3047,-1.3371,-1.3864,-1.4337,-1.4791,-1.4991,-1.5265,-1.5671,-1.6238,-1.6805,-1.7008,-1.7956,-1.906,-1.942,-2.0144,-2.0482,-2.0835,-2.1141,-2.1353,-2.1282,-2.1312,-2.1438,-2.1623,2.7409,2.7194,2.7194,2.7194,2.7194,2.7194,2.7202,2.7081,2.7177,2.7021,2.703,2.7134,2.6833,2.6542,2.6482,2.6311,2.5886,2.5628,2.5477,2.5327,2.4995,2.4013,2.2146,2.0543,1.9663,1.9708,1.9615,1.9797,1.9942,1.9994,2.0222,2.0055,1.9916,1.9676,1.9125,1.9176,1.8567,1.7942,1.7848,1.762,1.7491,1.7256,1.7026,1.702,1.6856,1.6383,1.5848,1.5599,1.528,1.4568,1.3894,1.334,1.2772,1.2114,1.1101,0.9885,0.903,0.8137,0.7476,0.7238,0.7249,0.7138,0.7143,0.7154,0.6821,0.6246,0.5879,0.603,0.4732,0.3061,0.1452,0.051,0.0404,0.0202,-0.0303,-0.1616,-0.2928,-0.323,-0.3633,-0.4236,-0.4736,-0.5236,-0.6234,-0.6836,-0.7633,-0.8453,-0.9453,-0.9621,-0.9794,-1.0874,-1.2299,-1.2898,-1.3252,-1.3893,-1.4376,-1.4963,-1.5419,-1.6188,-1.6354,-1.6665,-1.7117,-1.7692,-1.835,-1.9304,-2.0044,-2.0417,-2.0744,-2.1141,-2.1441,-2.1627,-2.1673,-2.1514,-2.1688,-2.1991,-2.2251,2.7771,2.7779,2.7779,2.7659,2.7401,2.7401,2.7444,2.7358,2.7427,2.7297,2.7177,2.7289,2.7081,2.6516,2.6482,2.6285,2.5852,2.536,2.5217,2.5303,2.4998,2.3502,2.1705,2.0522,1.9979,1.98,1.9765,1.9814,2.0087,2.0232,2.0144,2.0087,1.9903,1.9543,1.9006,1.8794,1.8274,1.7754,1.7657,1.7608,1.7485,1.7367,1.7367,1.7355,1.6728,1.6368,1.6017,1.5241,1.4686,1.4209,1.3655,1.3207,1.2876,1.2441,1.145,1.0017,0.9578,0.8699,0.7598,0.7154,0.7154,0.7154,0.7143,0.6932,0.6265,0.6308,0.5934,0.5331,0.3836,0.2502,0.1137,-0.0204,-0.1011,-0.1614,-0.1917,-0.2522,-0.3331,-0.3836,-0.4237,-0.4734,-0.5534,-0.6334,-0.6933,-0.7726,-0.852,-0.962,-1.016,-1.0527,-1.0702,-1.1271,-1.2684,-1.3356,-1.3729,-1.4339,-1.4993,-1.5575,-1.6279,-1.7277,-1.7582,-1.7665,-1.8156,-1.8511,-1.9263,-2.0019,-2.0701,-2.115,-2.1407,-2.1669,-2.19,-2.2269,-2.2546,-2.2666,-2.2649,-2.284,-2.3035,2.814,2.8011,2.7873,2.7762,2.7762,2.7624,2.7685,2.7643,2.7694,2.7513,2.7263,2.7392,2.7064,2.6499,2.6482,2.6191,2.5622,2.5124,2.4931,2.5042,2.4515,2.3246,2.1683,2.0614,2.0023,1.9958,2.0001,2.0303,2.0537,2.0488,2.0423,2.0294,2.002,1.949,1.8859,1.8638,1.8307,1.7793,1.7726,1.7726,1.7726,1.7602,1.74,1.7334,1.6807,1.6453,1.5852,1.4917,1.4281,1.4145,1.3712,1.3315,1.3093,1.2772,1.1778,1.0014,0.9794,0.9027,0.7595,0.7154,0.6906,0.6651,0.6754,0.6618,0.5811,0.5755,0.5403,0.5774,0.3673,0.1865,0.0513,-0.0813,-0.1819,-0.2422,-0.2725,-0.313,-0.3734,-0.4236,-0.4636,-0.5135,-0.6134,-0.7229,-0.763,-0.8616,-0.9706,-1.06,-1.1002,-1.1255,-1.1608,-1.236,-1.3248,-1.4042,-1.4572,-1.5109,-1.5795,-1.6407,-1.701,-1.8003,-1.8883,-1.8983,-1.8967,-1.9414,-1.9819,-2.0541,-2.1248,-2.1891,-2.2063,-2.2244,-2.2619,-2.2991,-2.3446,-2.363,-2.3504,-2.3627,-2.3835,2.8397,2.825,2.7975,2.7864,2.8011,2.7873,2.7953,2.8041,2.7944,2.7864,2.7598,2.7504,2.7116,2.6551,2.661,2.6174,2.548,2.5252,2.4938,2.4623,2.3937,2.3006,2.2337,2.0805,2.0383,2.0348,2.0651,2.0808,2.0896,2.0956,2.0929,2.0597,2.0257,1.9698,1.9075,1.8941,1.8545,1.8127,1.7966,1.7972,1.7849,1.7713,1.737,1.7147,1.6858,1.6251,1.5469,1.4641,1.4207,1.4088,1.3867,1.3532,1.3315,1.2989,1.1778,1.0237,0.9574,0.8913,0.7575,0.7119,0.6633,0.5898,0.6539,0.6503,0.5467,0.5116,0.5402,0.5246,0.3323,0.0821,-0.0609,-0.1415,-0.202,-0.2725,-0.313,-0.3531,-0.4033,-0.4533,-0.5035,-0.5438,-0.6637,-0.7627,-0.8616,-0.9706,-1.0801,-1.1385,-1.178,-1.2083,-1.2499,-1.3202,-1.44,-1.5667,-1.5875,-1.5972,-1.6654,-1.7319,-1.8031,-1.8756,-1.9855,-2.0244,-1.9881,-2.0173,-2.0447,-2.0988,-2.1968,-2.2434,-2.2552,-2.2889,-2.3265,-2.3718,-2.4105,-2.4127,-2.405,-2.4238,-2.4495,2.9331,2.9795,2.9076,2.8618,2.8406,2.8562,2.8598,2.8376,2.8184,2.8011,2.7873,2.7642,2.7357,2.6927,2.6996,2.6533,2.5823,2.5579,2.5341,2.4744,2.3776,2.361,2.3119,2.1788,2.1145,2.1215,2.0903,2.0828,2.1015,2.0902,2.0742,2.0641,2.0119,1.9688,1.9186,1.8972,1.8725,1.8311,1.8083,1.8089,1.796,1.7695,1.7322,1.7044,1.6464,1.5777,1.4978,1.4639,1.4072,1.3532,1.3423,1.3418,1.3098,1.255,1.1341,1.0127,0.9247,0.8546,0.7374,0.7027,0.6642,0.5683,0.6098,0.6095,0.4259,0.5365,0.4493,0.2589,0.0103,-0.0915,-0.1719,-0.2019,-0.2523,-0.3027,-0.3632,-0.4334,-0.5035,-0.5138,-0.5639,-0.6637,-0.7928,-0.9019,-0.9813,-1.089,-1.178,-1.217,-1.2646,-1.2915,-1.3482,-1.4046,-1.5217,-1.645,-1.6697,-1.67,-1.7338,-1.8057,-1.8797,-1.9491,-2.0577,-2.1324,-2.0973,-2.0983,-2.1276,-2.1938,-2.2802,-2.3094,-2.3216,-2.3551,-2.3963,-2.4378,-2.4738,-2.5026,-2.5158,-2.5214,-2.5456,2.9686,2.9686,2.9222,2.8865,2.8764,2.8911,2.892,2.8792,2.8517,2.8388,2.8268,2.802,2.7779,2.7547,2.7513,2.6993,2.62,2.5549,2.5309,2.4966,2.4515,2.4586,2.4688,2.3575,2.2699,2.2047,2.1726,2.1471,2.1121,2.0815,2.0615,2.0448,1.988,1.9378,1.9116,1.8953,1.8784,1.8655,1.8538,1.8311,1.8188,1.7817,1.7195,1.6736,1.6113,1.5383,1.4843,1.4169,1.363,1.3093,1.2767,1.255,1.2219,1.1673,1.0794,0.9581,0.914,0.8307,0.7345,0.6867,0.637,0.5049,0.5461,0.4283,0.2808,0.2986,0.1949,-0.0102,-0.122,-0.1819,-0.2323,-0.2322,-0.2725,-0.3533,-0.4642,-0.5543,-0.5939,-0.5937,-0.6334,-0.7531,-0.8821,-0.9616,-1.0605,-1.1775,-1.2549,-1.3039,-1.38,-1.416,-1.4064,-1.4722,-1.5698,-1.6678,-1.6989,-1.7341,-1.7993,-1.8742,-1.9485,-2.0241,-2.124,-2.1836,-2.1905,-2.2006,-2.2199,-2.2807,-2.3353,-2.3784,-2.3926,-2.4287,-2.459,-2.4879,-2.5326,-2.5923,-2.6264,-2.6271,-2.6531,3.0039,2.945,2.9094,2.9103,2.9222,2.9103,2.8984,2.8984,2.8984,2.8627,2.8517,2.8517,2.8148,2.802,2.79,2.7322,2.638,2.5448,2.5129,2.53,2.5187,2.5477,2.5602,2.5181,2.4291,2.284,2.2813,2.2327,2.1443,2.099,2.0666,2.016,1.9622,1.924,1.9043,1.9004,1.9004,1.9004,1.8881,1.8597,1.8313,1.7771,1.7202,1.6398,1.588,1.5409,1.4826,1.4164,1.3295,1.2663,1.19,1.124,1.0798,1.0688,1.0112,0.9003,0.8649,0.801,0.713,0.6781,0.6174,0.4442,0.4328,0.3281,0.1523,0.0101,-0.0608,-0.1114,-0.1718,-0.2222,-0.2825,-0.2621,-0.3025,-0.4135,-0.6052,-0.6853,-0.6939,-0.7027,-0.7624,-0.8421,-0.9509,-1.04,-1.138,-1.2549,-1.313,-1.3902,-1.4758,-1.5305,-1.5201,-1.5625,-1.6807,-1.7604,-1.8053,-1.8282,-1.8877,-1.935,-2.0156,-2.0819,-2.1732,-2.213,-2.2507,-2.2631,-2.2694,-2.3197,-2.3697,-2.4116,-2.4491,-2.4777,-2.5039,-2.5465,-2.5873,-2.6371,-2.685,-2.7255,-2.759,3.0713,3.1169,2.9677,2.945,3.003,2.934,2.8984,2.8984,2.8755,2.8526,2.8517,2.8268,2.814,2.802,2.802,2.7449,2.6556,2.5691,2.5309,2.5429,2.5463,2.5729,2.6219,2.6262,2.5704,2.5059,2.4309,2.3222,2.2096,2.1661,2.0932,2.0006,1.9606,1.9289,1.9269,1.9366,1.9243,1.9229,1.8964,1.8635,1.8135,1.7723,1.7104,1.6387,1.5899,1.5482,1.4934,1.4277,1.3408,1.2001,1.124,1.0355,0.9673,0.9665,0.9399,0.8777,0.8094,0.7463,0.6865,0.6695,0.5999,0.4991,0.4261,0.3348,0.1617,-0.0101,-0.1212,-0.1515,-0.2221,-0.3026,-0.423,-0.3321,-0.382,-0.5231,-0.6645,-0.755,-0.8131,-0.8619,-0.911,-1.0002,-1.069,-1.1272,-1.2446,-1.3414,-1.4088,-1.486,-1.5622,-1.619,-1.6223,-1.7037,-1.8288,-1.8843,-1.9331,-1.9493,-1.972,-2.0199,-2.0733,-2.123,-2.1926,-2.2443,-2.2756,-2.2939,-2.3229,-2.3665,-2.4172,-2.4568,-2.4966,-2.523,-2.556,-2.5943,-2.6358,-2.685,-2.7323,-2.7776,-2.8249,3.1063,3.0946,2.9568,2.9568,3.0157,2.945,2.9331,2.9568,2.9103,2.8755,2.8746,2.8618,2.8498,2.8498,2.8498,2.7911,2.6892,2.5829,2.56,2.5806,2.5806,2.6062,2.6687,2.6765,2.6644,2.6156,2.5431,2.4024,2.2385,2.1833,2.1033,2.0037,1.9512,1.9372,1.9366,1.9366,1.9359,1.9339,1.9097,1.8722,1.8184,1.7528,1.6784,1.6265,1.5976,1.547,1.46,1.3619,1.2582,1.1233,1.0202,0.9381,0.8882,0.8652,0.8662,0.8262,0.7663,0.7132,0.6657,0.6511,0.6062,0.4863,0.4034,0.3026,0.1413,-0.0505,-0.2021,-0.2524,-0.2826,-0.3731,-0.4634,-0.4024,-0.4524,-0.5727,-0.7347,-0.8546,-0.9221,-0.9903,-1.0788,-1.1668,-1.2052,-1.2732,-1.3511,-1.4382,-1.5146,-1.5913,-1.6581,-1.6951,-1.7225,-1.811,-1.9198,-1.9715,-2.0105,-2.0153,-2.0375,-2.0719,-2.1273,-2.1818,-2.2199,-2.2692,-2.3021,-2.3283,-2.3683,-2.4303,-2.4693,-2.5361,-2.5443,-2.5734,-2.607,-2.6552,-2.7271,-2.7868,-2.8026,-2.83,-2.8817,3.1632,3.084,2.9903,3.0147,3.0723,2.9903,3.002,3.0382,2.9686,2.934,2.9222,2.9103,2.8984,2.8957,2.8728,2.8256,2.7275,2.5986,2.5869,2.608,2.6041,2.6308,2.6867,2.6987,2.6876,2.6329,2.6136,2.4793,2.2998,2.2144,2.1244,2.0302,1.9672,1.9591,1.9591,1.9591,1.9468,1.932,1.9072,1.8671,1.8065,1.7127,1.6445,1.5916,1.5885,1.5334,1.418,1.3194,1.1903,1.0659,0.9593,0.8733,0.8233,0.7934,0.7867,0.7742,0.7337,0.6813,0.6613,0.6369,0.6022,0.5258,0.3731,0.2219,0.0404,-0.1717,-0.3436,-0.4243,-0.4338,-0.4634,-0.5334,-0.5336,-0.5632,-0.6628,-0.8546,-1.016,-1.031,-1.0979,-1.215,-1.2926,-1.3409,-1.3974,-1.4638,-1.5146,-1.5812,-1.6567,-1.7246,-1.7885,-1.8234,-1.8653,-1.9561,-2.0219,-2.0634,-2.0721,-2.0965,-2.1144,-2.1778,-2.2313,-2.266,-2.2948,-2.3368,-2.3654,-2.4207,-2.4826,-2.5807,-2.6402,-2.6314,-2.6458,-2.7002,-2.7591,-2.8427,-2.8826,-2.8903,-2.9268,-2.978,3.2892,3.2675,3.1862,3.1977,3.255,3.1747,3.1516,3.1516,3.0616,3.0274,3.0039,2.9313,2.8948,2.8838,2.8319,2.7643,2.6902,2.6215,2.5969,2.6084,2.5933,2.6221,2.6885,2.6883,2.6485,2.6067,2.599,2.5128,2.3507,2.2662,2.1707,2.0452,2.0102,2.0155,2.0046,1.9768,1.9679,1.9353,1.9038,1.842,1.7534,1.6756,1.6285,1.601,1.5743,1.5234,1.3906,1.2901,1.1723,1.0209,0.9365,0.8839,0.8469,0.7846,0.7607,0.7282,0.6844,0.6287,0.6095,0.5977,0.5982,0.5354,0.3629,0.0605,-0.1513,-0.2726,-0.414,-0.5957,-0.5644,-0.5837,-0.6437,-0.6736,-0.7332,-0.8432,-0.9842,-1.0946,-1.1404,-1.1763,-1.3036,-1.3909,-1.4361,-1.4949,-1.5624,-1.6048,-1.6473,-1.7138,-1.7893,-1.8503,-1.9149,-1.9592,-2.0097,-2.0845,-2.1303,-2.1401,-2.1555,-2.1762,-2.2306,-2.2916,-2.3287,-2.3497,-2.3906,-2.4317,-2.4767,-2.5481,-2.6633,-2.7291,-2.7188,-2.7404,-2.7986,-2.8505,-2.9079,-2.9518,-2.9827,-3.0254,-3.0778,3.3582,3.2995,3.2197,3.2322,3.2892,3.2207,3.2082,3.2207,3.1073,3.0392,3.0217,2.9189,2.8526,2.8324,2.7739,2.7382,2.7025,2.6328,2.6267,2.6231,2.6171,2.6347,2.6716,2.684,2.6458,2.5754,2.5217,2.4459,2.3472,2.278,2.1936,2.0585,2.027,2.027,2.0357,1.9873,1.9514,1.9197,1.8709,1.7991,1.7326,1.6813,1.6418,1.6092,1.5852,1.475,1.3467,1.2496,1.1214,0.9745,0.8838,0.8384,0.7984,0.7521,0.7319,0.6822,0.6215,0.5989,0.5952,0.5844,0.5751,0.5251,0.3328,0.0706,-0.2322,-0.3835,-0.474,-0.6561,-0.6448,-0.6739,-0.7235,-0.7223,-0.7608,-0.8803,-1.0726,-1.1908,-1.2549,-1.2874,-1.3561,-1.4427,-1.5371,-1.5889,-1.6451,-1.6928,-1.7328,-1.7896,-1.8367,-1.8799,-1.9664,-2.0443,-2.095,-2.1553,-2.193,-2.2121,-2.2199,-2.2392,-2.2957,-2.3559,-2.4131,-2.4397,-2.4791,-2.5141,-2.5473,-2.6523,-2.7947,-2.8292,-2.8066,-2.8325,-2.8839,-2.9219,-2.967,-3.0194,-3.0719,-3.1462,-3.2069,3.4054,3.3356,3.2778,3.2903,3.3356,3.2789,3.2892,3.3243,3.1536,3.0665,3.0113,2.8988,2.8049,2.7792,2.7473,2.7268,2.7128,2.6533,2.6519,2.6468,2.6406,2.6474,2.6539,2.6522,2.5941,2.5486,2.4428,2.3583,2.2856,2.2378,2.1715,2.0522,2.0622,2.0622,2.043,2.0004,1.9548,1.9042,1.8292,1.7749,1.7231,1.6974,1.6592,1.6175,1.5497,1.4486,1.2774,1.1714,1.0408,0.9173,0.8388,0.7932,0.7513,0.7333,0.7033,0.657,0.6055,0.5754,0.5746,0.5646,0.5247,0.4137,0.2619,-0.0402,-0.2898,-0.4407,-0.5406,-0.6793,-0.6985,-0.7198,-0.7624,-0.7608,-0.8089,-0.928,-1.0993,-1.237,-1.3601,-1.3956,-1.4309,-1.5061,-1.5952,-1.6795,-1.731,-1.7794,-1.8242,-1.8709,-1.9034,-1.9276,-2.0039,-2.1043,-2.1641,-2.2216,-2.2594,-2.2819,-2.3015,-2.3191,-2.3768,-2.4337,-2.4909,-2.5392,-2.5656,-2.5841,-2.6097,-2.7459,-2.9039,-2.9306,-2.9162,-2.9387,-2.967,-3.0147,-3.0689,-3.1145,-3.1721,-3.2485,-3.3255,3.4412,3.4412,3.4289,3.4289,3.4412,3.4289,3.4289,3.4166,3.2426,3.1341,3.0581,2.8899,2.7888,2.7636,2.7352,2.6991,2.6731,2.6343,2.6256,2.6319,2.6202,2.6358,2.6355,2.5837,2.5001,2.4331,2.3542,2.2582,2.1784,2.1891,2.1496,2.114,2.0981,2.1096,2.0822,2.0188,1.943,1.8768,1.8043,1.7583,1.7285,1.7028,1.6721,1.6002,1.5157,1.4034,1.2496,1.1231,1.0045,0.8785,0.8119,0.773,0.7466,0.715,0.6836,0.6523,0.6093,0.5693,0.5492,0.4824,0.3629,0.1714,-0.0101,-0.1699,-0.3655,-0.4618,-0.5691,-0.6784,-0.7098,-0.773,-0.8171,-0.84,-0.878,-0.9964,-1.1638,-1.325,-1.4325,-1.4955,-1.5386,-1.5906,-1.6587,-1.7313,-1.823,-1.8679,-1.8929,-1.9408,-1.9824,-2.012,-2.0752,-2.1648,-2.2198,-2.2724,-2.3263,-2.3535,-2.3824,-2.4192,-2.4767,-2.5252,-2.5812,-2.6239,-2.6637,-2.6771,-2.6909,-2.8085,-2.9533,-2.9902,-3.0262,-3.0433,-3.0748,-3.1233,-3.1694,-3.2059,-3.2779,-3.3617,-3.4301,3.4524,3.4524,3.4524,3.4524,3.4524,3.4524,3.4524,3.4235,3.2826,3.1258,2.9958,2.8757,2.7901,2.7483,2.7041,2.6811,2.6683,2.6464,2.65,2.65,2.6464,2.6573,2.6271,2.5719,2.4898,2.4119,2.326,2.2391,2.1686,2.159,2.1342,2.124,2.1181,2.1057,2.0747,2.0118,1.9182,1.8431,1.7993,1.7701,1.7443,1.6873,1.6431,1.6141,1.4581,1.342,1.1993,1.0762,0.9585,0.8542,0.7836,0.7528,0.7301,0.6964,0.6642,0.6432,0.5904,0.5382,0.442,0.3679,0.2319,0.0,-0.14,-0.2569,-0.4094,-0.4552,-0.5625,-0.6614,-0.7414,-0.8028,-0.8867,-0.93,-0.9887,-1.1053,-1.2464,-1.4123,-1.5279,-1.6049,-1.6279,-1.6695,-1.7187,-1.7801,-1.8771,-1.9697,-1.9811,-2.0027,-2.0485,-2.0995,-2.1481,-2.219,-2.2809,-2.3295,-2.3806,-2.4269,-2.4543,-2.5131,-2.573,-2.6271,-2.6735,-2.7191,-2.7577,-2.7798,-2.8175,-2.9213,-3.0059,-3.0684,-3.1132,-3.1452,-3.1694,-3.1849,-3.2336,-3.2864,-3.3684,-3.464,-3.5232,3.4524,3.4524,3.4524,3.4524,3.4524,3.4524,3.4524,3.4235,3.3141,3.1328,2.9192,2.8301,2.7588,2.7172,2.6809,2.6609,2.6619,2.6591,2.6591,2.66,2.66,2.6591,2.6245,2.5476,2.4538,2.4047,2.3067,2.2124,2.1698,2.1528,2.1388,2.1306,2.1171,2.1016,2.0558,1.9664,1.8851,1.8296,1.7905,1.7799,1.7443,1.6905,1.6356,1.6061,1.4565,1.3104,1.1681,1.0371,0.9103,0.8174,0.7559,0.7251,0.7009,0.676,0.623,0.5711,0.5003,0.4288,0.3361,0.2053,0.08,-0.1197,-0.1981,-0.3027,-0.4041,-0.4746,-0.5873,-0.7621,-0.7946,-0.8402,-0.9715,-1.0332,-1.0754,-1.1728,-1.4011,-1.5752,-1.6825,-1.7556,-1.7429,-1.7497,-1.8175,-1.9021,-1.9977,-2.0938,-2.1204,-2.1421,-2.1698,-2.1727,-2.1476,-2.236,-2.3498,-2.395,-2.4413,-2.484,-2.5308,-2.5857,-2.647,-2.7184,-2.7706,-2.8206,-2.8579,-2.8789,-2.9242,-3.0136,-3.0865,-3.1558,-3.1959,-3.2256,-3.2336,-3.2336,-3.3008,-3.3887,-3.4559,-3.5448,-3.5933,3.4524,3.4524,3.4524,3.4524,3.4524,3.4524,3.4524,3.4379,3.3311,3.1534,2.9235,2.772,2.6855,2.68,2.6691,2.6591,2.6591,2.6591,2.6591,2.6591,2.6591,2.6591,2.6017,2.5247,2.4256,2.3672,2.278,2.2025,2.1728,2.1805,2.1632,2.1257,2.1056,2.0855,2.0514,1.9519,1.8737,1.8366,1.7898,1.7647,1.7462,1.6898,1.6311,1.5487,1.4225,1.2683,1.1264,0.9596,0.8536,0.7882,0.7155,0.6915,0.6834,0.6317,0.5337,0.3708,0.2558,0.2083,0.219,0.0776,-0.0684,-0.1862,-0.2626,-0.3547,-0.4576,-0.5445,-0.656,-0.8383,-0.8901,-1.0045,-1.0923,-1.1527,-1.1796,-1.2916,-1.5278,-1.7212,-1.8159,-1.8795,-1.8654,-1.8716,-1.9771,-2.0702,-2.1558,-2.2252,-2.2628,-2.2821,-2.3075,-2.2812,-2.2212,-2.2835,-2.4174,-2.4902,-2.5303,-2.5585,-2.6052,-2.6595,-2.7227,-2.7966,-2.8623,-2.9115,-2.9364,-2.9416,-3.0042,-3.094,-3.17,-3.2435,-3.2765,-3.3008,-3.338,-3.3806,-3.4317,-3.5052,-3.5661,-3.6174,-3.6626,3.4524,3.4524,3.4524,3.4524,3.4524,3.4524,3.4524,3.4181,3.2944,3.1433,2.9977,2.828,2.7323,2.7107,2.6691,2.6591,2.6591,2.6591,2.6591,2.6591,2.6582,2.6254,2.5798,2.4889,2.4119,2.3456,2.257,2.2116,2.2017,2.2078,2.1797,2.1316,2.0624,2.02,1.9974,1.922,1.8724,1.8401,1.7845,1.7495,1.7241,1.6462,1.5651,1.4923,1.3314,1.186,1.0667,0.8928,0.7959,0.7491,0.6867,0.6599,0.6441,0.5941,0.4862,0.2789,0.111,-0.0737,-0.1299,-0.2351,-0.2654,-0.3046,-0.3324,-0.4404,-0.5796,-0.6523,-0.78,-0.9204,-1.0103,-1.1204,-1.2026,-1.2785,-1.3327,-1.4448,-1.633,-1.8164,-1.9321,-1.9668,-1.9841,-2.0191,-2.0924,-2.2027,-2.2936,-2.3514,-2.3913,-2.3944,-2.4073,-2.4188,-2.3777,-2.4165,-2.5113,-2.592,-2.6432,-2.6532,-2.6789,-2.7237,-2.7886,-2.8568,-2.9316,-2.9929,-3.0069,-3.0177,-3.085,-3.1712,-3.2542,-3.3271,-3.3587,-3.4038,-3.4872,-3.547,-3.5834,-3.6148,-3.6613,-3.6991,-3.7281,3.4524,3.4524,3.4524,3.4524,3.4524,3.4524,3.4401,3.3802,3.2322,3.1069,2.9878,2.8365,2.7328,2.7045,2.68,2.6591,2.6591,2.6591,2.6591,2.6582,2.6364,2.6026,2.5459,2.4667,2.4008,2.3352,2.2909,2.2456,2.2328,2.2212,2.1865,2.1053,2.0193,1.9886,1.9648,1.9186,1.8772,1.8359,1.7888,1.74,1.6817,1.589,1.4825,1.3935,1.2501,1.0858,0.9697,0.8534,0.7376,0.6917,0.6555,0.601,0.5686,0.4715,0.3574,0.1182,-0.0725,-0.244,-0.337,-0.4015,-0.4231,-0.4717,-0.4695,-0.5496,-0.6992,-0.8051,-0.9297,-1.0499,-1.1428,-1.2726,-1.3837,-1.4515,-1.528,-1.6357,-1.7649,-1.9522,-2.0417,-2.0736,-2.1194,-2.1522,-2.2188,-2.3294,-2.4172,-2.4683,-2.5176,-2.508,-2.4987,-2.5084,-2.514,-2.5355,-2.5638,-2.6343,-2.6876,-2.6826,-2.7181,-2.7832,-2.8479,-2.9202,-2.9988,-3.069,-3.0998,-3.1168,-3.1792,-3.2481,-3.3323,-3.4057,-3.4546,-3.514,-3.5966,-3.6627,-3.7009,-3.7294,-3.7615,-3.7911,-3.822,3.4524,3.4524,3.4524,3.4524,3.4524,3.4412,3.3942,3.2964,3.1707,3.0475,2.9215,2.7995,2.7188,2.6774,2.6609,2.6691,2.6582,2.6582,2.6582,2.6364,2.6026,2.5806,2.5247,2.4462,2.3792,2.3456,2.3014,2.2675,2.2644,2.2299,2.1798,2.1054,2.0166,1.9807,1.9539,1.9197,1.875,1.8345,1.7757,1.7299,1.6629,1.5214,1.4254,1.3237,1.1727,1.0285,0.9014,0.7859,0.667,0.6007,0.5642,0.4563,0.3343,0.1885,0.0359,-0.1166,-0.2601,-0.3676,-0.4395,-0.5022,-0.5908,-0.6585,-0.7341,-0.7571,-0.8316,-0.9744,-1.0982,-1.2186,-1.3247,-1.4803,-1.6177,-1.6762,-1.7351,-1.8432,-1.9467,-2.0643,-2.1575,-2.2081,-2.2477,-2.3021,-2.3756,-2.4577,-2.4977,-2.5555,-2.581,-2.5755,-2.5667,-2.5747,-2.5795,-2.5727,-2.598,-2.627,-2.675,-2.6899,-2.7451,-2.8452,-2.93,-3.0152,-3.0857,-3.1519,-3.1762,-3.2109,-3.261,-3.3277,-3.4161,-3.4839,-3.527,-3.6034,-3.7061,-3.7637,-3.8164,-3.8645,-3.9013,-3.9139,-3.9479,3.4524,3.4524,3.4524,3.4524,3.4412,3.3818,3.3356,3.2943,3.1717,3.0532,2.9507,2.8136,2.7419,2.7326,2.7029,2.6918,2.6791,2.6682,2.6245,2.6026,2.5798,2.5136,2.4582,2.4024,2.3585,2.3239,2.3014,2.2877,2.2743,2.2348,2.1703,2.0922,2.0135,1.9813,1.9465,1.9138,1.8715,1.8171,1.7524,1.6961,1.6023,1.4714,1.363,1.2314,1.0905,0.9501,0.8268,0.6941,0.598,0.6026,0.4829,0.3599,0.2512,0.0538,-0.1345,-0.2689,-0.4028,-0.5275,-0.5711,-0.677,-0.7738,-0.869,-0.9887,-1.0911,-1.1214,-1.1701,-1.2735,-1.3833,-1.5079,-1.6569,-1.7552,-1.8106,-1.8806,-1.97,-2.0722,-2.164,-2.2476,-2.311,-2.357,-2.4192,-2.4921,-2.5305,-2.5766,-2.5911,-2.6104,-2.6161,-2.6249,-2.6238,-2.6371,-2.6274,-2.6507,-2.6777,-2.736,-2.7739,-2.8483,-2.9431,-3.0262,-3.1073,-3.1717,-3.229,-3.2678,-3.3035,-3.3431,-3.425,-3.5293,-3.5751,-3.5985,-3.7015,-3.8433,-3.8883,-3.9428,-3.9894,-4.0322,-4.0477,-4.0877,3.4524,3.4524,3.4524,3.4524,3.4412,3.3942,3.3272,3.2375,3.1204,3.0107,2.907,2.8024,2.753,2.7434,2.7201,2.7206,2.7107,2.7008,2.6682,2.6017,2.5569,2.4898,2.4231,2.3689,2.3352,2.3127,2.2982,2.2927,2.2672,2.2024,2.1251,2.0802,2.0147,1.9598,1.9138,1.8561,1.7845,1.7281,1.6747,1.6315,1.5307,1.3987,1.2515,1.1429,0.9917,0.876,0.7706,0.6174,0.6001,0.5494,0.3868,0.251,0.1163,-0.0985,-0.2865,-0.4206,-0.5181,-0.6245,-0.7037,-0.8006,-0.9139,-1.0438,-1.1901,-1.3002,-1.3924,-1.449,-1.5004,-1.5764,-1.6911,-1.806,-1.8691,-1.9316,-1.9993,-2.0748,-2.1659,-2.2574,-2.3331,-2.4066,-2.4683,-2.5288,-2.5726,-2.6088,-2.6304,-2.6337,-2.6285,-2.6188,-2.6112,-2.6176,-2.6394,-2.6565,-2.7024,-2.7563,-2.8261,-2.8888,-2.9629,-3.0358,-3.1266,-3.1995,-3.2551,-3.3082,-3.3486,-3.3924,-3.4349,-3.5345,-3.6546,-3.6826,-3.701,-3.8638,-3.9932,-4.0271,-4.0793,-4.1567,-4.1933,-4.1946,-4.2493,3.4524,3.4513,3.448,3.4425,3.4458,3.4148,3.3098,3.1523,3.0276,2.9212,2.8295,2.7921,2.7666,2.7687,2.7498,2.7422,2.7323,2.7107,2.6554,2.6008,2.5238,2.4454,2.3776,2.3328,2.3127,2.3006,2.2887,2.2672,2.2283,2.1715,2.1152,2.0434,1.999,1.9354,1.8513,1.7691,1.6951,1.6238,1.5692,1.5147,1.4288,1.2814,1.1189,1.0471,0.9441,0.8416,0.7412,0.6617,0.594,0.4238,0.2686,0.1254,-0.0627,-0.2504,-0.4291,-0.5447,-0.6242,-0.7214,-0.8265,-0.9314,-1.0692,-1.1895,-1.3093,-1.4511,-1.5591,-1.6085,-1.6429,-1.7016,-1.8021,-1.8957,-1.9648,-2.035,-2.1035,-2.1805,-2.268,-2.3338,-2.3886,-2.4694,-2.5477,-2.5943,-2.6321,-2.6611,-2.6388,-2.639,-2.6222,-2.6058,-2.5952,-2.5976,-2.6726,-2.7106,-2.7601,-2.8286,-2.9011,-2.9787,-3.0608,-3.1368,-3.228,-3.2966,-3.3467,-3.3971,-3.443,-3.4841,-3.5256,-3.6507,-3.7798,-3.7945,-3.8409,-4.0059,-4.1209,-4.1313,-4.2032,-4.3202,-4.354,-4.3343,-4.3586,3.4524,3.448,3.4119,3.3967,3.3802,3.2799,3.1939,3.1023,2.9678,2.892,2.8568,2.8366,2.822,2.8138,2.7851,2.7745,2.7638,2.7135,2.6118,2.5459,2.4795,2.4136,2.3336,2.3119,2.3014,2.2919,2.2712,2.2323,2.1747,2.1301,2.0849,1.9925,1.9354,1.8617,1.7681,1.6852,1.5965,1.5213,1.4185,1.3713,1.3219,1.2152,1.0881,0.9905,0.8891,0.7678,0.6777,0.5982,0.4349,0.2506,0.1164,-0.0448,-0.2419,-0.4111,-0.5181,-0.6068,-0.7214,-0.8181,-0.9314,-1.0611,-1.198,-1.325,-1.4518,-1.6011,-1.7009,-1.7253,-1.7565,-1.8162,-1.8806,-1.9802,-2.0632,-2.1323,-2.206,-2.282,-2.3654,-2.4074,-2.4504,-2.5324,-2.6119,-2.6533,-2.6888,-2.6855,-2.6588,-2.6465,-2.614,-2.5974,-2.5784,-2.6044,-2.7407,-2.8099,-2.8368,-2.9002,-2.973,-3.0516,-3.1332,-3.2297,-3.3214,-3.3859,-3.4284,-3.4814,-3.5402,-3.564,-3.5985,-3.7731,-3.8938,-3.9203,-4.0005,-4.1665,-4.2515,-4.2378,-4.2949,-4.4014,-4.4398,-4.4285,-4.4512,3.3879,3.3835,3.3584,3.3475,3.3312,3.2631,3.1759,3.0771,2.9995,2.9263,2.8535,2.8334,2.8327,2.8445,2.8174,2.8077,2.7979,2.7418,2.6609,2.5688,2.4693,2.3946,2.3488,2.3135,2.3022,2.2911,2.2442,2.1873,2.1059,2.0608,2.0015,1.9056,1.8408,1.7765,1.6711,1.5783,1.4872,1.4051,1.283,1.2157,1.1964,1.0955,1.0199,0.9221,0.8568,0.7455,0.6103,0.5141,0.3151,0.1253,-0.0179,-0.1879,-0.3578,-0.4912,-0.6154,-0.7126,-0.8181,-0.9235,-1.0356,-1.1729,-1.3262,-1.4357,-1.544,-1.6846,-1.8249,-1.8461,-1.877,-1.9336,-1.9678,-2.0522,-2.1134,-2.1789,-2.2484,-2.3194,-2.4097,-2.48,-2.5226,-2.577,-2.6396,-2.6807,-2.7136,-2.7446,-2.7373,-2.7721,-2.7482,-2.7441,-2.6983,-2.7097,-2.8246,-2.9346,-2.9535,-2.9955,-3.0742,-3.1365,-3.2098,-3.3126,-3.4121,-3.4688,-3.5065,-3.5698,-3.6172,-3.6273,-3.6847,-3.8274,-3.962,-4.0637,-4.1679,-4.275,-4.3157,-4.2969,-4.3732,-4.4707,-4.4924,-4.5014,-4.5061,3.3104,3.306,3.3016,3.2984,3.2962,3.2896,3.1977,3.0777,3.0532,2.9688,2.8398,2.8125,2.8077,2.8184,2.8301,2.8301,2.8106,2.7634,2.6955,2.6035,2.5034,2.4153,2.3601,2.3255,2.3031,2.2609,2.2039,2.1102,2.0265,1.9695,1.8991,1.8073,1.7331,1.6692,1.5506,1.468,1.389,1.291,1.1846,1.0915,1.0255,0.9525,0.9023,0.8728,0.8568,0.803,0.6114,0.377,0.1708,0.0358,-0.1342,-0.313,-0.4469,-0.5622,-0.6949,-0.8009,-0.8973,-1.0101,-1.1391,-1.2753,-1.4196,-1.5379,-1.6363,-1.7543,-1.8937,-1.9467,-1.9752,-2.0262,-2.0646,-2.0994,-2.1589,-2.223,-2.288,-2.3777,-2.4675,-2.5585,-2.6033,-2.6414,-2.6875,-2.7214,-2.7525,-2.79,-2.8201,-2.8629,-2.8736,-2.8656,-2.8878,-2.9116,-2.953,-3.0433,-3.1021,-3.1518,-3.2222,-3.2732,-3.3062,-3.3746,-3.4769,-3.5283,-3.5688,-3.6392,-3.6917,-3.6914,-3.7337,-3.8438,-3.975,-4.1026,-4.1981,-4.2854,-4.3127,-4.3563,-4.4228,-4.4948,-4.5019,-4.5125,-4.5213,3.3071,3.3038,3.2678,3.2514,3.2459,3.2099,3.1173,3.0214,3.0098,2.9414,2.8514,2.8291,2.8291,2.8291,2.8301,2.8262,2.8096,2.7755,2.6809,2.5789,2.465,2.4053,2.3615,2.3134,2.2941,2.2328,2.1347,2.0332,1.9381,1.8647,1.795,1.7285,1.6431,1.5755,1.4888,1.3933,1.3133,1.2147,1.1295,1.0388,0.9236,0.8517,0.7826,0.773,0.779,0.6426,0.4237,0.1004,0.018,-0.0716,-0.2147,-0.4024,-0.5361,-0.6334,-0.7658,-0.8798,-0.9758,-1.0961,-1.2334,-1.3749,-1.5184,-1.6296,-1.7334,-1.8523,-1.9409,-1.9652,-2.0153,-2.1101,-2.1419,-2.1576,-2.2073,-2.2598,-2.3256,-2.453,-2.5663,-2.6427,-2.7052,-2.7459,-2.7829,-2.8091,-2.8363,-2.8538,-2.8703,-2.899,-2.9143,-2.9259,-2.9714,-2.9993,-3.0613,-3.155,-3.2447,-3.2914,-3.3462,-3.3824,-3.4055,-3.4376,-3.5144,-3.5705,-3.6199,-3.6713,-3.7129,-3.7395,-3.799,-3.8834,-4.0035,-4.1342,-4.2216,-4.3025,-4.3811,-4.4304,-4.4673,-4.5103,-4.5148,-4.5216,-4.5281]}]]